[[{"header":{"parameterUnit":"m.s-1","parameterCategory":1,"la1":30.6,"la2":29.2853,"lo1":-89.7004,"lo2":-87.6739,"dy":0.0162,"dx":0.0183,"nx":112,"ny":82,"refTime":"2026-03-24T00:00:00:Z","depth":0,"parameterNumber":2,"parameterNumberName":"U-component_of_WINDS"},"data":[0.0,0.0,0.0,0.0,0.0,0.0,0.0,0.0,0.0,0.0,0.0,0.0,0.0,0.0,0.0,0.0,0.0,0.0,0.0,0.0,0.0,0.0,0.0,0.0,0.0,0.0,0.0,0.0,0.0,0.0,0.0,0.0,0.0,0.0,0.0,0.0,0.0,0.0,0.0,0.0,0.0,0.0,0.0,0.0,0.0,0.0,0.0,0.0,0.0,0.0,0.0,0.0,0.0,0.0,0.0,0.0,0.0,0.0,0.0,0.0,0.0,0.0,0.0,0.0,0.0,0.0,0.0,0.0,0.0,0.0,0.0,0.0,0.0,0.0,0.0,0.0,0.0,0.0,0.0,0.0,0.0,0.0,0.0,0.0,0.0,0.0,0.0,0.0,0.0,0.0,-1.9427,-2.141,-2.621,-3.015,-3.2236,-3.2706,-3.1141,-2.6959,0.0,0.0,0.0,0.0,0.0,0.0,0.0,0.0,0.0,0.0,0.0,0.0,0.0,0.0,0.0,0.0,0.0,0.0,0.0,0.0,0.0,0.0,0.0,0.0,0.0,0.0,0.0,0.0,0.0,0.0,0.0,0.0,0.0,0.0,0.0,0.0,0.0,0.0,0.0,0.0,0.0,0.0,0.0,0.0,0.0,0.0,0.0,0.0,0.0,0.0,0.0,0.0,0.0,0.0,0.0,0.0,0.0,0.0,0.0,0.0,0.0,0.0,0.0,0.0,0.0,0.0,0.0,0.0,0.0,0.0,0.0,0.0,0.0,0.0,0.0,0.0,0.0,0.0,0.0,0.0,0.0,0.0,0.0,0.0,0.0,0.0,0.0,0.0,0.0,0.0,0.0,0.0,0.0,0.0,0.0,0.0,0.0,0.0,0.0,0.0,0.0,0.0,0.0,0.0,-1.8884,-2.4482,-2.7053,-2.9151,-3.1241,-3.1632,-3.0237,-2.6499,0.0,0.0,0.0,0.0,0.0,0.0,0.0,0.0,0.0,0.0,0.0,0.0,0.0,0.0,0.0,0.0,0.0,0.0,0.0,0.0,0.0,0.0,0.0,0.0,0.0,0.0,0.0,0.0,0.0,0.0,0.0,0.0,0.0,0.0,0.0,0.0,0.0,0.0,0.0,0.0,0.0,0.0,0.0,0.0,0.0,0.0,0.0,0.0,0.0,0.0,0.0,0.0,0.0,0.0,0.0,0.0,0.0,0.0,0.0,0.0,0.0,0.0,0.0,0.0,0.0,0.0,0.0,0.0,0.0,0.0,0.0,0.0,0.0,0.0,0.0,0.0,0.0,0.0,0.0,0.0,0.0,0.0,0.0,0.0,0.0,0.0,0.0,0.0,0.0,0.0,0.0,0.0,0.0,0.0,0.0,0.0,0.0,0.0,0.0,0.0,0.0,0.0,0.0,-1.7672,-2.0068,-2.5605,-2.6827,-2.8299,-3.0944,-3.1002,-2.9536,-2.6387,-2.4948,0.0,0.0,0.0,0.0,0.0,0.0,0.0,0.0,0.0,0.0,0.0,0.0,0.0,0.0,0.0,0.0,0.0,0.0,0.0,0.0,0.0,0.0,0.0,0.0,0.0,0.0,0.0,0.0,0.0,0.0,0.0,0.0,0.0,0.0,0.0,0.0,0.0,0.0,0.0,0.0,0.0,0.0,0.0,0.0,0.0,0.0,0.0,0.0,0.0,0.0,0.0,0.0,0.0,0.0,0.0,0.0,0.0,0.0,0.0,0.0,0.0,0.0,0.0,0.0,0.0,0.0,0.0,0.0,0.0,0.0,0.0,0.0,0.0,0.0,0.0,0.0,0.0,0.0,0.0,0.0,0.0,0.0,0.0,0.0,0.0,0.0,0.0,0.0,0.0,0.0,0.0,0.0,0.0,0.0,0.0,0.0,0.0,0.0,0.0,0.0,0.0,0.0,-1.9333,-2.148,-2.5628,-2.6307,-2.7579,-3.024,-3.0098,-2.8723,-2.6015,-2.4195,0.0,0.0,0.0,0.0,0.0,0.0,0.0,0.0,0.0,0.0,0.0,0.0,0.0,0.0,0.0,0.0,0.0,0.0,0.0,0.0,0.0,0.0,0.0,0.0,0.0,0.0,0.0,0.0,0.0,0.0,0.0,0.0,0.0,0.0,0.0,0.0,0.0,0.0,0.0,0.0,0.0,0.0,0.0,0.0,0.0,0.0,0.0,0.0,0.0,0.0,0.0,0.0,0.0,0.0,0.0,0.0,0.0,0.0,0.0,0.0,0.0,0.0,0.0,0.0,0.0,0.0,0.0,0.0,0.0,0.0,0.0,0.0,0.0,0.0,0.0,0.0,0.0,0.0,0.0,0.0,0.0,0.0,0.0,0.0,0.0,0.0,0.0,0.0,0.0,0.0,0.0,0.0,0.0,0.0,0.0,0.0,0.0,0.0,0.0,0.0,0.0,0.0,-1.9832,-2.2549,-2.4682,-2.5891,-2.6953,-2.8243,-2.8635,-2.7693,-2.505,-2.3188,0.0,0.0,0.0,0.0,0.0,0.0,0.0,0.0,0.0,0.0,0.0,0.0,0.0,0.0,0.0,0.0,0.0,0.0,0.0,0.0,0.0,0.0,0.0,0.0,0.0,0.0,0.0,0.0,0.0,0.0,0.0,0.0,0.0,0.0,0.0,0.0,0.0,0.0,0.0,0.0,0.0,0.0,0.0,0.0,0.0,0.0,0.0,0.0,0.0,0.0,0.0,0.0,0.0,0.0,0.0,0.0,0.0,0.0,0.0,0.0,0.0,0.0,0.0,0.0,0.0,0.0,0.0,0.0,0.0,0.0,0.0,0.0,0.0,0.0,0.0,0.0,0.0,0.0,0.0,0.0,0.0,0.0,0.0,0.0,0.0,0.0,0.0,0.0,0.0,0.0,0.0,0.0,0.0,0.0,0.0,0.0,0.0,0.0,0.0,0.0,0.0,0.0,-1.941,-2.2059,-2.4545,-2.5797,-2.6964,-2.8016,-2.8898,-2.8099,-2.4983,0.0,0.0,0.0,0.0,0.0,0.0,0.0,0.0,0.0,0.0,0.0,0.0,0.0,0.0,0.0,0.0,0.0,0.0,0.0,0.0,0.0,0.0,0.0,0.0,0.0,0.0,0.0,0.0,0.0,0.0,0.0,0.0,0.0,0.0,0.0,0.0,0.0,0.0,0.0,0.0,0.0,0.0,0.0,0.0,0.0,0.0,0.0,0.0,0.0,0.0,0.0,0.0,0.0,0.0,0.0,0.0,0.0,0.0,0.0,0.0,0.0,0.0,0.0,0.0,0.0,0.0,0.0,0.0,0.0,0.0,0.0,0.0,0.0,0.0,0.0,0.0,0.0,0.0,0.0,0.0,0.0,0.0,0.0,0.0,0.0,0.0,0.0,0.0,0.0,0.0,0.0,0.0,0.0,0.0,0.0,0.0,0.0,0.0,0.0,0.0,0.0,0.0,-1.7145,-1.9562,-2.2056,-2.4272,-2.5869,-2.7096,-2.7988,-2.8668,-2.7795,-2.4996,0.0,0.0,0.0,0.0,0.0,0.0,0.0,0.0,0.0,0.0,0.0,0.0,0.0,0.0,0.0,0.0,0.0,0.0,0.0,0.0,0.0,0.0,0.0,0.0,0.0,0.0,0.0,0.0,0.0,0.0,0.0,0.0,0.0,0.0,0.0,0.0,0.0,0.0,0.0,0.0,0.0,0.0,0.0,0.0,0.0,0.0,0.0,0.0,0.0,0.0,0.0,0.0,0.0,0.0,0.0,0.0,0.0,0.0,0.0,0.0,0.0,0.0,0.0,0.0,0.0,0.0,0.0,0.0,0.0,0.0,0.0,0.0,0.0,0.0,0.0,0.0,0.0,0.0,0.0,0.0,0.0,0.0,0.0,0.0,0.0,0.0,0.0,0.0,0.0,0.0,0.0,0.0,0.0,0.0,0.0,0.0,0.0,0.0,0.0,0.0,0.0,0.0,-1.7969,-2.0654,-2.2852,-2.3711,-2.5849,-2.7413,-2.7883,-2.7531,-2.659,0.0,0.0,0.0,0.0,0.0,0.0,0.0,0.0,0.0,0.0,0.0,0.0,0.0,0.0,0.0,0.0,0.0,0.0,0.0,0.0,0.0,0.0,0.0,0.0,0.0,0.0,0.0,0.0,0.0,0.0,0.0,0.0,0.0,0.0,0.0,0.0,0.0,0.0,0.0,0.0,0.0,0.0,0.0,0.0,0.0,0.0,0.0,0.0,0.0,0.0,0.0,0.0,0.0,0.0,0.0,0.0,0.0,0.0,0.0,0.0,0.0,0.0,0.0,0.0,0.0,0.0,0.0,0.0,0.0,0.0,0.0,0.0,0.0,0.0,0.0,0.0,0.0,0.0,0.0,0.0,0.0,0.0,0.0,0.0,0.0,0.0,0.0,0.0,0.0,0.0,0.0,0.0,0.0,0.0,0.0,0.0,0.0,0.0,0.0,0.0,0.0,0.0,0.0,-1.8398,-2.1357,-2.3623,-2.417,-2.5558,-2.648,-2.6619,-2.73,-2.6351,-2.3038,0.0,0.0,0.0,0.0,0.0,0.0,0.0,0.0,0.0,0.0,0.0,0.0,0.0,0.0,0.0,0.0,0.0,0.0,0.0,0.0,0.0,0.0,0.0,0.0,0.0,0.0,0.0,0.0,0.0,0.0,0.0,0.0,0.0,0.0,0.0,0.0,0.0,0.0,0.0,0.0,0.0,0.0,0.0,0.0,0.0,0.0,0.0,0.0,0.0,0.0,0.0,0.0,0.0,0.0,0.0,0.0,0.0,0.0,0.0,0.0,0.0,0.0,0.0,0.0,0.0,0.0,0.0,0.0,0.0,0.0,0.0,0.0,0.0,0.0,0.0,0.0,0.0,0.0,0.0,0.0,0.0,0.0,0.0,0.0,0.0,0.0,0.0,0.0,0.0,0.0,0.0,0.0,0.0,0.0,0.0,0.0,0.0,0.0,0.0,0.0,0.0,0.0,-1.8818,-2.1758,-2.4023,-2.4619,-2.5757,-2.6459,-2.6647,-2.7275,-2.613,-2.2726,0.0,0.0,0.0,0.0,0.0,0.0,0.0,0.0,0.0,0.0,0.0,0.0,0.0,0.0,0.0,0.0,0.0,0.0,0.0,0.0,0.0,0.0,0.0,0.0,0.0,0.0,0.0,0.0,0.0,0.0,0.0,0.0,0.0,0.0,0.0,0.0,0.0,0.0,0.0,0.0,0.0,0.0,0.0,0.0,0.0,0.0,0.0,0.0,0.0,0.0,0.0,0.0,0.0,0.0,0.0,0.0,0.0,0.0,0.0,0.0,0.0,0.0,0.0,0.0,0.0,0.0,0.0,0.0,0.0,0.0,0.0,0.0,0.0,0.0,0.0,0.0,0.0,0.0,0.0,0.0,0.0,0.0,0.0,0.0,0.0,0.0,0.0,0.0,0.0,0.0,0.0,0.0,0.0,0.0,0.0,0.0,0.0,0.0,0.0,0.0,0.0,0.0,-1.9228,-2.1982,-2.418,-2.5039,-2.6133,-2.6941,-2.7369,-2.7136,-2.5875,-2.3282,0.0,0.0,0.0,0.0,0.0,0.0,0.0,0.0,0.0,0.0,0.0,0.0,0.0,0.0,0.0,0.0,0.0,0.0,0.0,0.0,0.0,0.0,0.0,0.0,0.0,0.0,0.0,0.0,0.0,0.0,0.0,0.0,0.0,0.0,0.0,0.0,0.0,0.0,0.0,0.0,0.0,0.0,0.0,0.0,0.0,0.0,0.0,0.0,0.0,0.0,0.0,0.0,0.0,0.0,0.0,0.0,0.0,0.0,0.0,0.0,-1.8065,0.0,0.0,0.0,0.0,0.0,0.0,0.0,0.0,0.0,0.0,0.0,0.0,0.0,0.0,0.0,0.0,0.0,0.0,0.0,0.0,0.0,0.0,0.0,0.0,0.0,0.0,0.0,0.0,0.0,0.0,0.0,0.0,0.0,0.0,0.0,0.0,0.0,0.0,0.0,0.0,0.0,-1.9629,-2.2412,-2.4619,-2.5498,-2.5779,-2.6001,-2.61,-2.6095,-2.4888,-2.1839,-2.0636,0.0,0.0,0.0,0.0,0.0,0.0,0.0,0.0,0.0,0.0,0.0,0.0,0.0,0.0,0.0,0.0,0.0,0.0,0.0,0.0,0.0,0.0,0.0,0.0,0.0,0.0,0.0,0.0,0.0,0.0,0.0,0.0,0.0,0.0,0.0,0.0,0.0,0.0,0.0,0.0,0.0,0.0,0.0,0.0,0.0,0.0,0.0,0.0,0.0,0.0,0.0,0.0,0.0,0.0,0.0,0.0,0.0,0.0,0.0,0.0,-2.0008,0.0,0.0,0.0,0.0,0.0,0.0,0.0,0.0,0.0,0.0,0.0,0.0,0.0,0.0,0.0,0.0,0.0,0.0,0.0,0.0,0.0,0.0,0.0,0.0,0.0,0.0,0.0,0.0,0.0,0.0,0.0,0.0,0.0,0.0,0.0,0.0,0.0,0.0,0.0,0.0,-2.0332,-2.2812,-2.4756,-2.5644,-2.5742,-2.5742,-2.5742,-2.557,-2.4516,-2.2266,-2.1048,0.0,0.0,0.0,0.0,0.0,0.0,0.0,0.0,0.0,0.0,0.0,0.0,0.0,0.0,0.0,0.0,0.0,0.0,0.0,0.0,0.0,0.0,0.0,0.0,0.0,0.0,0.0,0.0,0.0,0.0,0.0,0.0,0.0,0.0,0.0,0.0,0.0,0.0,0.0,0.0,0.0,0.0,0.0,0.0,0.0,0.0,0.0,0.0,0.0,0.0,0.0,0.0,0.0,-2.4957,-2.6054,-2.7444,-2.7529,-2.8025,-2.8724,-2.6003,-2.4434,-2.3681,-2.2555,0.0,0.0,0.0,0.0,0.0,0.0,0.0,0.0,0.0,0.0,0.0,0.0,0.0,0.0,0.0,0.0,0.0,0.0,0.0,0.0,0.0,0.0,0.0,0.0,-2.1592,-2.1641,0.0,0.0,0.0,0.0,0.0,0.0,0.0,0.0,0.0,0.0,0.0,0.0,-2.1074,-2.3213,-2.4834,-2.5654,-2.5742,-2.5742,-2.5742,-2.54,-2.4668,-2.3457,-2.1894,-2.0439,0.0,0.0,0.0,0.0,0.0,0.0,0.0,0.0,0.0,0.0,0.0,0.0,0.0,0.0,0.0,0.0,0.0,0.0,0.0,0.0,0.0,0.0,0.0,0.0,0.0,0.0,0.0,0.0,0.0,0.0,0.0,0.0,-1.3419,-1.3895,0.0,0.0,0.0,0.0,0.0,0.0,0.0,0.0,0.0,0.0,0.0,0.0,0.0,-2.3568,-2.4719,-2.6769,-2.8188,-2.8911,-3.0398,-3.153,-3.2243,-3.2634,-3.3183,-3.3745,-3.3295,0.0,-2.6011,-2.5871,0.0,0.0,0.0,0.0,0.0,0.0,0.0,0.0,0.0,0.0,0.0,0.0,0.0,0.0,0.0,0.0,0.0,0.0,0.0,0.0,0.0,0.0,-2.4385,-2.4385,-2.4238,-2.3975,0.0,-2.085,-1.8291,-1.7695,-1.6719,0.0,0.0,0.0,0.0,0.0,0.0,0.0,-2.1481,-2.3662,-2.5176,-2.5684,-2.5742,-2.5742,-2.5742,-2.5684,-2.5254,-2.4307,-2.335,-2.2236,-2.0947,-1.9219,0.0,0.0,0.0,0.0,0.0,0.0,0.0,0.0,0.0,0.0,0.0,0.0,0.0,0.0,0.0,0.0,0.0,0.0,0.0,0.0,0.0,0.0,0.0,0.0,0.0,0.0,0.0,0.0,0.0,-1.3518,-1.6398,-1.6883,-1.7781,-1.7815,0.0,0.0,0.0,0.0,0.0,0.0,0.0,0.0,0.0,-2.5091,-2.619,-2.7556,-2.9254,-3.0561,-3.1851,-3.3031,-3.3746,-3.455,-3.5391,-3.5642,-3.6044,-3.6546,-3.6245,-3.4574,-3.1879,-3.0376,-2.8651,-2.6966,0.0,0.0,0.0,0.0,-2.3061,-2.2908,-2.2835,-2.2402,0.0,-2.1992,0.0,0.0,0.0,0.0,0.0,0.0,0.0,0.0,0.0,0.0,-2.5127,-2.5381,-2.5303,-2.5156,-2.5156,-2.3437,-2.1475,0.0,-1.916,-1.8076,-1.6436,0.0,0.0,0.0,0.0,-2.0234,-2.2279,-2.4043,-2.5244,-2.5684,-2.5742,-2.5742,-2.5742,-2.5742,-2.5469,-2.4824,-2.4209,-2.3506,-2.2705,-2.1016,-1.96,0.0,0.0,0.0,0.0,0.0,0.0,0.0,0.0,0.0,0.0,0.0,0.0,0.0,0.0,0.0,0.0,0.0,0.0,0.0,0.0,0.0,0.0,0.0,0.0,0.0,0.0,0.0,0.0,-1.5963,-1.8891,-1.9475,-2.1069,-2.142,0.0,0.0,0.0,0.0,0.0,0.0,-2.49,-2.6083,-2.7595,-2.9528,-3.0256,-3.1537,-3.347,-3.3771,-3.4613,-3.5968,-3.5968,-3.6471,-3.74,-3.755,-3.7914,-3.8404,-3.7852,-3.7387,-3.6784,-3.3997,-3.1976,-3.0532,-2.9541,-2.8574,-2.7653,-2.6976,-2.6318,-2.5815,-2.5931,-2.5391,-2.4707,-2.4414,0.0,-2.3018,-2.1289,0.0,0.0,0.0,0.0,-2.3184,-2.456,-2.5244,-2.5654,-2.5986,-2.5986,-2.5908,-2.5908,-2.5205,-2.4082,0.0,-2.1514,-2.042,-1.8398,0.0,0.0,0.0,0.0,-2.1511,-2.3183,-2.4502,-2.5371,-2.5703,-2.5742,-2.5742,-2.5742,-2.5742,-2.5596,-2.5254,-2.4932,-2.456,-2.4131,-2.2783,-2.1533,-2.0439,0.0,0.0,0.0,0.0,0.0,0.0,0.0,0.0,0.0,0.0,0.0,0.0,0.0,0.0,0.0,0.0,0.0,0.0,0.0,0.0,0.0,0.0,0.0,0.0,0.0,0.0,0.0,0.0,0.0,-2.0726,-2.4674,0.0,0.0,0.0,0.0,-2.6349,-2.7092,-2.8305,-3.0024,-3.1199,-3.2378,-3.3571,-3.465,-3.5768,-3.6923,-3.6445,-3.6496,-3.7098,-3.7098,-3.74,-3.799,-3.853,-3.9094,-3.9572,-3.9032,-3.8768,-3.853,-3.5742,-3.3935,-3.2855,-3.224,-3.165,-3.1048,-3.0519,-2.948,-2.8377,-2.8232,-2.7059,-2.5869,-2.7051,-2.6592,-2.5478,-2.4941,-2.4189,0.0,0.0,-2.4863,-2.5664,-2.6162,-2.6602,-2.6924,-2.6943,-2.6641,-2.6357,-2.6357,-2.5654,-2.4883,0.0,-2.3262,-2.2246,-2.1719,0.0,-2.0239,-2.151,-2.1731,-2.2424,-2.4147,-2.5146,-2.5713,-2.5742,-2.5742,-2.5742,-2.5742,-2.5742,-2.5723,-2.5703,-2.5684,-2.5469,-2.5019,-2.4521,-2.3477,-2.1816,-2.0059,0.0,0.0,0.0,0.0,0.0,0.0,0.0,0.0,0.0,0.0,0.0,0.0,0.0,0.0,0.0,0.0,0.0,0.0,0.0,0.0,0.0,0.0,0.0,0.0,0.0,0.0,0.0,0.0,-2.4935,-2.8441,0.0,-2.8058,-2.8866,-2.9736,-3.0294,-3.1991,-3.3118,-3.3237,-3.473,-3.5556,-3.5546,-3.6207,-3.7136,-3.8253,-3.8078,-3.8253,-3.8793,-3.8793,-3.8906,-3.9107,-3.9308,-3.9509,-3.9659,-3.9107,-3.8868,-3.8768,-3.74,-3.6182,-3.514,-3.4575,-3.4022,-3.3421,-3.2738,-3.217,-3.1515,-3.0152,-2.9185,-2.8594,-2.79,-2.6982,-2.6123,-2.5967,-2.5508,-2.5185,-2.5889,-2.6318,-2.6719,-2.7432,-2.7529,-2.7432,-2.7432,-2.71,-2.6719,-2.6445,-2.6143,-2.5791,-2.5352,-2.4443,-2.3516,-2.2822,-2.2524,-2.238,-2.2259,-2.2969,-2.3794,-2.4756,-2.5361,-2.5742,-2.5742,-2.5742,-2.5742,-2.5742,-2.5742,-2.5615,-2.5322,-2.5303,-2.5107,-2.4668,-2.4238,-2.3594,-2.2715,-2.1279,-1.9171,0.0,0.0,0.0,0.0,0.0,0.0,0.0,0.0,0.0,0.0,0.0,0.0,0.0,0.0,0.0,0.0,0.0,0.0,0.0,0.0,0.0,0.0,0.0,0.0,0.0,0.0,-2.7151,-2.8125,-3.1952,-3.3908,-3.2436,-3.3366,-3.4228,-3.4701,-3.6425,-3.7139,-3.6192,-3.7736,-3.8095,-3.7006,-3.7638,-3.8391,-3.9145,-3.8956,-3.9057,-3.9421,-3.9421,-3.9421,-3.9421,-3.9609,-3.9697,-3.9672,-3.9308,-3.9145,-3.9107,-3.853,-3.7864,-3.7149,-3.6596,-3.6044,-3.5499,-3.4964,-3.439,-3.3499,-3.1116,-3.0016,-2.9462,-2.8275,-2.749,-2.7031,-2.7031,-2.6826,-2.6719,-2.7285,-2.7441,-2.7549,-2.7969,-2.7881,-2.7627,-2.748,-2.7226,-2.6943,-2.666,-2.6494,-2.6309,-2.6016,-2.5361,-2.4687,-2.4131,-2.4258,-2.4258,-2.3691,-2.4326,-2.4961,-2.5254,-2.5557,-2.5742,-2.5742,-2.5742,-2.5742,-2.5742,-2.5596,-2.5449,-2.5303,-2.5019,-2.4717,-2.4424,-2.4014,-2.3525,-2.2939,-2.123,-1.8902,-1.5934,0.0,0.0,0.0,0.0,0.0,0.0,0.0,0.0,0.0,0.0,0.0,0.0,0.0,0.0,0.0,0.0,0.0,0.0,0.0,0.0,0.0,0.0,0.0,-2.1113,-2.5584,-2.9121,-3.0077,-3.5077,-3.7755,-3.5855,-3.8018,-3.955,-3.9503,-4.0293,-4.0245,-3.9029,-4.0146,-4.0024,-3.8052,-3.912,-3.9697,-3.9697,-3.917,-3.8894,-3.8894,-3.8894,-3.8894,-3.8906,-3.9446,-3.9697,-3.9697,-3.9697,-3.9697,-3.9647,-3.912,-3.8894,-3.8831,-3.8241,-3.7676,-3.7211,-3.7211,-3.6075,-3.4028,-3.1359,-2.9533,-2.8408,-2.8398,-2.8291,-2.8291,-2.8291,-2.8291,-2.8291,-2.8291,-2.8291,-2.8203,-2.7793,-2.7685,-2.7578,-2.7158,-2.7051,-2.7051,-2.7041,-2.6699,-2.6406,-2.6387,-2.6035,-2.5742,-2.5742,-2.5742,-2.5742,-2.5742,-2.5742,0.0,-2.5742,-2.5742,-2.5742,-2.5742,-2.5742,-2.5742,-2.5742,-2.5342,-2.5264,-2.5674,-2.4873,-2.4394,-2.4375,-2.3975,-2.3369,-2.2464,-1.9988,-1.7215,-1.4215,0.0,0.0,0.0,0.0,0.0,0.0,0.0,0.0,0.0,0.0,0.0,0.0,0.0,0.0,0.0,0.0,0.0,0.0,0.0,0.0,0.0,-2.0419,-2.3329,-2.3676,-2.8446,-3.2434,-3.3888,-3.7907,-4.0382,-3.9821,-4.124,-4.2264,-4.2238,-4.3775,-4.3573,-4.1065,-4.2134,-4.1479,-3.8743,-3.932,-3.9697,-3.9697,-3.9546,-3.9471,-3.9471,-3.9471,-3.9471,-3.9471,-3.9622,-3.9697,-3.9697,-3.9697,-3.9697,-3.9685,-3.9534,-3.9471,-3.9371,-3.8391,-3.7914,-3.7789,-3.7789,-3.685,-3.542,-3.4214,-3.2344,-3.025,-2.992,-2.9102,-2.8291,-2.8291,-2.8291,-2.8291,-2.8291,-2.8291,-2.8262,-2.8144,-2.8125,-2.8096,-2.7969,-2.7939,-2.7861,-2.7549,-2.7148,-2.6758,-2.6445,-2.6035,-2.5742,-2.5742,-2.5742,-2.5742,-2.5742,-2.5742,0.0,-2.5742,-2.5742,-2.5742,-2.5742,-2.5742,-2.5742,-2.5742,-2.5625,-2.5332,-2.4814,-2.4268,-2.3818,-2.3506,-2.3086,-2.2438,-2.1678,-1.9472,-1.7368,0.0,0.0,0.0,0.0,0.0,0.0,0.0,0.0,0.0,0.0,0.0,0.0,0.0,0.0,0.0,0.0,0.0,0.0,0.0,0.0,0.0,0.0,-2.3062,-2.6093,-2.7616,-3.1513,-3.4858,-3.6851,-4.013,-4.2279,-4.2589,-4.328,-4.3748,-4.3748,-4.4536,-4.408,-4.1799,-4.2384,-4.1523,-3.8982,-3.9408,-3.9697,-3.9697,-3.9923,-3.9923,-3.9697,-3.9923,-3.9923,-3.9697,-3.9697,-3.9697,0.0,-3.9697,-3.9697,-3.9697,-3.9697,-3.9697,0.0,0.0,0.0,0.0,0.0,-3.7157,-3.5848,-3.4929,-3.3164,-3.122,-3.0028,-2.917,-2.8525,-2.834,-2.8291,-2.8291,-2.8291,-2.8291,-2.8291,-2.8291,-2.8291,-2.8291,-2.8291,-2.8291,-2.8223,-2.7978,-2.7588,-2.7158,-2.6728,-2.6309,0.0,-2.5762,-2.5742,-2.5742,-2.5742,-2.5742,-2.5742,-2.5742,-2.5742,-2.5742,-2.5742,-2.5742,-2.5742,-2.5742,-2.5566,0.0,0.0,0.0,-2.3516,-2.29,-2.2471,0.0,0.0,0.0,0.0,0.0,0.0,0.0,0.0,-1.3754,-1.3607,0.0,0.0,0.0,0.0,0.0,0.0,0.0,0.0,0.0,0.0,0.0,0.0,0.0,0.0,0.0,0.0,-2.517,-2.8463,-3.1938,-3.4448,-3.6716,-3.902,-4.1612,-4.3418,-4.408,-4.4273,-4.4236,-4.3983,-4.366,-4.2881,-4.1718,0.0,0.0,0.0,0.0,-3.9785,-3.9785,-4.0337,-4.0362,-3.9885,-4.0375,-4.035,-3.9885,-3.9885,-3.9848,-3.9785,-3.9785,-3.9747,-3.9697,-3.9697,-3.9697,-3.9697,-3.9697,-3.9396,-3.8906,-3.8379,-3.7454,-3.6176,-3.4646,0.0,0.0,-2.9868,-2.9064,-2.8848,-2.8476,-2.833,-2.8291,-2.8291,-2.8291,-2.8291,-2.8291,-2.8291,-2.8291,-2.8291,-2.8291,-2.8291,-2.8291,-2.7959,-2.7539,-2.71,-2.668,-2.625,-2.581,-2.5742,-2.5742,-2.5742,-2.5742,-2.5742,-2.5742,-2.5742,-2.5742,-2.5742,0.0,0.0,-2.5742,-2.5371,-2.5293,-2.5644,-2.4531,-2.3496,-2.2695,-2.2344,-2.1835,-2.1153,-2.024,-1.9394,-1.8712,-1.7556,-1.7116,-1.7095,-1.4744,-1.4349,0.0,0.0,0.0,0.0,0.0,0.0,0.0,0.0,0.0,0.0,0.0,0.0,0.0,0.0,0.0,-2.3657,-2.742,-3.0748,-3.3744,-3.6135,-3.8158,-3.9702,-4.1582,-4.276,-4.296,-4.3834,-4.3789,-4.2275,-4.2998,-4.2956,-4.1652,-4.1571,-4.098,-3.9637,-4.0074,-4.0362,-4.0362,-4.0902,-4.1128,-4.1015,0.0,0.0,-4.1015,-4.1015,-4.0777,-4.0362,-4.0362,-4.0111,-3.9697,-3.9697,-3.9697,-3.9697,-3.9697,-3.9634,-3.9521,-3.9408,-3.9256,-3.8745,-3.6796,-3.5256,-3.368,-3.1703,-3.0047,-2.8906,-2.8818,-2.8564,0.0,-2.8291,-2.8291,-2.8291,-2.8291,-2.8291,-2.8291,-2.8291,-2.8291,-2.8291,-2.8291,-2.7959,-2.7539,-2.71,-2.668,-2.625,-2.581,-2.5742,-2.5742,-2.5742,-2.5742,-2.5742,-2.5742,-2.5742,-2.5742,-2.5742,-2.5742,-2.5742,-2.5742,-2.5664,-2.5488,-2.5215,-2.4629,-2.4062,-2.3564,-2.3789,-2.3563,-2.2826,-2.2622,-2.217,-2.1362,-1.9913,-1.9369,-1.9501,-1.741,-1.654,0.0,0.0,0.0,0.0,0.0,0.0,0.0,0.0,0.0,0.0,0.0,-1.0994,-1.4462,0.0,-1.9971,-2.5137,-2.8462,-3.127,-3.3763,-3.6163,-3.8249,-3.9779,-4.1487,-4.2467,-4.2157,-4.2975,-4.2999,-4.175,-4.1896,-4.1957,-4.1591,-4.1032,-4.0492,-4.0099,-4.0375,-4.0651,-4.0927,-4.148,-4.1605,-4.1342,-4.1618,-4.1605,-4.1342,-4.1342,-4.1191,-4.0915,-4.0639,-4.0362,-4.0086,-3.981,-3.9697,-3.9697,-3.9697,-3.9697,-3.9697,-3.9697,-3.9245,-3.8323,-3.6637,-3.5027,-3.3526,-3.1532,-3.0266,-2.9521,-2.9307,-2.8945,-2.8603,-2.8603,-2.8457,-2.8291,-2.8291,-2.8291,-2.8291,-2.8291,-2.8291,-2.8291,-2.8291,-2.8125,-2.7851,-2.7422,-2.7168,-2.6826,-2.6172,-2.6064,-2.5986,-2.5771,-2.5742,-2.5742,-2.5742,-2.5742,-2.5742,-2.5742,-2.5742,-2.5742,-2.5742,-2.5742,-2.5547,-2.5098,-2.4863,-2.4648,-2.4443,-2.4629,-2.4764,-2.4815,-2.4205,-2.337,-2.242,-2.095,-2.0079,-1.9545,-1.8489,-1.7963,0.0,0.0,0.0,0.0,0.0,0.0,0.0,-0.8135,-0.8913,-1.0481,-1.1449,-1.308,-1.6862,-1.8577,-2.0928,-2.5943,-2.9016,-3.1354,-3.3522,-3.5844,-3.7914,-3.9477,-4.118,-4.2041,-4.1562,-4.2054,-4.1963,-4.1191,-4.0671,-4.0637,-4.1193,-4.0262,-3.9898,-4.0337,-4.0563,-4.089,-4.1329,-4.1995,-4.2095,-4.1668,-4.2108,-4.2082,-4.1656,-4.1656,-4.1593,-4.1467,-4.0802,-4.0463,-4.0325,-3.9873,-3.9697,-3.9697,-3.9697,-3.9478,-3.9362,-3.9581,-3.8804,-3.7252,-3.5836,-3.4292,-3.2788,-3.0888,-3.0273,-3.0137,-2.9795,-2.9326,-2.8916,-2.8916,-2.8613,-2.8291,-2.8291,-2.8291,-2.8291,-2.8291,-2.8291,-2.8291,-2.8291,-2.8291,-2.8164,-2.7744,-2.7666,-2.7422,-2.6641,-2.6435,-2.624,-2.5801,-2.5742,-2.5742,-2.5742,-2.5742,-2.5742,-2.5742,-2.5742,-2.5742,-2.5742,-2.5742,-2.5586,-2.5215,-2.5195,-2.5195,-2.5195,-2.5273,-2.5703,-2.6494,-2.5515,-2.4382,-2.3384,-2.1984,-2.0612,-1.9446,-1.9119,-1.8885,-0.4205,-0.4163,-0.449,-0.593,-0.6497,-0.7207,0.0,-1.0469,-1.1468,-1.221,-1.3529,-1.5152,-1.6967,-1.9358,-2.2291,-2.5825,-2.9337,-3.2396,-3.4662,-3.6727,-3.8214,-3.8894,-4.0135,-4.0997,-4.093,-4.1351,-4.0979,-3.9382,-3.9576,-3.9815,-3.9878,-3.9788,-3.9722,-3.9785,-4.0739,-4.1279,-4.1342,-4.2371,-4.2848,-4.2798,-4.2861,-4.2848,-4.2798,-4.2798,-4.2522,-4.2007,-4.0965,-4.0237,-3.9785,-3.9722,-3.9697,-3.9697,-3.9697,-3.8908,-3.7902,-3.9245,-3.8804,-3.7252,-3.5836,-3.4292,-3.2851,-3.1265,-3.0537,-3.0185,-3.0137,-2.956,-2.8916,-2.8916,-2.8613,-2.8291,-2.8291,-2.8291,-2.8291,-2.8291,-2.8291,-2.8291,-2.8291,-2.8291,-2.8164,-2.7744,-2.7666,-2.751,-2.7031,-2.6631,-2.624,-2.5801,-2.5742,-2.5742,-2.5742,-2.5742,-2.5742,-2.5742,-2.5742,-2.5742,-2.5742,-2.5742,-2.5713,-2.5664,-2.5664,-2.5664,-2.5664,-2.6035,-2.6465,-2.6934,-2.7211,-2.6844,-2.5693,-2.4141,-2.2719,-2.1306,-1.9984,-1.9299,-0.4647,-0.5128,-0.5971,-0.7164,-0.7992,-0.9036,-1.1097,-1.198,-1.2727,-1.3963,-1.485,-1.6075,-1.7969,-2.0216,-2.2551,0.0,-2.8614,-3.1578,-3.3696,-3.5586,-3.7155,-3.8229,-3.913,-3.9719,-3.9719,-4.022,-4.0032,-3.9007,-3.9383,-3.9697,-3.9697,-3.9697,-3.9986,-4.0626,-4.1103,-4.1643,-4.2283,-4.2748,-4.2974,-4.2974,-4.2974,-4.2974,-4.2974,-4.2974,-4.2509,-4.1656,-4.1191,-4.0501,-3.9697,-3.9697,-3.9233,-3.8465,-3.8465,-3.7477,-3.6379,-3.7914,-3.6918,-3.4836,-3.4181,-3.3088,-3.1777,-3.1112,-3.0762,-3.0605,-3.0605,-3.0156,-2.9668,-2.9668,-2.918,-2.8662,-2.8662,-2.8476,-2.8291,-2.8291,-2.8291,-2.8291,-2.8291,-2.8291,-2.8242,-2.8066,-2.8027,-2.79,-2.7471,-2.7246,-2.6982,-2.6543,-2.6055,-2.5742,-2.5742,-2.5742,-2.5742,-2.5742,-2.5742,-2.5742,-2.5742,-2.5742,-2.5742,-2.5742,-2.5742,-2.585,-2.6103,-2.6299,-2.6592,-2.7012,-2.7441,-2.7084,-2.5694,-2.4378,-2.3039,-2.1586,-2.0033,-1.9366,-0.5207,-0.6063,-0.7225,-0.8548,-0.969,-1.0925,-1.2857,-1.3391,-1.3919,-1.522,-1.5723,-1.6497,-1.8233,-2.0015,-2.2042,-2.4095,-2.7429,-3.0537,-3.2911,-3.4657,-3.6338,-3.7804,-3.8379,-3.8693,-3.8856,-3.9371,-3.9534,-3.9132,-3.9471,-3.9697,-3.9697,-3.9697,-4.0124,-4.1078,-4.1254,-4.1794,-4.2735,-4.2898,-4.2974,-4.2974,-4.2974,-4.2974,-4.2974,-4.2974,-4.2459,-4.1555,-4.1404,-4.0802,-3.991,-3.976,-3.9025,-3.8019,-3.769,-3.6811,-3.5945,-3.6151,-3.4936,-3.3077,-3.3077,-3.2092,-3.0889,-3.0889,-3.0889,-3.0889,-3.0889,-3.0566,-3.0195,-3.0195,-2.958,-2.8916,-2.8916,-2.8603,-2.8291,-2.8291,-2.8291,-2.8291,-2.8291,-2.8291,-2.8291,-2.8291,-2.8291,-2.8193,-2.7891,-2.7744,-2.7559,-2.7236,-2.6562,-2.6045,-2.5937,-2.581,-2.5742,-2.5742,-2.5742,-2.5742,-2.5742,-2.5742,-2.5742,-2.5742,-2.5742,-2.5879,-2.6191,-2.6435,-2.6699,-2.7012,-2.7559,-2.716,-2.5613,-2.4801,-2.3487,-2.1586,-2.0479,-1.9815,-0.6073,-0.6782,-0.7822,-1.013,-1.1479,-1.2611,-1.4155,-1.4855,-1.5412,-1.5763,-1.6096,-1.635,-1.6671,-1.8504,-2.0592,-2.2625,-2.5973,-2.9513,-3.2694,-3.4657,-3.6338,-3.7804,-3.8027,-3.8253,0.0,-3.9371,-3.9685,-3.9672,-3.9685,-3.9697,-3.9697,-3.9697,-3.9961,-4.0526,-4.1065,-4.1605,-4.217,-4.271,-4.2974,-4.2974,-4.2974,-4.2974,-4.2974,-4.2974,-4.2672,-4.2095,-4.1568,-4.1015,-4.045,-3.991,-3.9697,-3.9465,-3.8019,-3.7465,-3.7133,-3.4281,-3.3191,-3.3077,-3.3077,-3.2092,-3.0889,-3.0889,-3.0889,-3.0889,-3.0889,-3.0566,-3.0195,-3.0195,-2.958,-2.8916,-2.8916,-2.8603,-2.8291,-2.8291,-2.8291,-2.8291,-2.8291,-2.8291,-2.8291,-2.8291,-2.8291,-2.8291,-2.8271,-2.7939,-2.7666,-2.7646,-2.7266,-2.6826,-2.6426,-2.5996,-2.5742,-2.5742,-2.5742,-2.5742,-2.5742,-2.5742,-2.5742,-2.5742,-2.5742,-2.5742,-2.5752,-2.6553,-2.7002,-2.7012,-2.7842,-2.7599,-2.6027,-2.6036,-2.448,-2.1586,-2.1586,-2.0816,-0.6805,-0.8281,-0.9963,-1.1447,-1.2769,-1.3998,-1.4933,-1.5399,-1.5947,-1.713,-1.7239,-1.7241,-1.7825,-1.9383,-2.1058,-2.2457,-2.5335,-2.8829,-3.3149,-3.44,-3.5654,-3.773,-3.8664,0.0,0.0,0.0,0.0,-4.0906,-4.0173,-4.0083,-4.0932,-4.0173,-4.0111,-4.1028,-4.1241,-4.1781,-4.2685,-4.2886,-4.2974,-4.2974,-4.2974,-4.2974,-4.2974,-4.2974,-4.2484,-4.1605,-4.1417,-4.0814,-3.9961,-3.9772,-3.9129,-3.8243,-3.769,-3.6918,-3.5945,-3.4958,-3.3968,-3.2964,-3.1988,-3.1334,-3.0889,-3.0889,-3.0889,-3.0889,-3.0889,-3.0781,-3.0654,-3.0654,-3.0225,-2.9707,-2.9424,-2.9033,-2.8643,-2.8359,-2.8291,-2.8291,-2.8291,-2.8291,-2.8291,-2.8291,-2.8291,-2.8291,-2.8291,-2.8174,-2.7988,-2.7705,-2.706,-2.6543,-2.6406,-2.6006,-2.5742,-2.5742,-2.5742,-2.5742,-2.5742,-2.5742,-2.5742,-2.5742,-2.6006,-2.6172,-2.6172,-2.6719,-2.7012,-2.7012,-2.7578,-2.765,-2.7208,-2.647,-2.5041,-2.3039,-2.2032,-2.0809,-0.775,-0.9542,-1.1455,-1.2677,-1.3819,-1.491,-1.5866,-1.6265,-1.6814,-1.8076,-1.7796,-1.7371,-1.7836,-1.8813,-2.0037,-2.2001,-2.4527,-2.7949,-3.2989,-3.3966,-3.5294,-3.8273,-3.9216,-3.9893,0.0,0.0,0.0,-4.2226,-4.1505,-4.1406,-4.2266,-4.1032,-4.0786,-4.1706,-4.143,-4.1781,-4.2672,-4.2873,-4.2974,-4.2974,-4.2974,-4.2974,-4.2974,-4.2974,-4.2484,-4.1618,-4.1417,-4.0827,-3.9973,-3.9772,-3.9129,-3.8243,-3.769,-3.7252,-3.6715,-3.5738,-3.5068,-3.4504,-3.2985,-3.1777,-3.1005,-3.1546,-3.1334,-3.0889,-3.0889,-3.0889,-3.0889,-3.0889,-3.0557,-3.0137,-2.9863,-2.9355,-2.8848,-2.8584,-2.8398,-2.8291,-2.8291,-2.8291,-2.8291,-2.8291,-2.8291,-2.8291,-2.8291,-2.8291,-2.8203,-2.793,-2.7295,-2.6787,-2.6631,-2.6367,-2.6191,-2.6191,-2.6191,-2.6191,-2.6191,-2.6191,-2.6191,-2.6191,-2.6455,-2.6611,-2.6611,-2.7021,-2.7246,-2.7246,-2.7676,-2.7891,-2.7891,-2.7261,-2.5827,-2.3822,-2.2814,-2.1318,-0.8958,-1.0671,-1.2385,-1.3795,-1.4565,-1.538,-1.6885,-1.7435,-1.785,-1.8674,-1.7785,-1.6934,-1.7018,-1.6846,-1.7954,-2.1453,-2.3692,-2.6929,-3.2491,-3.3529,-3.5336,-3.9468,-3.9575,-4.0318,-4.2574,-4.2884,0.0,-4.3651,0.0,-4.3504,-4.3598,-4.2363,-4.1868,-4.2347,-4.1639,-4.1605,-4.2145,-4.2698,-4.2974,-4.2974,-4.2974,-4.2974,-4.2974,-4.2974,-4.266,-4.2082,-4.1568,-4.1015,-4.0438,-3.991,-3.9697,-3.9581,-3.8137,-3.8465,-3.9362,-3.6607,-3.6379,-3.7358,-3.5945,-3.3642,-3.1325,-3.2633,-3.2207,-3.1005,-3.0889,-3.0889,-3.0889,-3.0889,-3.0576,-3.0225,-3.0176,-2.956,-2.8945,-2.8896,-2.8584,-2.8291,-2.8291,-2.8291,-2.8291,-2.8291,-2.8291,-2.8291,-2.8291,-2.8291,-2.8291,-2.8291,-2.7949,-2.7539,-2.7109,-2.7021,-2.7012,-2.7012,-2.7012,-2.7012,-2.7012,-2.7012,-2.7012,-2.7012,-2.7041,-2.7051,-2.7051,-2.7461,-2.7695,-2.7695,-2.8086,-2.8291,-2.8291,-2.8291,-2.6834,-2.3933,-2.3958,-2.2466,-0.9531,-1.1632,-1.3711,-1.4565,-1.5066,-1.557,-1.6752,-1.7135,-1.7592,-1.8997,-1.8672,-1.7961,-1.7066,-1.8054,-1.9449,-2.0823,-2.3256,-2.7026,-3.3016,-3.4878,-3.6904,-4.0179,-4.2035,-4.3367,-4.4053,-4.4923,-4.5654,0.0,-4.4549,-4.3882,-4.4826,-4.2834,-4.1868,-4.2347,-4.1639,-4.1605,-4.2145,-4.2698,-4.2974,-4.2974,-4.2974,-4.2974,-4.2974,-4.2974,-4.2459,-4.1543,-4.1404,-4.0802,-3.9885,-3.9747,-3.9697,-3.9697,-3.9245,-3.9362,-3.9581,-3.8816,-3.8137,-3.7571,-3.836,-3.6607,-3.408,-3.3304,-3.2861,-3.2311,-3.1218,-3.0889,-3.0889,-3.0889,-3.0801,-3.0566,-2.9902,-2.957,-2.9238,-2.8603,-2.8369,-2.8291,-2.8291,-2.8291,-2.8291,-2.8291,-2.8291,-2.8291,-2.8291,-2.8291,-2.8291,-2.8291,-2.8203,-2.7978,-2.7559,-2.7217,-2.7012,-2.7012,-2.7012,-2.7012,-2.7012,-2.7012,-2.7012,-2.7012,-2.7324,-2.75,-2.75,-2.791,-2.8135,-2.8135,-2.8232,-2.8291,-2.8291,-2.8291,-2.7394,-2.5489,-2.5798,-2.4389,-1.0128,-1.2244,-1.4448,-1.5048,-1.5542,-1.6123,-1.705,-1.7683,-1.8225,-1.8908,-1.8518,-1.7783,-1.6855,-1.7925,-1.9371,-2.0606,-2.335,-2.7317,-3.2931,-3.5119,-3.7602,-4.1469,-4.3512,-4.4849,-4.5698,-4.6382,-4.6905,-4.7279,-4.5973,-4.5494,-4.6166,-4.4349,-4.3177,-4.2847,-4.2397,-4.222,-4.2509,-4.2823,-4.2974,-4.2974,-4.2974,-4.2974,-4.2974,-4.2974,-4.2371,-4.1342,0.0,-4.0714,-3.9697,-3.9697,-3.9697,-3.9697,-3.9697,-3.9697,-3.9697,-3.9697,-3.9141,-3.857,-3.9362,-3.8594,-3.6942,-3.5497,-3.4181,-3.2964,-3.2092,-3.1441,-3.0889,-3.0889,-3.0889,-3.0732,-3.0029,-2.9707,-2.9404,-2.873,-2.8428,-2.8291,-2.8291,-2.8291,-2.8291,-2.8291,-2.8291,-2.8291,-2.8291,-2.8291,-2.8291,-2.8291,-2.8291,-2.8203,-2.7969,-2.7725,-2.7578,-2.7578,-2.7578,-2.7578,-2.7578,-2.7578,-2.7578,-2.7578,-2.7803,-2.7939,-2.7939,-2.8164,-2.8291,-2.8291,-2.8291,-2.8291,-2.8291,-2.8291,-2.7606,-2.6325,-2.655,-2.5577,-1.0611,-1.2693,-1.4766,-1.5292,-1.5903,-1.6591,-1.7301,-1.8302,-1.8942,-1.8497,-1.7774,-1.7044,-1.6378,-1.7189,-1.865,-2.0734,-2.3727,-2.7488,-3.269,-3.4976,-3.7927,-4.2807,-4.43,-4.5552,-4.7163,-4.7309,-4.7309,-4.7309,-4.7309,-4.7309,-4.7309,-4.5973,-4.4527,-4.3259,-4.2995,-4.2964,-4.2974,-4.2974,-4.2974,-4.2974,-4.2974,-4.2936,-4.2873,-4.2873,-4.2271,-4.1229,-4.1229,0.0,-3.9697,-3.9697,-3.9697,-3.9697,-3.9697,-3.9697,-3.9697,-3.9697,-3.9697,-3.9697,-3.9697,-3.9697,-3.9478,-3.8019,-3.5606,-3.3417,-3.3191,-3.2052,-3.081,-3.0869,-3.085,-3.0693,-3.0234,-2.9844,-2.9443,-2.8955,-2.8555,-2.8291,-2.8291,-2.8291,-2.8291,-2.8291,-2.8291,-2.8291,-2.8291,-2.8291,-2.8291,-2.8291,-2.8291,-2.8291,-2.8291,-2.8291,-2.8291,-2.8291,-2.8291,-2.8291,-2.8291,-2.8291,-2.8291,-2.8291,-2.8291,-2.8291,-2.8291,-2.8291,-2.8291,-2.8291,-2.8291,-2.8291,-2.8291,-2.835,-2.7895,-2.7002,-2.7112,-2.6716,-1.0776,-1.2963,-1.5292,-1.5399,-1.5471,-1.5825,-1.6793,-1.7012,-1.7136,-1.7514,-1.7478,-1.7042,-1.5844,-1.722,-1.9277,-2.1838,-2.4125,-2.764,-3.341,-3.6671,-3.9482,-4.2485,-4.5179,-4.6986,-4.7294,-4.7309,-4.7309,0.0,-4.7309,-4.7309,-4.7309,-4.5115,-4.3185,-4.1719,-4.1631,-4.2074,-4.2974,-4.2974,-4.2974,-4.2974,-4.2974,-4.2735,-4.2296,-4.2296,-4.1706,-4.0664,-4.0664,0.0,-3.9697,-3.9697,-3.9697,-3.9697,-3.9697,-3.9697,-3.9697,-3.9697,-3.9697,-3.9697,-3.9697,-3.9697,-3.9478,-3.8019,-3.6379,-3.4736,-3.3519,-3.1818,-3.04,-3.0781,-3.0615,-3.0225,-2.9795,-2.9629,-2.9375,-2.8584,-2.834,-2.8291,-2.8291,-2.8291,-2.8291,-2.8291,-2.8291,-2.8291,-2.8291,-2.8291,-2.8291,-2.8291,-2.8291,-2.8291,-2.8291,-2.8291,-2.8291,-2.8291,-2.8291,-2.8291,-2.8291,-2.8291,-2.8291,-2.8291,-2.8291,-2.8291,-2.8291,-2.8291,-2.8291,-2.8291,-2.8291,-2.8291,-2.8291,-2.8643,-2.8739,-2.8487,-2.9292,-2.8763,-1.1071,-1.3222,-1.5406,-1.5615,-1.5807,-1.6075,-1.6166,-1.6372,-1.6464,-1.6373,-1.6656,-1.6759,-1.6156,-1.7938,-2.0128,-2.1914,-2.4009,-2.7289,-3.2487,-3.5462,-3.8516,-4.2265,-4.4834,-4.655,-4.7207,-4.7309,-4.7309,-4.7309,-4.6726,-4.6344,-4.6344,-4.3882,-4.2272,-4.1866,-4.1195,-4.1442,-4.2534,-4.2271,-4.2271,-4.2547,-4.2258,-4.1982,-4.1731,-4.1731,-4.1291,-4.0513,-4.0513,0.0,-3.9697,-3.9697,-3.9697,-3.9697,-3.9697,-3.9697,-3.9697,-3.9697,-3.9697,-3.9697,-3.9697,-3.9697,-3.9531,-3.8588,-3.7369,-3.6213,-3.5301,-3.3308,-3.1288,-3.1288,-3.0585,-2.9775,-2.9346,-2.9238,-2.9072,-2.8447,-2.8291,-2.8291,-2.8291,-2.8291,-2.8291,-2.8291,-2.8291,-2.8291,-2.8291,-2.8291,-2.8291,-2.8291,-2.8291,-2.8291,-2.8291,-2.8291,-2.8291,-2.8291,-2.8291,-2.8291,-2.8291,-2.8291,-2.8291,-2.8291,-2.8291,-2.8291,-2.8291,-2.8291,-2.8291,-2.8291,-2.8291,-2.8291,-2.8291,-2.8711,-2.9033,-2.9277,-2.9902,-2.9488,-1.1397,-1.3454,-1.5514,-1.573,-1.6141,-1.6327,-1.5693,-1.5978,-1.6166,-1.5713,-1.6126,-1.6623,-1.6825,-1.8589,-2.0459,-2.1981,-2.3936,-2.6874,-3.1356,-3.4424,-3.778,-4.1838,-4.4376,-4.6166,-4.7207,-4.7309,-4.7309,-4.7309,-4.5869,-4.4826,-4.4642,-4.2641,-4.1668,-4.1954,-4.0999,-4.099,-4.1969,-4.1555,-4.1555,-4.1969,-4.1543,-4.1279,-4.1166,-4.1166,-4.0865,-4.0337,-4.0337,0.0,0.0,-3.9697,-3.9697,-3.9697,-3.9697,-3.9697,-3.9697,-3.9697,-3.9697,-3.9672,-3.9559,-3.9521,-3.9433,-3.8868,-3.8074,-3.7203,-3.668,-3.4622,-3.2455,-3.2081,-3.0987,-2.9778,-2.9431,-2.9134,-2.8809,-2.8398,-2.8291,-2.8291,-2.8291,-2.8291,-2.8291,-2.8291,-2.8291,-2.8291,-2.8291,-2.8291,-2.8291,-2.8291,-2.8291,-2.8291,-2.8291,-2.8291,-2.8291,-2.8291,-2.8291,-2.8291,-2.8291,-2.8291,-2.8291,-2.8291,-2.8291,-2.8291,-2.8291,-2.8291,-2.8291,-2.8291,-2.8291,-2.834,-2.8428,-2.8857,-2.9277,-2.9717,-3.0146,-2.9813,-1.1425,-1.3596,-1.573,-1.5825,-1.5882,-1.5881,-1.5639,-1.5834,-1.609,-1.6335,-1.6579,-1.7025,-1.7978,-1.8347,0.0,0.0,0.0,-2.6673,-3.0891,-3.5831,-3.9543,-4.1035,-4.4676,-4.7207,-4.7309,-4.7309,-4.7309,-4.7309,-4.5024,-4.3218,-4.1985,-4.169,-4.1292,-4.0698,-4.0513,-4.0802,-4.1417,-4.1367,-4.1367,-4.1417,-4.1367,-4.1078,-4.0588,-4.0588,-4.0287,-3.9772,-3.9772,0.0,0.0,-3.9697,-3.9697,-3.9697,-3.9697,-3.9697,-3.9697,-3.9697,-3.9697,-3.9622,-3.912,-3.8944,-3.8856,-3.8278,-3.7498,-3.6656,-3.6042,-3.4509,-3.2982,-3.3371,-3.2232,-3.086,-3.0818,-2.9863,-2.8809,-2.8398,-2.8291,-2.8291,-2.8291,-2.8291,-2.8291,-2.8291,-2.8291,-2.8291,-2.8291,-2.8291,-2.8291,-2.8291,-2.8291,-2.8291,-2.8291,-2.8291,-2.8291,-2.8291,-2.8291,-2.8291,-2.8291,-2.8291,-2.8291,-2.8291,-2.8291,-2.8291,-2.8291,-2.8291,-2.8291,-2.8291,-2.8291,-2.8476,-2.8867,-2.9297,-2.9726,-3.0156,-3.0615,-3.0733,-1.2226,-1.4019,-1.6015,-1.6763,-1.64,-1.6164,-1.7208,-1.6734,-1.6348,-1.7038,-1.7413,-1.7804,-1.8406,-1.9187,0.0,0.0,0.0,0.0,-2.8486,-3.2146,-3.5426,-3.8038,-4.1895,-4.4501,-4.5001,-4.5689,-4.5494,-4.3975,-4.293,-4.1789,-4.0554,-4.0453,-4.0274,-4.0011,-4.0023,-4.0287,-4.084,-4.0513,-4.0513,-4.084,-4.0513,-4.0237,-4.0023,-4.0023,-3.9898,-3.9697,-3.9697,0.0,0.0,-3.9697,-3.9697,-3.9697,-3.9697,-3.9697,-3.9697,-3.9697,-3.9484,-3.917,-3.8944,-3.8642,-3.8266,-3.7701,-3.7245,-3.696,-3.6751,-3.5601,-3.4284,-3.409,-3.2994,-3.1815,-3.1815,-3.0789,-2.9515,-2.8534,-2.8291,-2.8291,-2.8291,-2.8291,-2.8291,-2.8291,-2.8291,-2.8291,-2.8291,-2.8291,-2.8291,-2.8291,-2.8291,-2.8291,-2.8291,-2.8291,-2.8291,-2.8291,-2.8291,-2.8291,-2.8291,-2.8291,-2.8291,-2.8291,-2.8291,-2.8291,-2.8291,-2.8291,-2.8408,-2.8662,-2.8672,-2.8887,-2.9307,-2.9736,-3.0029,-3.0205,-3.0674,-3.0392,-1.2525,-1.4443,-1.6406,-1.7139,-1.7208,-1.7367,-1.8221,-1.775,-1.7259,-1.7834,-1.8154,-1.8491,-1.8948,-1.9955,-2.1087,0.0,0.0,-2.4391,-2.7214,-2.9894,-3.2848,-3.6179,-3.9466,-4.195,-4.309,-4.421,-4.3975,-4.1789,-4.1985,-4.1406,-3.9788,-4.0083,-4.007,-3.9697,-3.9697,-3.9885,-4.0275,-3.9885,-3.9885,-4.0275,-3.9885,-3.9697,-3.9697,-3.9697,-3.9697,-3.9697,-3.9697,0.0,0.0,-3.9697,-3.9697,-3.9697,-3.9697,-3.9697,-3.9672,-3.9509,-3.9207,-3.8818,-3.8492,-3.8103,-3.7663,-3.7123,-3.6935,-3.6935,-3.6935,-3.6319,-3.5526,-3.5078,-3.3958,-3.2844,-3.2443,-3.1327,-3.0016,-2.9102,-2.8601,-2.8291,-2.8291,-2.8291,-2.8291,-2.8291,-2.8291,-2.8291,-2.8291,-2.8291,-2.8291,-2.8291,-2.8291,-2.8291,-2.8291,-2.8291,-2.8291,-2.8291,-2.8291,-2.8291,-2.8291,-2.8291,-2.8291,-2.8291,-2.8291,-2.8291,-2.8291,-2.8291,-2.8496,-2.8916,-2.8916,-2.9199,-2.9756,-3.0049,-3.0264,-3.041,-3.0742,-3.002,-1.2122,-1.4649,-1.7086,-1.6684,-1.8311,-1.9631,-1.8237,-1.8648,-1.9246,-1.8768,-1.8851,-1.9133,-1.971,-2.0359,-2.1191,0.0,0.0,0.0,-2.7996,-3.0745,-3.3468,-3.6124,-3.8226,-4.0266,-4.2266,-4.3069,-4.3026,-4.169,-4.2738,0.0,-3.989,-4.0932,-4.1032,-3.9685,-3.9697,-3.9697,-3.9697,-3.9697,-3.9697,-3.9697,-3.9697,-3.9697,-3.9697,-3.9697,-3.9697,-3.9697,0.0,0.0,0.0,-3.9697,-3.9697,-3.9697,-3.9697,-3.9697,-3.9634,-3.9082,-3.8881,-3.8705,-3.7588,-3.7199,-3.7098,-3.6546,-3.637,-3.637,-3.637,-3.637,-3.637,-3.6358,-3.5367,-3.408,-3.2644,-3.1327,-3.0317,-3.0317,-2.9303,-2.8291,-2.8291,-2.8291,-2.8291,-2.8291,-2.8291,-2.8291,-2.8291,-2.8291,-2.8291,-2.8291,-2.8291,-2.8291,-2.8291,-2.8291,-2.8291,-2.8291,-2.8291,-2.8291,-2.8291,-2.8291,-2.8291,-2.8291,-2.8291,-2.8291,-2.8291,-2.8291,-2.8496,-2.8916,-2.8916,-2.9336,-3.0185,-3.0195,-3.043,-3.0889,-3.0889,-3.002,-1.2851,-1.4721,-1.6667,-1.7665,-1.876,-1.9634,-2.0273,-2.0535,-2.0623,-2.0751,-2.078,-2.0919,-2.1059,-2.128,-2.2092,-2.4231,0.0,0.0,0.0,-3.0348,-3.2388,-3.3401,-3.6767,-3.9751,0.0,0.0,-4.0743,-4.0364,-4.0642,-4.0554,-3.9685,-4.007,-4.007,-3.9697,-3.9697,-3.9697,-3.9697,-3.9697,-3.9697,-3.9697,-3.9697,-3.9697,-3.9697,-3.9697,-3.9697,0.0,0.0,0.0,0.0,-3.9283,-3.9358,-3.9622,-3.8843,-3.8781,-3.9069,-3.8492,-3.804,-3.7663,-3.7312,-3.6935,-3.6596,-3.642,-3.6358,-3.6358,-3.6358,-3.6358,-3.6358,-3.6358,-3.6061,-3.5259,-3.2932,-3.2028,-3.1224,-2.9408,-2.8591,-2.8291,-2.8291,-2.8291,-2.8291,-2.8291,-2.8291,-2.8291,-2.8291,-2.8291,-2.8291,-2.8291,-2.8291,-2.8291,-2.8291,-2.8291,-2.8291,-2.8291,-2.8291,-2.8291,-2.8291,-2.8291,-2.8291,-2.8291,-2.8291,-2.8291,-2.8291,-2.8291,-2.8633,-2.9346,-2.9365,-2.9795,-3.0674,-3.0674,-3.0742,-3.0889,-2.9776,-2.8298,-1.397,-1.5705,-1.7501,-1.8672,-1.9672,-2.0655,-2.1489,-2.1737,-2.1695,-2.1698,-2.1697,-2.1697,-2.1697,-2.1697,-2.2374,-2.446,0.0,0.0,0.0,-2.9376,-3.1129,-3.2647,-3.6202,0.0,0.0,-3.9918,-3.9697,-3.9697,-4.0173,-4.0173,-3.9697,-4.0173,-4.0173,-3.9697,-3.9697,-3.9697,-3.9697,-3.9697,-3.9697,-3.9697,-3.9697,-3.9697,-3.9697,-3.9697,-3.9697,0.0,0.0,0.0,0.0,-3.9007,-3.8944,-3.8981,-3.8278,-3.8228,-3.8479,-3.7902,-3.7475,-3.7149,-3.6948,-3.6646,-3.6358,-3.6358,-3.6358,-3.6358,-3.6358,-3.6358,-3.6358,-3.6358,-3.6358,-3.6048,-3.424,-3.3441,-3.2543,-3.0317,-2.9408,-2.89,-2.8388,-2.8291,-2.8291,-2.8291,-2.8291,-2.8291,-2.8291,-2.8291,-2.8291,-2.8291,-2.8291,-2.8291,-2.8291,-2.8291,-2.8291,-2.8291,-2.8291,-2.8291,-2.8291,-2.8291,-2.8291,-2.8291,-2.8291,-2.8359,-2.8525,-2.8535,-2.8935,-2.9795,-2.9814,-3.0166,-3.0889,-3.0889,-3.0518,-2.9903,-2.8298,-2.6591,0.0,-1.7311,-1.9173,-1.9425,-2.0915,-2.2259,-2.2014,-2.2304,0.0,-2.1977,-2.1838,-2.1866,-2.1963,-2.186,-2.2272,-2.3879,-2.3985,0.0,0.0,-2.8425,-3.0119,-3.3708,-3.6328,0.0,-3.8114,-3.9082,-3.9697,-3.9697,-4.0844,-4.0932,-3.9788,-4.0844,-4.0932,-3.9685,-3.9697,-3.9697,-3.9697,-3.9697,-3.9697,-3.9697,-3.9697,-3.9697,-3.9697,-3.9697,-3.9697,0.0,0.0,0.0,0.0,-3.8781,-3.8454,-3.8002,-3.7914,-3.7914,-3.7889,-3.7324,-3.7123,-3.7048,-3.6533,-3.6358,-3.6358,-3.6358,-3.6358,-3.6358,-3.6358,-3.6358,-3.6358,-3.6358,-3.6358,-3.6358,-3.6263,-3.5367,-3.397,-3.2543,-3.1224,-2.9911,-2.8601,-2.8291,-2.8291,-2.8291,-2.8291,-2.8291,-2.8291,-2.8291,-2.8291,-2.8291,-2.8291,-2.8291,-2.8291,-2.8291,-2.8291,-2.8291,-2.8291,-2.8291,-2.8291,-2.8291,-2.8291,-2.8291,-2.832,-2.8516,-2.8896,-2.8945,-2.9355,-3.0176,-3.0234,-3.0459,-3.0889,-3.0889,-3.0147,-2.8545,-2.6832,-2.5261,-1.7772,0.0,-1.8454,-1.9389,-2.072,-2.1924,0.0,-2.2932,-2.3255,-2.3171,-2.3172,-2.3481,-2.4496,-2.3482,-2.375,-2.7617,-2.7183,-2.7189,-2.9608,-3.147,-3.3604,-3.6081,-3.7695,-3.8829,-3.9233,-3.9534,-3.9697,-3.9697,-3.9981,-3.9981,-3.9697,-3.9981,-3.9981,-3.9697,-3.9697,-3.9697,-3.9697,-3.9697,-3.9697,-3.9697,-3.9697,-3.9697,-3.9697,-3.9697,-3.9697,0.0,0.0,0.0,-3.8806,-3.7939,-3.7751,-3.7927,-3.7073,-3.701,-3.7312,-3.6759,-3.6558,-3.6533,-3.6408,-3.6358,-3.6358,-3.6358,-3.6358,-3.6358,-3.6358,-3.6358,-3.6358,-3.6358,-3.6358,-3.6156,-3.5174,-3.4678,-3.3773,-3.1327,-3.0514,-2.9911,-2.8601,-2.8291,-2.8291,-2.8291,-2.8291,-2.8291,-2.8291,-2.8291,-2.8291,-2.8291,-2.8291,-2.8291,-2.8291,-2.8291,-2.8291,-2.8291,-2.8291,-2.8291,-2.8291,-2.8291,-2.8291,-2.8291,-2.8594,-2.8818,-2.8916,-2.9238,-2.9668,-3.0185,-3.0547,-3.0781,-3.0889,-3.0889,-3.0645,-3.0265,-2.7323,-2.5863,-1.8713,-1.9216,-1.9852,-2.0819,-2.1824,-2.2739,-2.3416,-2.3551,-2.3568,-2.3583,-2.3595,-2.3924,-2.4971,-2.4332,-2.4481,-2.7187,-2.74,-2.8077,-3.0761,-3.2697,-3.4713,-3.6923,-3.8178,-3.9082,0.0,-3.9697,-3.9697,-3.9697,-3.9697,-3.9697,-3.9697,-3.9697,-3.9697,-3.9697,-3.9697,-3.9697,-3.9697,-3.9697,-3.9697,-3.9697,-3.9697,-3.9697,-3.9697,-3.9697,-3.9559,0.0,0.0,0.0,-3.8052,-3.7437,-3.7211,-3.7199,-3.6596,-3.6546,-3.6772,-3.6471,-3.6358,-3.6358,-3.6358,-3.6358,-3.6358,-3.6358,-3.6358,-3.6358,-3.6358,-3.6358,-3.6358,-3.6358,-3.6358,-3.6263,-3.5475,-3.5271,-3.4763,-3.2644,-3.1735,-3.0813,-2.9503,-2.8698,-2.8291,-2.8291,-2.8291,-2.8291,-2.8291,-2.8291,-2.8291,-2.8291,-2.8291,-2.8291,-2.8291,-2.8291,-2.8291,-2.8291,-2.8291,-2.8369,-2.8564,-2.8584,-2.8584,-2.8584,-2.8984,-2.9307,-2.9502,-2.9726,-3.0068,-3.0508,-3.0762,-3.0889,-3.0889,-3.0147,-2.9403,-2.8554,-2.6114,-2.4532,-1.9406,-2.0756,-2.2217,-2.2478,-2.3105,-2.3827,-2.4328,0.0,0.0,0.0,-2.3684,-2.3985,-2.4713,-2.4815,-2.5034,-2.5838,-2.702,-2.8837,-3.1667,-3.3318,-3.5027,-3.7061,-3.8316,0.0,-3.9647,-3.9697,-3.9697,-3.9697,0.0,-3.9697,-3.9697,-3.9697,-3.9697,-3.9697,-3.9697,-3.9697,-3.9697,-3.9697,-3.9697,-3.9697,-3.9697,-3.9697,-3.9697,-3.9609,-3.932,-3.8856,0.0,0.0,-3.7174,-3.7098,-3.6784,-3.6358,-3.6358,-3.6358,-3.6358,-3.6358,-3.6358,-3.6358,-3.6358,-3.6358,-3.6358,-3.6358,-3.6358,-3.6358,-3.6358,-3.6358,-3.6358,-3.6358,-3.6358,-3.6358,-3.6358,-3.6358,-3.6061,-3.4678,-3.3353,-3.1927,-3.0618,-2.9207,-2.8291,-2.8291,-2.8291,-2.8291,-2.8291,-2.8291,-2.8291,-2.8291,-2.8291,-2.831,-2.8379,-2.8389,-2.8418,-2.8476,-2.8486,-2.8633,-2.8984,-2.9072,-2.9111,-2.9111,-2.9463,-2.9853,-3.0283,-3.0303,-3.0488,-3.0889,-3.0889,-3.0889,-3.0889,-2.9157,-2.7683,-2.634,-2.4417,-2.2834,-2.166,-2.3124,-2.3777,-2.2233,-2.2736,-2.3657,-2.3716,-2.367,0.0,0.0,0.0,0.0,-2.5821,-2.5565,-2.6007,-2.8629,-3.014,-3.1577,-3.336,-3.4979,-3.6458,-3.7726,0.0,-3.9597,-3.9685,-3.9697,-3.9697,0.0,0.0,-3.9697,-3.9697,-3.9697,-3.9697,-3.9697,-3.9697,-3.9697,-3.9697,-3.9697,-3.9697,-3.9697,-3.9697,-3.9697,-3.9672,-3.9207,-3.8956,-3.8818,0.0,-3.7349,-3.7149,-3.6684,-3.6433,-3.6358,-3.6358,-3.6358,-3.6358,-3.6358,-3.6358,-3.6358,-3.6358,-3.6358,-3.6358,-3.6358,-3.6358,-3.6358,-3.6358,-3.6358,-3.6358,-3.6358,-3.6358,-3.6358,-3.6358,-3.6358,-3.6061,-3.4678,-3.3353,-3.1927,-3.0618,-2.9207,-2.8291,-2.8291,-2.8291,-2.8291,-2.8291,-2.8291,-2.8291,-2.8291,-2.8291,-2.8418,-2.8779,-2.8818,-2.8965,-2.9336,-2.9375,-2.9404,-2.9463,-2.9795,-3.0,-3.0,-3.0068,-3.0303,-3.0762,-3.0781,-3.082,-3.0889,-3.0889,-3.0889,-3.0889,-2.9157,-2.8298,-2.7931,-2.5024,-2.345,-2.0812,-2.2293,-2.3445,-2.2862,-2.4522,-2.6198,-2.5824,-2.5749,0.0,0.0,0.0,0.0,-2.6687,-2.7001,-2.7999,-3.0833,-3.1459,-3.2174,-3.4035,-3.5253,-3.6433,0.0,0.0,-3.9371,-3.9659,-3.9697,-3.9572,0.0,0.0,0.0,-3.8806,-3.8781,-3.8931,-3.9245,-3.9245,-3.9396,-3.9697,-3.9697,-3.9697,-3.9697,-3.9697,-3.9697,-3.9672,-3.912,-3.8693,-3.8366,0.0,-3.701,-3.6722,-3.6471,-3.6358,-3.6358,-3.6358,-3.6358,-3.6358,-3.6358,-3.6358,-3.6358,-3.6358,-3.6358,-3.6358,-3.6358,-3.6358,-3.6358,-3.6358,-3.6358,-3.6358,-3.6358,-3.6358,-3.6358,-3.6358,-3.6358,-3.6263,-3.5667,-3.4459,-3.3055,-3.1633,-3.0317,-2.9207,-2.8388,-2.8291,-2.8291,-2.8291,-2.8291,-2.8291,-2.8291,-2.8486,-2.8701,-2.8896,-2.9121,-2.9346,-2.9551,-2.957,-2.9658,-2.9893,-3.0088,-3.0303,-3.0557,-3.0576,-3.0664,-3.0879,-3.0889,-3.0889,-3.0889,-3.0889,-3.0889,-3.0889,-2.8298,-2.7073,-2.7073,-2.3807,-2.2215,-2.0745,-2.1844,-2.3116,-2.4059,-2.6108,-2.7889,-2.7829,-2.7679,-2.7715,-2.803,-2.7645,-2.7371,-2.7598,-2.8504,-2.9914,-3.2215,-3.2314,-3.2817,-3.465,-3.5504,-3.6395,-3.7663,-3.8316,-3.8831,-3.9258,0.0,0.0,0.0,0.0,0.0,-3.8027,-3.8002,-3.8216,-3.8655,-3.8668,-3.8868,-3.9295,-3.9295,-3.9433,-3.9697,-3.9697,-3.9697,-3.9672,-3.8981,-3.8429,-3.7965,-3.7287,-3.6747,-3.6358,-3.6358,-3.6358,-3.6358,-3.6358,-3.6358,-3.6358,-3.6358,-3.6358,-3.6358,-3.6358,-3.6358,-3.6358,-3.6358,-3.6358,-3.6358,-3.6358,-3.6358,-3.6358,-3.6358,-3.6358,-3.6358,-3.6358,-3.6358,-3.6358,-3.6358,-3.5379,-3.397,-3.2644,-3.1224,-2.9911,-2.8601,-2.8291,-2.8291,-2.8291,-2.8291,-2.8291,-2.8291,-2.8652,-2.8955,-2.9062,-2.9453,-2.9756,-2.9863,-2.9883,-3.001,-3.0332,-3.0361,-3.0508,-3.0869,-3.0889,-3.0889,-3.0889,-3.0889,-3.0889,-3.0889,-3.0889,-3.0762,-3.0274,-2.7443,-2.5863,-2.5375,-2.2452,-2.1109,-2.3889,-2.3909,-2.3984,-2.5899,-2.6093,-2.6303,-2.8113,-2.8038,-2.797,-2.9175,-2.9824,-2.9883,-2.8892,-2.9633,-3.0867,-3.2034,-3.347,-3.4713,-3.5391,0.0,-3.7111,-3.7224,-3.7726,-3.809,-3.8128,0.0,0.0,0.0,0.0,0.0,-3.8002,-3.8002,-3.8027,-3.8065,-3.8065,-3.809,-3.8128,-3.8128,-3.8655,-3.9697,-3.9697,-3.9697,-3.9659,-3.8567,-3.8052,-3.7952,-3.6885,-3.6395,-3.6358,-3.6358,-3.6358,-3.6358,-3.6358,-3.6358,-3.6358,-3.6358,-3.6358,-3.6358,-3.6358,-3.6358,-3.6358,-3.6358,-3.6358,-3.6358,-3.6358,-3.6358,-3.6358,-3.6358,-3.6358,-3.6358,-3.6358,-3.6358,-3.6358,-3.6358,-3.5379,-3.397,-3.2644,-3.1224,-2.9911,-2.8601,-2.8291,-2.8291,-2.8291,-2.8291,-2.8291,-2.8291,-2.8652,-2.9062,-2.9473,-2.9893,-3.0322,-3.0752,-3.0791,-3.081,-3.084,-3.084,-3.0859,-3.0889,-3.0889,-3.0889,-3.0889,-3.0889,-3.0889,-3.0889,-3.0889,-3.0147,-2.8545,-2.6832,-2.5253,-2.369,-2.1971,-2.1109,-2.2675,-2.3191,-2.3879,-2.5076,-2.6437,0.0,0.0,-3.0537,-3.115,-3.2901,-3.3025,-3.2429,-3.1137,-3.0763,-3.1198,-3.2968,-3.4085,-3.5039,-3.5931,-3.6408,-3.6797,-3.7149,-3.7362,-3.7626,0.0,0.0,0.0,0.0,0.0,0.0,-3.6998,-3.6985,-3.7149,-3.7475,-3.75,-3.7663,-3.8002,-3.8002,-3.8216,-3.8642,-3.8642,-3.8642,-3.8617,-3.7852,-3.75,-3.745,-3.6684,-3.6358,-3.6358,-3.6358,-3.6358,-3.6358,-3.6358,-3.6358,-3.6358,-3.6358,-3.6358,-3.6358,-3.6358,-3.6358,-3.6358,-3.6358,-3.6132,-3.5918,-3.6257,-3.6119,-3.5931,-3.6257,-3.6358,-3.6358,-3.6358,-3.6358,-3.6358,-3.6358,-3.5966,-3.5066,-3.2733,-3.1927,-3.0927,-2.8698,-2.8291,-2.8291,-2.8291,-2.8291,-2.8379,-2.8643,-2.9043,-2.9482,-2.9902,-3.0351,-3.0693,-3.0869,-3.0889,-3.0889,-3.0889,-3.0889,-3.0889,-3.0889,-3.0889,-3.0889,-3.0889,-3.0889,-3.0889,-3.0889,-3.0889,-3.0645,-2.9903,-2.7323,-2.5741,-2.5016,-2.2334,-2.1109,-2.2394,-2.2936,-2.3864,-2.4971,0.0,0.0,-3.1824,-3.2647,-3.3499,-3.5923,-3.5288,-3.3902,-3.2631,-3.1523,-3.1524,0.0,-3.4361,-3.5102,-3.6207,-3.6358,-3.6508,-3.6872,-3.6923,-3.7073,0.0,0.0,0.0,0.0,0.0,0.0,0.0,-3.6358,-3.6533,-3.691,-3.6923,-3.7098,-3.7475,-3.7487,-3.7487,-3.7487,-3.7487,-3.7663,-3.799,-3.7437,-3.7186,-3.7149,-3.6596,-3.6358,-3.6358,-3.6358,-3.6358,-3.6358,-3.6358,-3.6358,-3.6358,-3.6358,-3.6358,-3.6358,-3.6358,-3.6358,-3.6358,-3.6358,-3.5994,-3.5617,-3.5994,-3.5843,-3.5629,-3.5994,-3.6219,-3.6358,-3.6358,-3.6358,-3.6358,-3.6358,-3.6358,-3.5655,-3.2932,-3.2331,-3.1531,-2.8804,-2.8291,-2.8291,-2.8291,-2.8291,-2.8389,-2.8682,-2.9092,-2.9521,-2.9941,-3.0391,-3.0732,-3.0869,-3.0889,-3.0889,-3.0889,-3.0889,-3.0889,-3.0889,-3.0889,-3.0889,-3.0889,-3.0889,-3.0889,-3.0889,-3.0889,-3.0645,-3.0147,-2.7323,-2.5741,-2.5138,-2.2334,-2.1109,-2.3932,-2.3595,-2.4088,-2.6093,-2.7111,-2.8869,-3.344,-3.3978,-3.4442,-3.7719,-3.6374,-3.4218,-3.3065,-3.2076,-3.1951,-3.3621,-3.4361,-3.5102,-3.6207,-3.6358,-3.6358,-3.6358,-3.6358,0.0,0.0,0.0,0.0,0.0,0.0,0.0,0.0,-3.6358,-3.6358,-3.6358,-3.6358,-3.6358,-3.6358,-3.6358,-3.6358,-3.6358,-3.6358,-3.6935,-3.7977,-3.7425,-3.7174,-3.7149,-3.6596,-3.6358,-3.6358,-3.6358,-3.6358,-3.6358,-3.6358,-3.6358,-3.6358,-3.6358,-3.6358,-3.6358,-3.6358,-3.6358,-3.6358,-3.6358,-3.5981,-3.5449,-3.5449,-3.5449,-3.5529,-3.5542,-3.5931,-3.6358,-3.6358,-3.6358,-3.6358,-3.6358,-3.6358,-3.5655,-3.2932,-3.2331,-3.1531,-2.8804,-2.8291,-2.8291,-2.8291,-2.8291,-2.8291,-2.8301,-2.8652,-2.9082,-2.9512,-2.9932,-3.0371,-3.083,-3.0879,-3.0879,-3.0889,-3.0889,-3.0889,-3.0889,-3.0889,-3.0889,-3.0889,-3.0889,-3.0889,-3.0889,-3.0889,-3.003,-2.8417,-2.6832,-2.5138,-2.3574,-2.1846,-2.1109,-2.32,-2.3625,-2.4687,-2.6213,-2.8831,-3.1779,-3.4562,-3.5055,0.0,0.0,-3.6962,-3.5079,-3.4681,-3.3141,0.0,-3.3696,-3.4361,-3.5102,-3.6207,-3.6358,-3.6358,-3.6358,0.0,0.0,0.0,0.0,0.0,0.0,0.0,0.0,0.0,-3.6358,-3.6358,-3.6358,-3.6358,-3.6358,-3.6358,-3.6358,-3.6358,-3.6358,-3.6358,-3.6533,-3.6847,-3.6684,-3.6609,-3.6596,-3.6433,-3.6358,-3.6358,-3.6358,-3.6358,-3.6358,-3.6358,-3.6358,-3.6358,-3.6358,-3.6358,-3.6358,-3.6358,-3.6358,-3.6295,-3.5906,-3.5416,-3.4964,-3.4964,-3.47,-3.455,-3.5328,-3.5667,-3.5868,-3.6257,-3.6358,-3.6358,-3.6358,-3.6358,-3.5655,-3.2932,-3.2331,-3.1531,-2.8804,-2.8291,-2.8291,-2.8291,-2.8291,-2.8398,-2.8691,-2.8838,-2.918,-2.9912,-2.9863,-2.9922,-3.0361,-3.0137,-3.0078,-3.0371,-3.04,-3.0547,-3.0869,-3.0889,-3.0889,-3.0889,-3.0889,-3.0889,-3.0889,-3.0889,-3.0645,-3.0147,-2.7323,-2.5733,-2.5261,-2.2452,-2.1109,-2.4118,-2.4807,-2.5914,-2.8023,-3.0552,-3.3245,-3.6028,-3.706,-3.7585,-3.8017,-3.6892,-3.5558,-3.462,-3.323,0.0,-3.3709,-3.4173,-3.47,-3.5592,-3.5893,-3.6031,-3.6031,0.0,0.0,0.0,0.0,0.0,0.0,0.0,0.0,0.0,-3.6031,-3.6132,-3.6358,-3.6358,-3.6358,-3.6358,-3.6144,-3.6031,-3.6031,-3.5818,-3.5818,-3.6044,-3.6257,-3.6358,-3.6358,-3.6358,-3.6358,-3.6358,-3.6358,-3.6358,-3.6358,-3.6358,-3.6358,-3.6358,-3.6358,-3.6358,-3.6358,-3.6358,-3.6358,-3.627,-3.573,-3.5177,-3.4675,-3.4462,-3.4161,-3.4035,-3.47,-3.5052,-3.5303,-3.5629,-3.5868,-3.6094,-3.6307,-3.5966,-3.4957,-3.2744,-3.1927,-3.0824,-2.8698,-2.8291,-2.8291,-2.8291,-2.8291,-2.8379,-2.8633,-2.8809,-2.9101,-2.9619,-2.9619,-2.9668,-2.9922,-2.9726,-2.9736,-3.0166,-3.0195,-3.0391,-3.0859,-3.0889,-3.0889,-3.0889,-3.0889,-3.0889,-3.0889,-3.0889,-3.0518,-2.9903,-2.7323,-2.5619,-2.5016,-2.2334,-2.1109,-2.5824,-2.6497,-2.747,-3.0791,-3.2332,-3.4008,-3.7659,-3.9424,-3.9564,-3.6872,-3.6383,-3.5775,-3.3641,-3.2726,-3.2641,-3.3721,-3.3897,-3.4085,-3.465,-3.5152,-3.5466,0.0,0.0,0.0,0.0,0.0,0.0,0.0,0.0,0.0,0.0,-3.5466,-3.5705,-3.6194,-3.6219,-3.6219,-3.6219,-3.5717,-3.5466,-3.5466,-3.4964,-3.4989,-3.5491,-3.6044,-3.632,-3.6358,-3.6358,-3.6358,-3.6358,-3.6358,-3.6358,-3.6358,-3.6358,-3.6358,-3.6358,-3.6358,-3.6358,-3.6358,-3.6358,-3.632,-3.6194,-3.5655,-3.5102,-3.455,-3.3985,-3.3822,-3.3834,-3.3884,-3.4261,-3.4663,-3.4713,-3.509,-3.5604,-3.6157,-3.5343,-3.397,-3.2644,-3.1224,-2.9911,-2.8601,-2.8291,-2.8291,-2.8291,-2.8291,-2.8291,-2.8291,-2.8613,-2.8877,-2.8916,-2.9238,-2.9473,-2.9502,-2.9473,-2.9639,-3.0098,-3.0137,-3.0351,-3.0859,-3.0889,-3.0889,-3.0889,-3.0889,-3.0889,-3.0889,-3.0889,-3.003,-2.8417,-2.6832,-2.5138,-2.3574,-2.1853,-2.1109,-2.4133,-2.5764,-2.8158,-3.1465,-3.4741,-3.7494,-3.8886,-3.9424,-3.9194,-3.7767,-3.6774,-3.5828,-3.4581,-3.3526,-3.3106,-3.3796,-3.3897,-3.4085,-3.465,-3.4826,-3.4901,-3.4901,0.0,0.0,0.0,0.0,0.0,0.0,0.0,0.0,-3.4901,-3.4901,-3.4951,-3.5064,-3.5077,-3.5077,-3.5077,-3.4964,-3.4901,0.0,-3.4776,-3.4788,-3.4914,-3.5466,-3.5956,-3.6358,-3.6358,-3.6358,-3.6358,-3.6358,-3.6358,-3.6358,-3.6358,-3.6358,-3.6358,-3.6358,-3.6358,-3.6358,-3.6358,-3.6081,-3.5629,-3.5077,-3.4525,-3.3972,-3.342,-3.3257,-3.3345,-3.3771,-3.3985,-3.4173,-3.4613,-3.4813,-3.5039,-3.5592,-3.5061,-3.397,-3.2644,-3.1224,-2.9911,-2.8601,-2.8291,-2.8291,-2.8291,-2.8291,-2.8291,-2.8291,-2.8369,-2.8545,-2.8877,-2.8711,-2.8691,-2.9023,-2.8769,-2.8877,-2.9639,-2.9707,-3.0049,-3.084,-3.0889,-3.0889,-3.0889,-3.0889,-3.0889,-3.0889,-3.0889,-3.003,-2.8417,-2.6832,-2.5138,-2.3574,-2.1853,-2.1109,-2.4986,-2.6752,-2.9086,-3.335,-3.6178,-3.8182,-3.9185,-3.9017,-3.8308,-3.7252,-3.6604,-3.5734,-3.4178,-3.3471,-3.3169,-3.3458,-3.3508,-3.3608,-3.3884,-3.4161,-3.4324,0.0,0.0,0.0,0.0,0.0,0.0,0.0,0.0,-3.4324,-3.4324,-3.4324,-3.4449,-3.4713,-3.4726,-3.4726,-3.4726,-3.4462,-3.4324,-3.4324,-3.406,-3.4073,-3.4349,-3.4901,-3.5303,-3.5592,-3.5855,-3.5968,-3.5994,-3.6257,-3.6358,-3.6358,-3.6358,-3.6358,-3.6358,-3.6358,-3.6358,-3.632,-3.6056,-3.578,-3.5416,-3.4587,-3.4135,-3.3796,-3.3244,-3.3081,-3.3131,-3.342,-3.3508,-3.3571,-3.3859,-3.4123,-3.4462,-3.5014,-3.4006,-3.2856,-3.2387,-3.0721,-2.9102,-2.8398,-2.8291,-2.8291,-2.8291,-2.8291,-2.8291,-2.8291,-2.8291,-2.8369,-2.8594,-2.8428,-2.8379,-2.8594,-2.8428,-2.8555,-2.9209,-2.9453,-2.9853,-3.0518,-3.0771,-3.0889,-3.0889,-3.0889,-3.0889,-3.0889,-3.0889,-2.9658,-2.7202,-2.6461,-2.477,-2.2341,-2.1481,-2.1109,-2.5834,-2.778,-3.0009,-3.4765,-3.6507,-3.7449,-3.8822,-3.8308,-3.7252,-3.6369,-3.6053,-3.5346,-3.3471,-3.3081,-3.3081,-3.3081,-3.3081,-3.3081,-3.3081,-3.347,-3.3759,0.0,0.0,0.0,0.0,0.0,0.0,0.0,0.0,-3.3759,-3.3759,-3.3759,-3.3972,-3.4424,-3.4437,-3.4437,-3.4437,-3.3985,-3.3759,-3.3759,-3.3294,-3.3319,-3.3771,-3.4223,-3.4537,-3.4751,-3.5203,-3.5403,-3.5454,-3.5994,-3.6219,-3.6219,-3.632,-3.6358,-3.6358,-3.6358,-3.6358,-3.6282,-3.573,-3.5479,-3.524,-3.4223,-3.3834,-3.3671,-3.3219,-3.3081,-3.3081,-3.3081,-3.3081,-3.3081,-3.3081,-3.342,-3.3897,-3.4449,-3.296,-3.1526,-3.2208,-3.0214,-2.8291,-2.8291,-2.8291,-2.8291,-2.8291,-2.8291,-2.8291,-2.8291,-2.8291,-2.8291,-2.8291,-2.8291,-2.8291,-2.8291,-2.8291,-2.8467,-2.8887,-2.9248,-2.9668,-3.0166,-3.0557,-3.081,-3.0889,-3.0635,-3.0518,-3.0518,-3.0518,-2.9039,-2.5976,-2.5741,-2.4039,-2.1109,-2.1109,-2.1109,-2.3052,-2.6531,-3.0535,-3.3325,-3.4822,-3.6099,-3.767,-3.7175,-3.6369,0.0,-3.5507,-3.4498,-3.3313,-3.3081,-3.3081,-3.3081,-3.3081,-3.3081,-3.3081,-3.3144,-3.3181,0.0,0.0,0.0,0.0,0.0,0.0,0.0,-3.3181,-3.3181,-3.3181,-3.3181,-3.3219,-3.3294,-3.3294,-3.3294,-3.3294,-3.3219,-3.3181,-3.3181,-3.3106,-3.3119,-3.3194,-3.3269,-3.3822,-3.4726,-3.4801,-3.4826,-3.4876,-3.5429,-3.5655,-3.5705,-3.6182,-3.6358,-3.6358,-3.6358,-3.6358,-3.6282,-3.573,-3.524,-3.4726,-3.411,-3.3583,-3.3169,-3.3106,-3.3081,-3.3081,-3.3081,-3.3081,-3.3081,-3.3081,-3.3131,-3.3319,-3.3872,-3.2322,-3.1124,-3.2029,-3.0214,-2.8291,-2.8291,-2.8291,-2.8291,-2.8291,-2.8291,-2.8291,-2.8291,-2.8291,-2.8291,-2.8291,-2.8291,-2.8291,-2.8291,-2.8291,-2.8467,-2.8887,-2.8975,-2.9346,-3.0146,-3.0254,-3.0469,-3.0869,-2.953,-2.8783,-2.8783,-2.8783,-2.7811,-2.5976,-2.4655,-2.2952,-2.1109,-2.1109,-2.1109,-2.3526,-2.6609,-2.9734,-3.2471,-3.3581,-3.439,-3.6079,-3.5636,-3.4941,-3.5292,-3.4498,-3.3628,-3.3154,-3.3081,-3.3081,-3.3081,-3.3081,-3.3081,-3.3081,-3.3081,-3.3081,0.0,0.0,0.0,0.0,0.0,0.0,0.0,-3.3081,-3.3081,-3.3081,-3.3081,-3.3081,-3.3081,-3.3081,-3.3081,-3.3081,-3.3081,-3.3081,-3.3081,-3.3081,-3.3081,-3.3081,-3.3081,-3.3345,-3.3822,-3.4123,-3.4261,-3.4299,-3.4851,-3.509,-3.5115,-3.5341,-3.5629,-3.5906,-3.5906,-3.5906,-3.5818,-3.5278,-3.4726,-3.4173,-3.3621,-3.3269,-3.3081,-3.3081,-3.3081,-3.3081,-3.3081,-3.3081,-3.3081,-3.3081,-3.3081,-3.3108,-3.3203,-3.1949,-3.0743,-3.1121,-2.9608,-2.8291,-2.8291,-2.8291,-2.8291,-2.8291,-2.8291,-2.8291,-2.8291,-2.8291,-2.8291,-2.8291,-2.8291,-2.8291,-2.8291,-2.8291,-2.8369,-2.8555,-2.8779,-2.918,-2.9805,-3.0068,-3.0036,-2.9512,-2.8792,-2.7931,-2.7073,-2.7073,-2.6227,-2.4655,-2.3938,-2.2709,-2.1109,-2.1109,-2.1109,-2.3104,-2.5365,-2.7475,-3.0283,-3.1382,-3.2277,-3.4134,0.0,-3.3404,0.0,-3.365,-3.2905,-3.3056,-3.3081,-3.3081,-3.3081,-3.3081,-3.3081,-3.3081,-3.3081,-3.3081,0.0,0.0,0.0,0.0,0.0,0.0,0.0,-3.3081,-3.3018,-3.2867,-3.2855,-3.2792,-3.2654,-3.2654,-3.2654,-3.2654,-3.278,-3.2855,-3.2855,-3.3006,-3.3081,-3.3081,-3.3081,-3.3081,-3.3106,-3.3508,-3.3696,-3.3734,-3.4286,-3.4512,-3.4525,-3.4663,-3.4977,-3.5341,-3.5341,-3.5341,-3.5253,-3.47,-3.4248,-3.3809,-3.3257,-3.3081,-3.3081,-3.3081,-3.3081,-3.3081,-3.3081,-3.3081,-3.3081,-3.3081,-3.3081,-3.3034,-3.256,-3.1444,-3.0405,-2.9891,-2.9006,-2.8291,-2.8291,-2.8291,-2.8291,-2.8291,-2.8291,-2.8291,-2.8291,-2.8291,-2.8291,-2.8291,-2.8291,-2.8291,-2.8291,-2.8291,-2.8291,-2.8291,-2.8584,-2.8945,-2.9375,-2.9447,-2.9047,-2.8255,-2.7519,-2.6599,-2.5375,-2.5008,-2.4409,-2.3574,-2.3208,-2.2341,-2.1109,-2.1109,-2.1109,-1.9772,-2.1326,-2.3132,-2.5443,-2.7536,-2.9706,-3.1906,0.0,-3.197,-3.3539,-3.2949,-3.2428,-3.2968,-3.3081,-3.3081,-3.3081,-3.3081,-3.3081,-3.3081,-3.3081,0.0,0.0,0.0,0.0,0.0,0.0,0.0,0.0,-3.3081,-3.283,-3.229,-3.2252,-3.2014,-3.1486,-3.1474,-3.1474,-3.1474,-3.1989,-3.2252,-3.2265,-3.2817,-3.3081,-3.3081,-3.3081,-3.3081,-3.3081,-3.3106,-3.3119,-3.3156,-3.3721,-3.3935,-3.3997,-3.4512,-3.4738,-3.4763,-3.4763,-3.4763,-3.4688,-3.4135,-3.3922,-3.3809,-3.3257,-3.3081,-3.3081,-3.3081,-3.3081,-3.3081,-3.3081,-3.3081,-3.3081,-3.3081,-3.3081,-3.2934,-3.2117,-3.1009,-2.9698,-2.862,-2.8398,-2.8291,-2.8291,-2.8291,-2.8291,-2.8291,-2.8291,-2.8291,-2.8291,-2.8291,-2.8291,-2.8291,-2.8291,-2.8291,-2.8291,-2.8291,-2.8291,-2.8291,-2.831,-2.8506,-2.8926,-2.7865,-2.7452,-2.7849,-2.5214,-2.3814,-2.3698,-2.2215,-2.2097,-2.3574,-2.1971,-2.1235,-2.1109,-2.1109,-2.1109,-1.9098,-2.0256,-2.1694,-2.3552,-2.5159,-2.6735,-2.8618,-2.9745,-3.0666,-3.1516,-3.1668,-3.175,-3.1951,-3.2591,-3.3081,-3.3081,-3.3081,-3.3081,-3.3081,-3.3081,0.0,0.0,0.0,0.0,0.0,0.0,0.0,0.0,0.0,-2.9797,-2.9609,-3.0302,-3.0566,-3.0372,-3.1046,-3.1386,-3.1386,-3.1587,-3.1687,-3.1687,-3.2252,-3.2516,-3.2541,-3.2905,-3.3081,-3.3081,-3.3081,-3.3081,-3.3093,-3.3294,-3.337,-3.3395,-3.3583,-3.3884,-3.4198,-3.4198,-3.4198,-3.4161,-3.3972,-3.3671,-3.3332,-3.3144,-3.3081,-3.3081,-3.3081,-3.3081,-3.3081,-3.3081,-3.3081,-3.3081,-3.3081,-3.2513,-3.1538,-3.0214,-2.9208,-2.8482,-2.8337,-2.8291,-2.8291,-2.8291,-2.8291,-2.8291,-2.8291,-2.8291,-2.8291,-2.8291,-2.8291,-2.8291,-2.8291,-2.8291,-2.8291,-2.8291,-2.8291,-2.8291,-2.8291,-2.7394,-2.7011,-2.7428,-2.6213,-2.5185,-2.4843,-2.3787,-2.2871,-2.1971,-2.1355,-2.1355,-2.1971,-2.1355,-2.1109,-2.1109,-2.1109,-2.1109,-1.8141,-1.9133,-2.0514,-2.2171,-2.315,-2.433,-2.6741,-2.7858,-2.8762,-3.0068,-3.0608,-3.0959,-3.1323,-3.2001,-3.2516,-3.2516,-3.2516,-3.2516,-3.2516,-3.2516,0.0,0.0,0.0,0.0,0.0,0.0,0.0,0.0,0.0,0.0,-2.7876,-2.8561,-2.9081,-2.9237,-3.0257,-3.0846,-3.0846,-3.1035,-3.1135,-3.1135,-3.1675,-3.1938,-3.1951,-3.2528,-3.278,-3.2805,-3.2993,-3.3081,-3.3081,-3.3081,-3.3081,-3.3081,-3.3081,-3.3307,-3.3621,-3.3621,-3.3621,-3.3621,-3.3621,-3.3382,-3.3081,-3.3081,-3.3081,-3.3081,-3.3081,-3.3081,-3.3081,-3.3081,-3.2797,-3.2426,-3.2426,-3.1354,-2.9858,-2.8646,-2.8006,-2.7705,-2.7832,-2.8086,-2.8291,-2.8291,-2.8291,-2.8291,-2.8291,-2.8291,-2.8291,-2.8291,-2.8291,-2.8291,-2.8291,-2.8291,-2.8291,-2.8291,-2.8291,-2.8291,-2.8291,-2.7394,-2.6946,-2.7233,-2.544,-2.4128,-2.3549,-2.2615,-2.1744,-2.0955,-2.0869,-2.0915,-2.1109,-2.1109,-2.1109,-2.1109,-2.1109,-2.1109,0.0,0.0,0.0,-2.0978,0.0,0.0,-2.6201,0.0,-2.6302,-2.9076,-2.9679,-3.003,-3.1122,-3.1311,-3.1323,-3.1336,-3.1373,-3.1386,-3.1386,0.0,0.0,0.0,0.0,0.0,0.0,0.0,0.0,0.0,-2.7993,-2.7693,-2.7211,-2.7189,-2.7467,-2.8028,-2.9197,-2.9792,-2.9792,-3.0319,-3.0595,-3.0595,-3.1122,-3.1361,-3.1386,-3.1938,-3.219,-3.2227,-3.2805,-3.3056,-3.3056,-3.3068,-3.3081,-3.3081,-3.3081,-3.3081,-3.3081,-3.3081,-3.3081,-3.3081,-3.3081,-3.3081,-3.3081,-3.3081,-3.3081,-3.3068,-3.3081,-3.3068,-3.3068,-3.2982,-3.2152,-3.1211,-3.1122,-2.9661,-2.8038,-2.762,-2.7582,-2.7519,-2.7119,-2.7685,-2.8281,-2.8291,-2.8291,-2.8291,-2.8291,-2.8291,-2.8291,-2.8291,-2.8291,-2.8291,-2.8291,-2.8291,-2.8291,-2.8291,-2.8291,-2.8291,-2.8291,-2.8291,-2.8184,-2.8184,-2.5628,-2.4244,-2.4146,-2.1579,-2.0361,-2.0661,-2.0381,-2.0514,-2.1082,-2.1089,-2.1102,-2.1109,-2.1109,-2.1109,-1.6785,0.0,0.0,0.0,0.0,0.0,0.0,0.0,-2.4268,-2.5862,-2.6829,-2.7833,-2.934,-2.9603,-2.9741,-3.0168,-3.0884,-3.1386,-3.1386,0.0,0.0,0.0,0.0,0.0,0.0,0.0,0.0,0.0,-2.4927,-2.4461,-2.4252,-2.5072,-2.5928,-2.6883,-2.8028,-2.8597,-2.8597,-2.9514,-3.0018,-3.003,-3.057,-3.0834,-3.0846,-3.1373,-3.1625,-3.165,-3.2215,-3.2453,-3.2478,-3.2905,-3.3081,-3.3081,-3.3081,-3.3081,-3.3081,-3.3081,-3.3081,-3.3081,-3.3081,-3.3081,-3.3081,-3.3081,-3.3081,-3.2896,-3.2052,-3.2339,-3.2711,-3.0968,-3.0777,-3.0765,-2.9039,-2.8134,-2.7554,-2.6919,-2.6774,-2.6885,-2.7383,-2.7676,-2.793,-2.8232,-2.8291,-2.8291,-2.8291,-2.8291,-2.8291,-2.8291,-2.8291,-2.8291,-2.8291,-2.8291,-2.8291,-2.8291,-2.8291,-2.8291,-2.8291,-2.7276,-2.6273,-2.516,-2.3352,-2.1947,-2.105,-2.0342,-2.006,-2.0347,-2.0274,-2.0314,-2.0474,-2.0688,-2.0902,-2.1109,-2.1109,-2.1109,-1.7237,-1.7702,-1.8518,-1.8417,0.0,0.0,-2.0464,-2.1317,-2.2334,0.0,-2.5335,-2.6214,-2.7632,-2.8084,-2.8348,-2.8687,-2.9654,-3.0444,-3.0696,0.0,0.0,0.0,0.0,0.0,0.0,-2.521,-2.4628,-2.4135,-2.3474,-2.3135,-2.3135,-2.4211,-2.5126,-2.5797,-2.6871,-2.7683,-2.8096,-2.8767,-2.9365,-2.9792,-3.0118,-3.0269,-3.0281,-3.0821,-3.1072,-3.1097,-3.1637,-3.1863,-3.1913,-3.2491,-3.2855,-3.3081,-3.3081,-3.3081,-3.3081,-3.3081,-3.3081,-3.3081,-3.3081,-3.3081,-3.3081,-3.3081,-3.2711,-3.2152,-3.1412,-3.1412,-3.1235,-2.9772,-2.9498,-2.9223,-2.7305,-2.6849,-2.6729,-2.6241,-2.626,-2.6523,-2.7031,-2.7266,-2.7568,-2.8174,-2.8291,-2.8291,-2.8291,-2.8291,-2.8291,-2.8291,-2.8291,-2.8291,-2.8291,-2.8291,-2.8291,-2.8291,-2.8291,-2.8067,-2.7394,-2.6608,-2.548,-2.3933,-2.2371,-2.1332,-2.0625,-1.9958,-1.976,-2.0047,-1.9933,-1.9927,-2.0054,-2.0347,-2.0641,-2.0935,-2.1049,-2.1109,-1.799,-1.838,-1.9284,-1.956,-1.8681,0.0,-2.1066,-2.0702,-2.0639,0.0,-2.423,-2.4619,-2.5787,-2.6383,-2.6746,-2.6746,-2.7701,-2.8813,-2.9603,0.0,0.0,0.0,0.0,0.0,-2.464,-2.4471,-2.4067,-2.3085,-2.2998,-2.2998,-2.2998,-2.3907,-2.4502,-2.4544,-2.5637,-2.6744,-2.7752,-2.7844,-2.8518,-2.9624,-2.9624,-2.9702,-2.9817,-3.0306,-3.052,-3.0557,-3.1072,-3.1298,-3.1348,-3.1901,-3.2453,-3.2993,-3.3056,-3.3081,-3.3081,-3.3081,-3.3081,-3.3081,-3.3081,-3.2982,-3.2884,-3.2884,-3.2052,-3.0944,-3.0855,-3.0124,-2.9407,-2.9223,-2.8319,-2.7125,-2.6014,-2.5742,-2.5742,-2.5742,-2.6035,-2.6328,-2.6377,-2.668,-2.7187,-2.7998,-2.8193,-2.8232,-2.8281,-2.8291,-2.8291,-2.8291,-2.8291,-2.8291,-2.8291,-2.8291,-2.8291,-2.8067,-2.8067,-2.7501,-2.5927,-2.5818,-2.5151,-2.3599,-2.2371,-2.1472,-2.1365,-2.0148,-1.9492,-1.9746,-1.9499,-1.9492,-1.9753,-2.0074,-2.0381,-2.0681,-2.0942,-2.1076,-1.9032,-1.951,-2.0049,-1.8819,-1.9271,0.0,-1.8003,-1.8769,-1.9861,0.0,-2.0489,-2.1267,-2.2836,-2.3059,-2.3086,-2.3201,-2.4847,-2.6772,-2.8813,-2.8455,0.0,0.0,0.0,0.0,-2.2599,-2.2453,-2.2369,-2.2129,-2.2129,-2.2129,-2.2129,-2.2369,-2.2601,-2.2948,-2.4013,-2.4919,-2.5452,-2.6378,-2.7371,-2.8426,-2.8426,-2.8937,-2.9792,-2.9905,-2.9955,-2.998,-3.0532,-3.0771,-3.0809,-3.1336,-3.1876,-3.2428,-3.2893,-3.3081,-3.3081,-3.3081,-3.3081,-3.3081,-3.3081,-3.2426,-3.1589,-3.1589,-3.0777,-2.959,-2.8588,-2.8866,-2.9223,-2.8226,-2.703,-2.6014,-2.5732,-2.5742,-2.5742,-2.5742,-2.5801,-2.5967,-2.6309,-2.6455,-2.666,-2.7168,-2.7549,-2.7891,-2.8232,-2.8291,-2.8291,-2.8291,-2.8291,-2.8291,-2.8291,-2.8291,-2.7843,-2.6608,-2.649,-2.5936,-2.4378,-2.4267,-2.3599,-2.2145,-2.1813,-2.1031,-1.9924,-1.9591,-1.9392,-1.9452,-1.9399,-1.9399,-1.9452,-1.9973,-2.0381,-2.0675,-2.0735,-2.0882,-1.9786,-2.0024,-2.0517,-1.9635,-1.9635,0.0,0.0,-1.8191,-1.8744,-1.9296,-1.9143,-1.9384,-2.076,-2.0684,-2.0523,-2.077,-2.2421,-2.4032,-2.5168,-2.6332,-2.6445,0.0,0.0,0.0,-2.1958,-2.1885,-2.1885,-2.1885,-2.1885,-2.1885,-2.1885,-2.1885,-2.1982,-2.2197,-2.2962,-2.3741,-2.4451,-2.526,-2.6213,-2.7279,-2.7844,-2.8426,-2.8937,-2.9534,-2.9792,-2.9804,-3.008,-3.0206,-3.0244,-3.0783,-3.1173,-3.1499,-3.2315,-3.2641,-3.2679,-3.2968,-3.3081,-3.2982,-3.2339,-3.1765,-3.1122,-3.0496,-2.9498,-2.8412,-2.7767,-2.7579,-2.7389,-2.6849,-2.6197,-2.5742,-2.5742,-2.5742,-2.5742,-2.5742,-2.5742,-2.5791,-2.6016,-2.6064,-2.6191,-2.6621,-2.6875,-2.7168,-2.7588,-2.7656,-2.7656,-2.7656,-2.7656,-2.7656,-2.7656,-2.7842,-2.7343,-2.5691,-2.5928,-2.509,-2.268,-2.2607,-2.204,-2.0587,-2.0479,-2.0141,-1.9482,-1.9366,-1.9366,-1.9366,-1.9366,-1.9366,-1.9366,-1.9659,-1.9953,-2.0247,-2.0541,-2.0755,-2.0715,-2.079,-2.1234,-2.0639,-2.0162,-1.9546,0.0,0.0,0.0,0.0,0.0,0.0,0.0,0.0,0.0,0.0,0.0,0.0,0.0,-2.3121,0.0,0.0,0.0,0.0,0.0,-2.1387,-2.1455,-2.1621,-2.1475,-2.1455,-2.1621,-2.1631,-2.167,-2.1758,-2.209,-2.2745,-2.3878,-2.4146,-2.4956,-2.6224,-2.7023,-2.7683,-2.8096,-2.9028,-2.9611,-2.9792,-2.9792,-2.9792,-2.9829,-3.0269,-3.0457,-3.057,-3.175,-3.2215,-3.2277,-3.2867,-3.2982,-3.2612,-3.1589,-3.0855,-3.0316,-2.9407,-2.8226,-2.722,-2.722,-2.6476,-2.5742,-2.5742,-2.5742,-2.5742,-2.5742,-2.5742,-2.5742,-2.5742,-2.5742,-2.5742,-2.5742,-2.5742,-2.584,-2.6191,-2.6269,-2.6426,-2.6934,-2.7012,-2.7012,-2.7012,-2.7012,-2.7012,-2.7012,-2.7108,-2.6532,-2.4691,-2.4907,-2.3871,-2.0892,-2.0896,-2.0637,-1.9475,-1.9366,-1.9366,-1.9366,-1.9366,-1.9366,-1.9366,-1.9366,-1.9366,-1.9366,-1.9366,-1.9512,-1.9813,-2.0287,-2.0568,-2.2347,-2.2799,-2.3025,-2.0526,-2.1292,-2.1644,-1.7702,0.0,-1.8468,-1.7162,0.0,0.0,0.0,0.0,0.0,0.0,0.0,0.0,-1.582,-1.7934,-1.9943,0.0,0.0,0.0,0.0,-1.958,-1.9893,-2.0654,-2.001,-1.9912,-2.0674,-2.0713,-2.0898,-2.1299,-2.1357,-2.1738,-2.266,-2.2719,-2.3503,-2.4957,-2.5115,-2.6191,-2.8096,-2.8255,-2.8858,-2.9792,-2.9792,-2.9792,-2.9792,-2.9867,-2.988,-3.0043,-3.1599,-3.2215,-3.2277,-3.2867,-3.2426,-3.1412,-3.1223,-2.9772,-2.7955,-2.7861,-2.6935,-2.5927,-2.5927,-2.583,-2.5742,-2.5742,-2.5742,-2.5742,-2.5742,-2.5742,-2.5742,-2.5742,-2.5742,-2.5742,-2.5742,-2.5742,-2.5752,-2.5801,-2.581,-2.6064,-2.6875,-2.7012,-2.7012,-2.7012,-2.7012,-2.7012,-2.7012,-2.5985,-2.4709,-2.3174,-2.1957,-2.0714,-1.9224,-1.9172,-1.9307,-1.9352,-1.9366,-1.9366,-1.9366,-1.9366,-1.9366,-1.9366,-1.9366,-1.9366,-1.9366,-1.9366,-1.9512,-1.98,-1.9867,-2.018,-2.2523,-2.2455,-2.236,-2.1119,-2.0841,-2.028,-1.7987,0.0,-1.7463,0.0,0.0,0.0,0.0,0.0,0.0,0.0,-1.4702,0.0,0.0,0.0,-1.7195,0.0,0.0,0.0,0.0,0.0,0.0,0.0,-1.9111,-1.918,-1.9795,-2.0059,-2.0391,-2.083,-2.1103,-2.1406,-2.1768,-2.2266,-2.2843,-2.3513,-2.4333,-2.5619,-2.7197,-2.7844,-2.8688,-2.9792,-2.9792,-2.9792,-2.9792,-2.9792,-2.9792,-2.9802,-3.0188,-3.0408,-3.0749,-3.1308,-3.0961,-3.0045,-2.9315,-2.8412,-2.7494,-2.6754,-2.611,-2.5742,-2.5742,-2.5742,-2.5742,-2.5742,-2.5742,-2.5742,-2.5742,-2.5742,-2.5742,-2.5742,-2.5742,-2.5742,-2.5742,-2.5742,-2.5742,-2.5742,-2.5742,-2.585,-2.6211,-2.6269,-2.6269,-2.6269,-2.5543,-2.5123,-2.5123,-2.4079,-2.277,-2.1097,-2.0803,-2.0055,-1.8527,-1.8577,-1.8798,-1.9092,-1.9272,-1.9366,-1.9366,-1.9366,-1.9366,-1.9366,-1.9366,-1.9366,-1.9366,-1.9366,-1.9432,-1.9553,-1.972,-1.9933,-2.2577,0.0,0.0,0.0,0.0,0.0,0.0,0.0,0.0,0.0,0.0,0.0,0.0,0.0,0.0,0.0,0.0,-1.4,0.0,-1.4424,0.0,0.0,0.0,0.0,0.0,0.0,0.0,0.0,0.0,-1.8271,-1.9072,-1.9512,-1.9941,-2.0371,-2.082,-2.1113,-2.123,-2.1973,-2.2402,-2.2519,-2.376,-2.4967,-2.6047,-2.7197,-2.8279,-2.9365,-2.9624,-2.9792,-2.9792,-2.9792,-2.9624,-2.9312,-2.8847,-2.8562,-2.8579,-2.9584,-2.9521,-2.8773,-2.7861,-2.741,-2.6945,-2.6014,-2.5742,-2.5742,-2.5742,-2.5742,-2.5742,-2.5742,-2.5742,-2.5742,-2.5742,-2.5742,-2.5742,-2.5742,-2.5742,-2.5742,-2.5742,-2.5742,-2.5742,-2.5742,-2.5742,-2.5538,-2.5226,-2.543,-2.5538,-2.5226,-2.4304,-2.3583,-2.3176,-2.2205,-2.1035,-1.9753,-1.9744,-1.9334,-1.8164,-1.8243,-1.8531,-1.8905,-1.9125,-1.9279,-1.9366,-1.9366,-1.9366,-1.9366,-1.9366,-1.9366,-1.9366,-1.9366,-1.9366,-1.9372,-1.9586,-1.9726,0.0,0.0,0.0,-1.9268,0.0,0.0,0.0,0.0,-1.7233,0.0,0.0,0.0,0.0,0.0,0.0,0.0,0.0,0.0,0.0,0.0,0.0,0.0,0.0,0.0,0.0,0.0,0.0,0.0,0.0,0.0,-1.8494,-1.9072,-1.9502,-1.9922,-2.0361,-2.0791,-2.123,-2.168,-2.2109,-2.2519,-2.293,-2.3714,-2.4872,-2.6058,-2.7128,-2.8255,-2.9287,-2.9792,-2.9792,-2.9792,-2.9118,-2.8176,-2.8108,-2.7024,-2.5802,-2.8066,-2.8368,-2.7683,-2.7589,-2.6754,-2.5732,-2.5732,-2.5742,-2.5742,-2.5742,-2.5742,-2.5742,-2.5742,-2.5742,-2.5742,-2.5742,-2.5742,-2.5742,-2.5742,-2.5742,-2.5742,-2.5742,-2.5742,-2.5742,-2.5742,-2.5742,-2.5333,-2.3998,-2.4815,-2.5226,-2.3989,-2.3692,-2.3276,-2.1954,-2.0546,-1.9635,-1.9627,-1.8422,-1.7729,-1.8023,-1.8056,-1.8303,-1.8885,-1.8931,-1.9065,-1.9359,-1.9366,-1.9366,-1.9366,-1.9366,-1.9366,-1.9366,-1.9366,-1.9366,-1.9366,-1.9379,-1.9533,0.0,0.0,-2.115,-1.9599,0.0,0.0,0.0,0.0,0.0,0.0,0.0,0.0,0.0,0.0,0.0,0.0,0.0,0.0,0.0,0.0,0.0,0.0,0.0,0.0,0.0,0.0,0.0,0.0,-1.6152,0.0,0.0,-1.8477,-1.918,-1.9893,-2.0342,-2.0635,-2.0791,-2.123,-2.1533,-2.168,-2.2383,-2.3293,-2.443,-2.5832,-2.7128,-2.8176,-2.9287,-2.9365,-2.8688,-2.8688,-2.8028,-2.6953,-2.6202,-2.5658,-2.5487,-2.664,-2.6545,-2.5979,-2.628,-2.611,-2.5742,-2.5742,-2.5742,-2.5742,-2.5742,-2.5742,-2.5742,-2.5742,-2.5742,-2.5742,-2.5742,-2.5742,-2.5742,-2.5742,-2.5742,-2.5742,-2.5742,-2.5742,-2.5742,-2.5742,-2.502,-2.4196,-2.3791,-2.3384,-2.2868,-2.2458,-2.155,-2.0845,-2.0341,-1.9117,-1.8304,-1.8304,-1.7891,-1.7622,-1.7729,-1.7929,-1.813,-1.833,-1.8711,-1.8965,-1.9065,-1.9265,-1.9366,-1.9366,-1.9366,-1.9366,-1.9366,-1.9366,-1.9366,-1.9366,-1.9366,-1.9419,-2.1941,-2.1269,0.0,-1.9575,-1.867,0.0,-1.6699,0.0,-1.6944,0.0,0.0,0.0,0.0,0.0,0.0,0.0,0.0,0.0,0.0,-1.2881,0.0,0.0,0.0,-1.4346,0.0,-1.4707,-1.5,-1.5176,-1.5166,-1.5605,0.0,0.0,-1.873,-1.9443,-2.0176,-2.0566,-2.0566,-2.1016,-2.123,-2.124,-2.1953,-2.2685,-2.3412,-2.501,-2.6039,-2.6771,-2.8036,-2.8211,-2.7522,-2.7522,-2.6871,-2.5797,-2.5126,-2.4729,-2.4635,-2.5094,-2.5187,-2.5137,-2.5586,-2.5742,-2.5742,-2.5742,-2.5742,-2.5742,-2.5742,-2.5742,-2.5742,-2.5742,-2.5742,-2.5742,-2.5742,-2.5742,-2.5742,-2.5742,-2.5742,-2.5742,-2.5742,-2.5742,-2.5538,-2.5118,-2.4304,-2.3384,-2.2366,-2.1558,-2.0939,-2.0939,-2.0128,-1.9428,-1.8909,-1.8094,-1.7582,-1.7582,-1.7582,-1.7582,-1.7582,-1.7762,-1.7929,-1.8036,-1.8404,-1.8657,-1.8764,-1.9052,-1.9205,-1.9205,-1.9312,-1.9366,-1.9366,-1.9366,-1.9366,-1.9366,-1.9366,-1.9127]},{"header":{"parameterUnit":"m.s-1","parameterCategory":1,"la1":30.6,"la2":29.2853,"lo1":-89.7004,"lo2":-87.6739,"dy":0.0162,"dx":0.0183,"nx":112,"ny":82,"refTime":"2026-03-24T00:00:00:Z","depth":0,"parameterNumber":3,"parameterNumberName":"V-component_of_WINDS"},"data":[0.0,0.0,0.0,0.0,0.0,0.0,0.0,0.0,0.0,0.0,0.0,0.0,0.0,0.0,0.0,0.0,0.0,0.0,0.0,0.0,0.0,0.0,0.0,0.0,0.0,0.0,0.0,0.0,0.0,0.0,0.0,0.0,0.0,0.0,0.0,0.0,0.0,0.0,0.0,0.0,0.0,0.0,0.0,0.0,0.0,0.0,0.0,0.0,0.0,0.0,0.0,0.0,0.0,0.0,0.0,0.0,0.0,0.0,0.0,0.0,0.0,0.0,0.0,0.0,0.0,0.0,0.0,0.0,0.0,0.0,0.0,0.0,0.0,0.0,0.0,0.0,0.0,0.0,0.0,0.0,0.0,0.0,0.0,0.0,0.0,0.0,0.0,0.0,0.0,0.0,-3.109,-3.2812,-3.4467,-3.4684,-3.2947,-3.1446,-2.9294,-2.6262,0.0,0.0,0.0,0.0,0.0,0.0,0.0,0.0,0.0,0.0,0.0,0.0,0.0,0.0,0.0,0.0,0.0,0.0,0.0,0.0,0.0,0.0,0.0,0.0,0.0,0.0,0.0,0.0,0.0,0.0,0.0,0.0,0.0,0.0,0.0,0.0,0.0,0.0,0.0,0.0,0.0,0.0,0.0,0.0,0.0,0.0,0.0,0.0,0.0,0.0,0.0,0.0,0.0,0.0,0.0,0.0,0.0,0.0,0.0,0.0,0.0,0.0,0.0,0.0,0.0,0.0,0.0,0.0,0.0,0.0,0.0,0.0,0.0,0.0,0.0,0.0,0.0,0.0,0.0,0.0,0.0,0.0,0.0,0.0,0.0,0.0,0.0,0.0,0.0,0.0,0.0,0.0,0.0,0.0,0.0,0.0,0.0,0.0,0.0,0.0,0.0,0.0,0.0,0.0,-3.19,-3.5621,-3.6228,-3.5679,-3.3945,-3.2471,-3.0502,-2.7924,0.0,0.0,0.0,0.0,0.0,0.0,0.0,0.0,0.0,0.0,0.0,0.0,0.0,0.0,0.0,0.0,0.0,0.0,0.0,0.0,0.0,0.0,0.0,0.0,0.0,0.0,0.0,0.0,0.0,0.0,0.0,0.0,0.0,0.0,0.0,0.0,0.0,0.0,0.0,0.0,0.0,0.0,0.0,0.0,0.0,0.0,0.0,0.0,0.0,0.0,0.0,0.0,0.0,0.0,0.0,0.0,0.0,0.0,0.0,0.0,0.0,0.0,0.0,0.0,0.0,0.0,0.0,0.0,0.0,0.0,0.0,0.0,0.0,0.0,0.0,0.0,0.0,0.0,0.0,0.0,0.0,0.0,0.0,0.0,0.0,0.0,0.0,0.0,0.0,0.0,0.0,0.0,0.0,0.0,0.0,0.0,0.0,0.0,0.0,0.0,0.0,0.0,0.0,-3.1718,-3.3399,-3.691,-3.7266,-3.6384,-3.4216,-3.31,-3.1261,-2.8297,-2.5948,0.0,0.0,0.0,0.0,0.0,0.0,0.0,0.0,0.0,0.0,0.0,0.0,0.0,0.0,0.0,0.0,0.0,0.0,0.0,0.0,0.0,0.0,0.0,0.0,0.0,0.0,0.0,0.0,0.0,0.0,0.0,0.0,0.0,0.0,0.0,0.0,0.0,0.0,0.0,0.0,0.0,0.0,0.0,0.0,0.0,0.0,0.0,0.0,0.0,0.0,0.0,0.0,0.0,0.0,0.0,0.0,0.0,0.0,0.0,0.0,0.0,0.0,0.0,0.0,0.0,0.0,0.0,0.0,0.0,0.0,0.0,0.0,0.0,0.0,0.0,0.0,0.0,0.0,0.0,0.0,0.0,0.0,0.0,0.0,0.0,0.0,0.0,0.0,0.0,0.0,0.0,0.0,0.0,0.0,0.0,0.0,0.0,0.0,0.0,0.0,0.0,0.0,-3.4346,-3.5399,-3.7818,-3.7921,-3.6933,-3.4787,-3.3427,-3.1483,-2.864,-2.6175,0.0,0.0,0.0,0.0,0.0,0.0,0.0,0.0,0.0,0.0,0.0,0.0,0.0,0.0,0.0,0.0,0.0,0.0,0.0,0.0,0.0,0.0,0.0,0.0,0.0,0.0,0.0,0.0,0.0,0.0,0.0,0.0,0.0,0.0,0.0,0.0,0.0,0.0,0.0,0.0,0.0,0.0,0.0,0.0,0.0,0.0,0.0,0.0,0.0,0.0,0.0,0.0,0.0,0.0,0.0,0.0,0.0,0.0,0.0,0.0,0.0,0.0,0.0,0.0,0.0,0.0,0.0,0.0,0.0,0.0,0.0,0.0,0.0,0.0,0.0,0.0,0.0,0.0,0.0,0.0,0.0,0.0,0.0,0.0,0.0,0.0,0.0,0.0,0.0,0.0,0.0,0.0,0.0,0.0,0.0,0.0,0.0,0.0,0.0,0.0,0.0,0.0,-3.5231,-3.7901,-3.8743,-3.8206,-3.744,-3.6477,-3.3232,-3.0756,-2.959,-2.564,0.0,0.0,0.0,0.0,0.0,0.0,0.0,0.0,0.0,0.0,0.0,0.0,0.0,0.0,0.0,0.0,0.0,0.0,0.0,0.0,0.0,0.0,0.0,0.0,0.0,0.0,0.0,0.0,0.0,0.0,0.0,0.0,0.0,0.0,0.0,0.0,0.0,0.0,0.0,0.0,0.0,0.0,0.0,0.0,0.0,0.0,0.0,0.0,0.0,0.0,0.0,0.0,0.0,0.0,0.0,0.0,0.0,0.0,0.0,0.0,0.0,0.0,0.0,0.0,0.0,0.0,0.0,0.0,0.0,0.0,0.0,0.0,0.0,0.0,0.0,0.0,0.0,0.0,0.0,0.0,0.0,0.0,0.0,0.0,0.0,0.0,0.0,0.0,0.0,0.0,0.0,0.0,0.0,0.0,0.0,0.0,0.0,0.0,0.0,0.0,0.0,0.0,-3.4483,-3.7079,-3.8714,-3.8246,-3.7456,-3.6676,-3.4901,-3.2611,-2.9774,0.0,0.0,0.0,0.0,0.0,0.0,0.0,0.0,0.0,0.0,0.0,0.0,0.0,0.0,0.0,0.0,0.0,0.0,0.0,0.0,0.0,0.0,0.0,0.0,0.0,0.0,0.0,0.0,0.0,0.0,0.0,0.0,0.0,0.0,0.0,0.0,0.0,0.0,0.0,0.0,0.0,0.0,0.0,0.0,0.0,0.0,0.0,0.0,0.0,0.0,0.0,0.0,0.0,0.0,0.0,0.0,0.0,0.0,0.0,0.0,0.0,0.0,0.0,0.0,0.0,0.0,0.0,0.0,0.0,0.0,0.0,0.0,0.0,0.0,0.0,0.0,0.0,0.0,0.0,0.0,0.0,0.0,0.0,0.0,0.0,0.0,0.0,0.0,0.0,0.0,0.0,0.0,0.0,0.0,0.0,0.0,0.0,0.0,0.0,0.0,0.0,0.0,-3.125,-3.4576,-3.7444,-3.9415,-3.8715,-3.7987,-3.7651,-3.5719,-3.3125,-2.9789,0.0,0.0,0.0,0.0,0.0,0.0,0.0,0.0,0.0,0.0,0.0,0.0,0.0,0.0,0.0,0.0,0.0,0.0,0.0,0.0,0.0,0.0,0.0,0.0,0.0,0.0,0.0,0.0,0.0,0.0,0.0,0.0,0.0,0.0,0.0,0.0,0.0,0.0,0.0,0.0,0.0,0.0,0.0,0.0,0.0,0.0,0.0,0.0,0.0,0.0,0.0,0.0,0.0,0.0,0.0,0.0,0.0,0.0,0.0,0.0,0.0,0.0,0.0,0.0,0.0,0.0,0.0,0.0,0.0,0.0,0.0,0.0,0.0,0.0,0.0,0.0,0.0,0.0,0.0,0.0,0.0,0.0,0.0,0.0,0.0,0.0,0.0,0.0,0.0,0.0,0.0,0.0,0.0,0.0,0.0,0.0,0.0,0.0,0.0,0.0,0.0,0.0,-3.1123,-3.5774,-3.958,-4.1068,-3.9804,-3.915,-3.9822,-3.5397,-3.1689,0.0,0.0,0.0,0.0,0.0,0.0,0.0,0.0,0.0,0.0,0.0,0.0,0.0,0.0,0.0,0.0,0.0,0.0,0.0,0.0,0.0,0.0,0.0,0.0,0.0,0.0,0.0,0.0,0.0,0.0,0.0,0.0,0.0,0.0,0.0,0.0,0.0,0.0,0.0,0.0,0.0,0.0,0.0,0.0,0.0,0.0,0.0,0.0,0.0,0.0,0.0,0.0,0.0,0.0,0.0,0.0,0.0,0.0,0.0,0.0,0.0,0.0,0.0,0.0,0.0,0.0,0.0,0.0,0.0,0.0,0.0,0.0,0.0,0.0,0.0,0.0,0.0,0.0,0.0,0.0,0.0,0.0,0.0,0.0,0.0,0.0,0.0,0.0,0.0,0.0,0.0,0.0,0.0,0.0,0.0,0.0,0.0,0.0,0.0,0.0,0.0,0.0,0.0,-3.1867,-3.6992,-4.0916,-4.1863,-4.11,-4.0582,-4.0794,-3.7575,-3.4187,-3.1134,0.0,0.0,0.0,0.0,0.0,0.0,0.0,0.0,0.0,0.0,0.0,0.0,0.0,0.0,0.0,0.0,0.0,0.0,0.0,0.0,0.0,0.0,0.0,0.0,0.0,0.0,0.0,0.0,0.0,0.0,0.0,0.0,0.0,0.0,0.0,0.0,0.0,0.0,0.0,0.0,0.0,0.0,0.0,0.0,0.0,0.0,0.0,0.0,0.0,0.0,0.0,0.0,0.0,0.0,0.0,0.0,0.0,0.0,0.0,0.0,0.0,0.0,0.0,0.0,0.0,0.0,0.0,0.0,0.0,0.0,0.0,0.0,0.0,0.0,0.0,0.0,0.0,0.0,0.0,0.0,0.0,0.0,0.0,0.0,0.0,0.0,0.0,0.0,0.0,0.0,0.0,0.0,0.0,0.0,0.0,0.0,0.0,0.0,0.0,0.0,0.0,0.0,-3.2594,-3.7686,-4.161,-4.2642,-4.2032,-4.1733,-4.203,-3.9317,-3.6131,-3.2608,0.0,0.0,0.0,0.0,0.0,0.0,0.0,0.0,0.0,0.0,0.0,0.0,0.0,0.0,0.0,0.0,0.0,0.0,0.0,0.0,0.0,0.0,0.0,0.0,0.0,0.0,0.0,0.0,0.0,0.0,0.0,0.0,0.0,0.0,0.0,0.0,0.0,0.0,0.0,0.0,0.0,0.0,0.0,0.0,0.0,0.0,0.0,0.0,0.0,0.0,0.0,0.0,0.0,0.0,0.0,0.0,0.0,0.0,0.0,0.0,0.0,0.0,0.0,0.0,0.0,0.0,0.0,0.0,0.0,0.0,0.0,0.0,0.0,0.0,0.0,0.0,0.0,0.0,0.0,0.0,0.0,0.0,0.0,0.0,0.0,0.0,0.0,0.0,0.0,0.0,0.0,0.0,0.0,0.0,0.0,0.0,0.0,0.0,0.0,0.0,0.0,0.0,-3.3305,-3.8075,-4.188,-4.3369,-4.2856,-4.2699,-4.3376,-4.0804,-3.7649,-3.4194,0.0,0.0,0.0,0.0,0.0,0.0,0.0,0.0,0.0,0.0,0.0,0.0,0.0,0.0,0.0,0.0,0.0,0.0,0.0,0.0,0.0,0.0,0.0,0.0,0.0,0.0,0.0,0.0,0.0,0.0,0.0,0.0,0.0,0.0,0.0,0.0,0.0,0.0,0.0,0.0,0.0,0.0,0.0,0.0,0.0,0.0,0.0,0.0,0.0,0.0,0.0,0.0,0.0,0.0,0.0,0.0,0.0,0.0,0.0,0.0,-2.6285,0.0,0.0,0.0,0.0,0.0,0.0,0.0,0.0,0.0,0.0,0.0,0.0,0.0,0.0,0.0,0.0,0.0,0.0,0.0,0.0,0.0,0.0,0.0,0.0,0.0,0.0,0.0,0.0,0.0,0.0,0.0,0.0,0.0,0.0,0.0,0.0,0.0,0.0,0.0,0.0,0.0,-3.3998,-3.8819,-4.2642,-4.4164,-4.4204,-4.4142,-4.431,-4.2169,-3.9445,-3.6346,-3.2706,0.0,0.0,0.0,0.0,0.0,0.0,0.0,0.0,0.0,0.0,0.0,0.0,0.0,0.0,0.0,0.0,0.0,0.0,0.0,0.0,0.0,0.0,0.0,0.0,0.0,0.0,0.0,0.0,0.0,0.0,0.0,0.0,0.0,0.0,0.0,0.0,0.0,0.0,0.0,0.0,0.0,0.0,0.0,0.0,0.0,0.0,0.0,0.0,0.0,0.0,0.0,0.0,0.0,0.0,0.0,0.0,0.0,0.0,0.0,0.0,-2.8311,0.0,0.0,0.0,0.0,0.0,0.0,0.0,0.0,0.0,0.0,0.0,0.0,0.0,0.0,0.0,0.0,0.0,0.0,0.0,0.0,0.0,0.0,0.0,0.0,0.0,0.0,0.0,0.0,0.0,0.0,0.0,0.0,0.0,0.0,0.0,0.0,0.0,0.0,0.0,0.0,-3.5216,-3.9512,-4.2878,-4.4418,-4.4587,-4.4587,-4.4587,-4.3194,-4.1208,-3.8565,-3.5203,0.0,0.0,0.0,0.0,0.0,0.0,0.0,0.0,0.0,0.0,0.0,0.0,0.0,0.0,0.0,0.0,0.0,0.0,0.0,0.0,0.0,0.0,0.0,0.0,0.0,0.0,0.0,0.0,0.0,0.0,0.0,0.0,0.0,0.0,0.0,0.0,0.0,0.0,0.0,0.0,0.0,0.0,0.0,0.0,0.0,0.0,0.0,0.0,0.0,0.0,0.0,0.0,0.0,-3.1658,-3.2608,-3.4347,-3.4454,-3.5233,-3.6274,-3.3888,-3.287,-3.2744,-3.0761,0.0,0.0,0.0,0.0,0.0,0.0,0.0,0.0,0.0,0.0,0.0,0.0,0.0,0.0,0.0,0.0,0.0,0.0,0.0,0.0,0.0,0.0,0.0,0.0,-3.7398,-3.7483,0.0,0.0,0.0,0.0,0.0,0.0,0.0,0.0,0.0,0.0,0.0,0.0,-3.6502,-4.0206,-4.3014,-4.4434,-4.4587,-4.4587,-4.4587,-4.3995,-4.2726,-4.0629,-3.7922,-3.5402,0.0,0.0,0.0,0.0,0.0,0.0,0.0,0.0,0.0,0.0,0.0,0.0,0.0,0.0,0.0,0.0,0.0,0.0,0.0,0.0,0.0,0.0,0.0,0.0,0.0,0.0,0.0,0.0,0.0,0.0,0.0,0.0,-1.9525,-1.9213,0.0,0.0,0.0,0.0,0.0,0.0,0.0,0.0,0.0,0.0,0.0,0.0,0.0,-3.0166,-3.1497,-3.291,-3.4044,-3.4916,-3.655,-3.7743,-3.8597,-3.9238,-3.9899,-4.0574,-4.0212,0.0,-3.5638,-3.4332,0.0,0.0,0.0,0.0,0.0,0.0,0.0,0.0,0.0,0.0,0.0,0.0,0.0,0.0,0.0,0.0,0.0,0.0,0.0,0.0,0.0,0.0,-4.2236,-4.2236,-4.1982,-4.1525,0.0,-3.6113,-3.1681,-3.0649,-2.8958,0.0,0.0,0.0,0.0,0.0,0.0,0.0,-3.7394,-4.0984,-4.3606,-4.4485,-4.4587,-4.4587,-4.4587,-4.4485,-4.3741,-4.21,-4.0443,-3.8514,-3.6282,-3.3288,0.0,0.0,0.0,0.0,0.0,0.0,0.0,0.0,0.0,0.0,0.0,0.0,0.0,0.0,0.0,0.0,0.0,0.0,0.0,0.0,0.0,0.0,0.0,0.0,0.0,0.0,0.0,0.0,0.0,-2.0424,-1.9717,-1.9768,-2.1004,-2.1611,0.0,0.0,0.0,0.0,0.0,0.0,0.0,0.0,0.0,-3.1402,-3.2197,-3.3578,-3.5646,-3.6745,-3.7958,-3.9364,-4.0217,-4.1175,-4.2177,-4.2476,-4.2955,-4.3554,-4.3195,-4.1942,-4.0078,-3.7679,-3.5381,-3.3152,0.0,0.0,0.0,0.0,-3.3398,-3.3645,-3.8003,-3.8802,0.0,-3.8091,0.0,0.0,0.0,0.0,0.0,0.0,0.0,0.0,0.0,0.0,-4.3521,-4.3961,-4.3826,-4.3572,-4.3572,-4.0595,-3.7195,0.0,-3.3186,-3.1309,-2.8467,0.0,0.0,0.0,0.0,-3.5946,-3.8783,-4.1644,-4.3724,-4.4485,-4.4587,-4.4587,-4.4587,-4.4587,-4.4113,-4.2997,-4.1931,-4.0713,-3.9326,-3.64,-3.3947,0.0,0.0,0.0,0.0,0.0,0.0,0.0,0.0,0.0,0.0,0.0,0.0,0.0,0.0,0.0,0.0,0.0,0.0,0.0,0.0,0.0,0.0,0.0,0.0,0.0,0.0,0.0,0.0,-2.1377,-2.0889,-2.144,-2.371,-2.3999,0.0,0.0,0.0,0.0,0.0,0.0,-3.0072,-3.1222,-3.2886,-3.519,-3.6058,-3.7584,-3.9888,-4.0247,-4.125,-4.2865,-4.2865,-4.3464,-4.4571,-4.4751,-4.5185,-4.5768,-4.511,-4.4556,-4.3838,-4.0516,-3.8108,-3.6387,-3.5205,-3.4053,-3.3397,-3.6456,-3.7412,-3.7738,-4.2109,-4.3322,-4.2794,-4.2286,0.0,-3.9868,-3.6874,0.0,0.0,0.0,0.0,-4.0155,-4.254,-4.3724,-4.4434,-4.501,-4.501,-4.4874,-4.4874,-4.3656,-4.1711,0.0,-3.7263,-3.5368,-3.1867,0.0,0.0,0.0,0.0,-3.7827,-4.0358,-4.2439,-4.3944,-4.4519,-4.4587,-4.4587,-4.4587,-4.4587,-4.4333,-4.3741,-4.3183,-4.254,-4.1796,-3.9462,-3.7297,-3.5402,0.0,0.0,0.0,0.0,0.0,0.0,0.0,0.0,0.0,0.0,0.0,0.0,0.0,0.0,0.0,0.0,0.0,0.0,0.0,0.0,0.0,0.0,0.0,0.0,0.0,0.0,0.0,0.0,0.0,-2.594,-2.8135,0.0,0.0,0.0,0.0,-2.9783,-2.9957,-3.0754,-3.2622,-3.6049,-3.8586,-4.0008,-4.1294,-4.2626,-4.4003,-4.3434,-4.3494,-4.4212,-4.4212,-4.4571,-4.5274,-4.5918,-4.6591,-4.716,-4.6516,-4.6202,-4.5918,-4.2596,-4.0442,-3.9155,-3.8422,-3.7719,-3.7331,-3.8888,-4.0022,-4.1096,-4.3473,-4.4373,-4.4807,-4.6853,-4.6058,-4.413,-4.32,-4.1897,0.0,0.0,-4.3064,-4.4451,-4.5314,-4.6075,-4.6633,-4.6667,-4.6143,-4.5652,-4.5652,-4.4434,-4.3098,0.0,-4.029,-3.8531,-3.7618,0.0,-3.7082,-3.7445,-3.9204,-4.0874,-4.2035,-4.3555,-4.4536,-4.4587,-4.4587,-4.4587,-4.4587,-4.4587,-4.4553,-4.4519,-4.4485,-4.4113,-4.3335,-4.2472,-4.0663,-3.7787,-3.4742,0.0,0.0,0.0,0.0,0.0,0.0,0.0,0.0,0.0,0.0,0.0,0.0,0.0,0.0,0.0,0.0,0.0,0.0,0.0,0.0,0.0,0.0,0.0,0.0,0.0,0.0,0.0,0.0,-2.8685,-2.8071,0.0,-2.9567,-2.9631,-3.0392,-3.2345,-3.3859,-3.5052,-3.5956,-3.8402,-4.0543,-4.2175,-4.315,-4.4257,-4.5589,-4.5379,-4.5589,-4.6232,-4.6232,-4.6367,-4.6606,-4.6845,-4.7085,-4.7264,-4.6606,-4.6322,-4.6202,-4.4571,-4.312,-4.1878,-4.1205,-4.0546,-4.0184,-4.1715,-4.2498,-4.3179,-4.5554,-4.648,-4.6662,-4.7602,-4.6735,-4.5246,-4.4976,-4.4181,-4.3623,-4.484,-4.5585,-4.6278,-4.7513,-4.7682,-4.7513,-4.7513,-4.6938,-4.6278,-4.5805,-4.528,-4.4671,-4.391,-4.2337,-4.073,-3.9529,-3.961,-3.9557,-3.8749,-4.0391,-4.2056,-4.2878,-4.3927,-4.4587,-4.4587,-4.4587,-4.4587,-4.4587,-4.4587,-4.4367,-4.3859,-4.3826,-4.3487,-4.2726,-4.1982,-4.0865,-3.9343,-3.6857,-3.4057,0.0,0.0,0.0,0.0,0.0,0.0,0.0,0.0,0.0,0.0,0.0,0.0,0.0,0.0,0.0,0.0,0.0,0.0,0.0,0.0,0.0,0.0,0.0,0.0,0.0,0.0,-3.2646,-3.2071,-3.0057,-2.9999,-3.3297,-3.2645,-3.2624,-3.4101,-3.6108,-3.7465,-3.8139,-4.0467,-4.2495,-4.3907,-4.4855,-4.5753,-4.6651,-4.6426,-4.6546,-4.698,-4.698,-4.698,-4.698,-4.7204,-4.7309,-4.7279,-4.6845,-4.6651,-4.6606,-4.5918,-4.5125,-4.4272,-4.3614,-4.2955,-4.2494,-4.3564,-4.4018,-4.4455,-4.6789,-4.7803,-4.8077,-4.8242,-4.7614,-4.6819,-4.6819,-4.6464,-4.6278,-4.7259,-4.753,-4.7716,-4.8443,-4.8291,-4.7851,-4.7597,-4.7158,-4.6667,-4.6177,-4.5889,-4.5568,-4.506,-4.3927,-4.276,-4.1796,-4.2016,-4.2016,-4.1035,-4.2134,-4.3234,-4.3741,-4.4265,-4.4587,-4.4587,-4.4587,-4.4587,-4.4587,-4.4333,-4.4079,-4.3826,-4.3335,-4.2811,-4.2303,-4.1593,-4.0747,-3.9732,-3.7716,-3.5363,-3.2669,0.0,0.0,0.0,0.0,0.0,0.0,0.0,0.0,0.0,0.0,0.0,0.0,0.0,0.0,0.0,0.0,0.0,0.0,0.0,0.0,0.0,0.0,0.0,-2.4939,-2.8791,-3.3353,-3.6004,-3.447,-3.355,-3.4624,-3.3783,-3.3779,-3.5258,-3.6599,-3.7859,-3.9029,-4.2491,-4.4647,-4.5349,-4.6621,-4.7309,-4.7309,-4.6681,-4.6352,-4.6352,-4.6352,-4.6352,-4.6367,-4.701,-4.7309,-4.7309,-4.7309,-4.7309,-4.7249,-4.6621,-4.6352,-4.6277,-4.5574,-4.49,-4.4347,-4.4347,-4.4549,-4.5157,-4.6932,-4.8194,-4.8956,-4.894,-4.9001,-4.9001,-4.9001,-4.9001,-4.9001,-4.9001,-4.9001,-4.8849,-4.8139,-4.7953,-4.7767,-4.7039,-4.6853,-4.6853,-4.6836,-4.6244,-4.5737,-4.5703,-4.5094,-4.4587,-4.4587,-4.4587,-4.4587,-4.4587,-4.4587,0.0,-4.4587,-4.4587,-4.4587,-4.4587,-4.4587,-4.4587,-4.4587,-4.3893,-4.3758,-4.4468,-4.3081,-4.2252,-4.2219,-4.1525,-4.0476,-3.9105,-3.7395,-3.589,-3.4532,0.0,0.0,0.0,0.0,0.0,0.0,0.0,0.0,0.0,0.0,0.0,0.0,0.0,0.0,0.0,0.0,0.0,0.0,0.0,0.0,0.0,-3.1593,-3.1817,-2.9632,-3.2152,-3.4328,-3.4636,-3.4432,-3.4489,-3.5076,-3.5378,-3.5621,-3.6075,-3.7553,-3.9233,-4.0887,-4.2689,-4.4481,-4.5968,-4.686,-4.7309,-4.7309,-4.713,-4.704,-4.704,-4.704,-4.704,-4.704,-4.7219,-4.7309,-4.7309,-4.7309,-4.7309,-4.7294,-4.7115,-4.704,-4.692,-4.5753,-4.5185,-4.5035,-4.5035,-4.5505,-4.616,-4.6237,-4.7281,-4.8647,-4.8116,-4.8433,-4.9001,-4.9001,-4.9001,-4.9001,-4.9001,-4.9001,-4.8951,-4.8748,-4.8714,-4.8663,-4.8443,-4.8392,-4.8257,-4.7716,-4.7022,-4.6346,-4.5805,-4.5094,-4.4587,-4.4587,-4.4587,-4.4587,-4.4587,-4.4587,0.0,-4.4587,-4.4587,-4.4587,-4.4587,-4.4587,-4.4587,-4.4587,-4.4384,-4.3876,-4.298,-4.2033,-4.1255,-4.0713,-3.9986,-3.9861,-4.0345,-3.8632,-3.7458,0.0,0.0,0.0,0.0,0.0,0.0,0.0,0.0,0.0,0.0,0.0,0.0,0.0,0.0,0.0,0.0,0.0,0.0,0.0,0.0,0.0,0.0,-3.3871,-3.5263,-3.6318,-3.5776,-3.5627,-3.6372,-3.5817,-3.5634,-3.6054,-3.6477,-3.6709,-3.6709,-3.8375,-4.004,-4.1617,-4.3319,-4.492,-4.6252,-4.6965,-4.7309,-4.7309,-4.7578,-4.7578,-4.7309,-4.7578,-4.7578,-4.7309,-4.7309,-4.7309,0.0,-4.7309,-4.7309,-4.7309,-4.7309,-4.7309,0.0,0.0,0.0,0.0,0.0,-4.5885,-4.6718,-4.6776,-4.7806,-4.9006,-4.8761,-4.903,-4.9407,-4.9086,-4.9001,-4.9001,-4.9001,-4.9001,-4.9001,-4.9001,-4.9001,-4.9001,-4.9001,-4.9001,-4.8883,-4.846,-4.7784,-4.7039,-4.6295,-4.5568,0.0,-4.4621,-4.4587,-4.4587,-4.4587,-4.4587,-4.4587,-4.4587,-4.4587,-4.4587,-4.4587,-4.4587,-4.4587,-4.4587,-4.4282,0.0,0.0,0.0,-4.073,-3.9665,-3.892,0.0,0.0,0.0,0.0,0.0,0.0,0.0,0.0,-3.779,-3.7386,0.0,0.0,0.0,0.0,0.0,0.0,0.0,0.0,0.0,0.0,0.0,0.0,0.0,0.0,0.0,0.0,-3.6451,-4.0274,-4.277,-3.9281,-3.7362,-3.9534,-3.7964,-3.6919,-3.7316,-3.748,-3.7615,-3.7731,-3.9311,-4.087,-4.2084,0.0,0.0,0.0,0.0,-4.7414,-4.7414,-4.8072,-4.8102,-4.7534,-4.8117,-4.8087,-4.7534,-4.7534,-4.7489,-4.7414,-4.7414,-4.7369,-4.7309,-4.7309,-4.7309,-4.7309,-4.7309,-4.695,-4.6367,-4.5738,-4.6046,-4.6933,-4.7906,0.0,0.0,-4.9955,-5.0088,-4.9965,-4.9323,-4.9069,-4.9001,-4.9001,-4.9001,-4.9001,-4.9001,-4.9001,-4.9001,-4.9001,-4.9001,-4.9001,-4.9001,-4.8426,-4.7699,-4.6938,-4.621,-4.5466,-4.4705,-4.4587,-4.4587,-4.4587,-4.4587,-4.4587,-4.4587,-4.4587,-4.4587,-4.4587,0.0,0.0,-4.4587,-4.3944,-4.3809,-4.4418,-4.2489,-4.0696,-3.9309,-3.87,-3.899,-4.0205,-4.1499,-4.2803,-4.4083,-4.5437,-4.6084,-4.6029,-4.0235,-3.9423,0.0,0.0,0.0,0.0,0.0,0.0,0.0,0.0,0.0,0.0,0.0,0.0,0.0,0.0,0.0,-3.9764,-3.8978,-3.918,-4.1485,-4.1386,-4.0741,-3.9875,-3.8946,-3.8501,-3.8512,-3.9468,-4.0301,-4.0825,-4.207,-4.3332,-4.4667,-4.5168,-4.5914,-4.7028,-4.7758,-4.8102,-4.8102,-4.8745,-4.9015,-4.888,0.0,0.0,-4.888,-4.888,-4.8596,-4.8102,-4.8102,-4.7803,-4.7309,-4.7309,-4.7309,-4.7309,-4.7309,-4.7234,-4.71,-4.6965,-4.6991,-4.7211,-4.7738,-4.8525,-4.9466,-4.9763,-5.0007,-5.0067,-4.9915,-4.9475,0.0,-4.9001,-4.9001,-4.9001,-4.9001,-4.9001,-4.9001,-4.9001,-4.9001,-4.9001,-4.9001,-4.8426,-4.7699,-4.6938,-4.621,-4.5466,-4.4705,-4.4587,-4.4587,-4.4587,-4.4587,-4.4587,-4.4587,-4.4587,-4.4587,-4.4587,-4.4587,-4.4587,-4.4587,-4.4451,-4.4147,-4.3673,-4.2658,-4.1677,-4.0815,-4.1204,-4.2074,-4.3385,-4.369,-4.4467,-4.5811,-4.6629,-4.7343,-4.7965,-4.5953,-4.5443,0.0,0.0,0.0,0.0,0.0,0.0,0.0,0.0,0.0,0.0,0.0,-3.0002,-3.3261,0.0,-4.2105,-4.4886,-4.2596,-4.1121,-4.3021,-4.3289,-4.2854,-4.1736,-4.1127,-4.0653,-4.0356,-4.114,-4.1705,-4.175,-4.3195,-4.4407,-4.5389,-4.5973,-4.6786,-4.7788,-4.8117,-4.8446,-4.8775,-4.9434,-4.9583,-4.9269,-4.9598,-4.9583,-4.9269,-4.9269,-4.909,-4.876,-4.8431,-4.8102,-4.7773,-4.7444,-4.7309,-4.7309,-4.7309,-4.7309,-4.7309,-4.7309,-4.7609,-4.8179,-4.884,-4.9793,-5.0652,-5.0955,-5.1127,-5.1133,-5.076,-5.0135,-4.9543,-4.9543,-4.9289,-4.9001,-4.9001,-4.9001,-4.9001,-4.9001,-4.9001,-4.9001,-4.9001,-4.8714,-4.824,-4.7496,-4.7056,-4.6464,-4.5331,-4.5145,-4.501,-4.4637,-4.4587,-4.4587,-4.4587,-4.4587,-4.4587,-4.4587,-4.4587,-4.4587,-4.4587,-4.4587,-4.4248,-4.347,-4.3064,-4.2692,-4.2337,-4.2658,-4.3549,-4.4998,-4.5284,-4.6115,-4.7537,-4.8181,-4.9079,-5.0259,-4.9783,-4.9352,0.0,0.0,0.0,0.0,0.0,0.0,0.0,-3.09,-3.5097,-3.4824,-3.5237,-3.6683,-3.9967,-4.1971,-4.4375,-4.8031,-4.5546,-4.3754,-4.5097,-4.4861,-4.4392,-4.4036,-4.3395,-4.2781,-4.2293,-4.2795,-4.3076,-4.2654,-4.4191,-4.5331,-4.575,-4.6726,-4.7549,-4.8072,-4.8341,-4.873,-4.9254,-5.0047,-5.0167,-4.9658,-5.0182,-5.0152,-4.9643,-4.9643,-4.9568,-4.9419,-4.8626,-4.8222,-4.8057,-4.7519,-4.7309,-4.7309,-4.7309,-4.7467,-4.7538,-4.7381,-4.7919,-4.8988,-5.0009,-5.108,-5.1966,-5.2438,-5.2435,-5.2198,-5.1606,-5.0794,-5.0084,-5.0084,-4.956,-4.9001,-4.9001,-4.9001,-4.9001,-4.9001,-4.9001,-4.9001,-4.9001,-4.9001,-4.8781,-4.8054,-4.7919,-4.7496,-4.6143,-4.5788,-4.5449,-4.4688,-4.4587,-4.4587,-4.4587,-4.4587,-4.4587,-4.4587,-4.4587,-4.4587,-4.4587,-4.4587,-4.4316,-4.3673,-4.3639,-4.3639,-4.3639,-4.3775,-4.4519,-4.5889,-4.6508,-4.7595,-4.9025,-4.9668,-5.0697,-5.2011,-5.2174,-5.1885,-2.8559,-2.7045,-2.5466,-2.8511,-2.7063,-2.5769,0.0,-3.1982,-3.4779,-3.7578,-4.0433,-4.3387,-4.6617,-4.6735,-4.6473,-4.7073,-4.5828,-4.5001,-4.5583,-4.5354,-4.5341,-4.5943,-4.4967,-4.4156,-4.4085,-4.4733,-4.5312,-4.5705,-4.6542,-4.7031,-4.7106,-4.7207,-4.7339,-4.7414,-4.8551,-4.9194,-4.9269,-5.0496,-5.1065,-5.1005,-5.1079,-5.1065,-5.1005,-5.1005,-5.0676,-5.0062,-4.882,-4.7952,-4.7414,-4.7339,-4.7309,-4.7309,-4.7309,-4.7834,-4.8512,-4.7609,-4.7919,-4.8988,-5.0009,-5.108,-5.2065,-5.3078,-5.2892,-5.2283,-5.2198,-5.12,-5.0084,-5.0084,-4.956,-4.9001,-4.9001,-4.9001,-4.9001,-4.9001,-4.9001,-4.9001,-4.9001,-4.9001,-4.8781,-4.8054,-4.7919,-4.7648,-4.6819,-4.6126,-4.5449,-4.4688,-4.4587,-4.4587,-4.4587,-4.4587,-4.4587,-4.4587,-4.4587,-4.4587,-4.4587,-4.4587,-4.4536,-4.4451,-4.4451,-4.4451,-4.4451,-4.5094,-4.5838,-4.665,-4.7369,-4.8429,-4.9886,-5.0612,-5.1329,-5.208,-5.2747,-5.3023,-2.7045,-2.6381,-2.6123,-2.9554,-3.0089,-3.0751,-3.4407,-3.7426,-4.0365,-4.362,-4.5366,-4.6685,-4.8059,-4.7625,-4.728,0.0,-4.7154,-4.6597,-4.6592,-4.6377,-4.6087,-4.5762,-4.5613,-4.5491,-4.5491,-4.6065,-4.646,-4.6282,-4.6935,-4.7309,-4.7309,-4.7309,-4.7653,-4.8416,-4.8985,-4.9628,-5.0391,-5.0945,-5.1214,-5.1214,-5.1214,-5.1214,-5.1214,-5.1214,-5.0661,-4.9643,-4.909,-4.8267,-4.7309,-4.7309,-4.7593,-4.8141,-4.8141,-4.8841,-4.9615,-4.8527,-4.9215,-5.0687,-5.1155,-5.1938,-5.2886,-5.3348,-5.3281,-5.301,-5.301,-5.2232,-5.1386,-5.1386,-5.0541,-4.9644,-4.9644,-4.9323,-4.9001,-4.9001,-4.9001,-4.9001,-4.9001,-4.9001,-4.8917,-4.8612,-4.8545,-4.8325,-4.7581,-4.7192,-4.6735,-4.5974,-4.5128,-4.4587,-4.4587,-4.4587,-4.4587,-4.4587,-4.4587,-4.4587,-4.4587,-4.4587,-4.4587,-4.4587,-4.4587,-4.4773,-4.5213,-4.5551,-4.6058,-4.6786,-4.753,-4.8362,-4.9357,-5.0541,-5.1444,-5.2112,-5.2875,-5.3206,-2.531,-2.6002,-2.7444,-3.0565,-3.3245,-3.6016,-3.9277,-4.1835,-4.4147,-4.6498,-4.699,-4.7241,-4.8126,-4.7731,-4.7541,-4.8592,-4.8235,-4.7704,-4.7221,-4.7051,-4.6511,-4.5455,-4.5738,-4.6112,-4.6307,-4.692,-4.7115,-4.6636,-4.704,-4.7309,-4.7309,-4.7309,-4.7818,-4.8955,-4.9164,-4.9808,-5.093,-5.1124,-5.1214,-5.1214,-5.1214,-5.1214,-5.1214,-5.1214,-5.0601,-4.9523,-4.9344,-4.8626,-4.7563,-4.7384,-4.7764,-4.8444,-4.8677,-4.9296,-4.9931,-4.9758,-5.0595,-5.1921,-5.1921,-5.2627,-5.3501,-5.3501,-5.3501,-5.3501,-5.3501,-5.2942,-5.23,-5.23,-5.1234,-5.0084,-5.0084,-4.9543,-4.9001,-4.9001,-4.9001,-4.9001,-4.9001,-4.9001,-4.9001,-4.9001,-4.9001,-4.8832,-4.8308,-4.8054,-4.7733,-4.7175,-4.6007,-4.5111,-4.4925,-4.4705,-4.4587,-4.4587,-4.4587,-4.4587,-4.4587,-4.4587,-4.4587,-4.4587,-4.4587,-4.4823,-4.5365,-4.5788,-4.6244,-4.6786,-4.7733,-4.8498,-4.9201,-5.0291,-5.1241,-5.2112,-5.2662,-5.2999,-2.5297,-2.7717,-3.08,-3.3134,-3.6131,-3.9398,-4.2613,-4.3449,-4.3523,-4.3605,-4.3629,-4.4618,-4.7739,-4.7583,-4.7357,-4.8519,-4.8592,-4.8161,-4.7348,-4.7051,-4.6511,-4.5455,-4.5319,-4.5589,0.0,-4.692,-4.7294,-4.7279,-4.7294,-4.7309,-4.7309,-4.7309,-4.7623,-4.8297,-4.894,-4.9583,-5.0257,-5.09,-5.1214,-5.1214,-5.1214,-5.1214,-5.1214,-5.1214,-5.0855,-5.0167,-4.9538,-4.888,-4.8207,-4.7563,-4.7309,-4.7452,-4.8444,-4.8825,-4.9054,-5.1064,-5.1849,-5.1921,-5.1921,-5.2627,-5.3501,-5.3501,-5.3501,-5.3501,-5.3501,-5.2942,-5.23,-5.23,-5.1234,-5.0084,-5.0084,-4.9543,-4.9001,-4.9001,-4.9001,-4.9001,-4.9001,-4.9001,-4.9001,-4.9001,-4.9001,-4.9001,-4.8968,-4.8392,-4.7919,-4.7885,-4.7225,-4.6464,-4.5771,-4.5026,-4.4587,-4.4587,-4.4587,-4.4587,-4.4587,-4.4587,-4.4587,-4.4587,-4.4587,-4.4587,-4.4604,-4.5991,-4.6769,-4.6786,-4.8223,-4.9282,-4.9998,-5.0016,-5.0752,-5.2112,-5.2112,-5.2509,-2.8074,-3.0639,-3.3368,-3.6304,-3.7887,-3.9528,-4.276,-4.3487,-4.3518,-4.3486,-4.3485,-4.4051,-4.5836,-4.7084,-4.7857,-4.7886,-4.9191,-4.9683,-4.8007,-4.8227,-4.7746,-4.5567,-4.4674,0.0,0.0,0.0,0.0,-4.6033,-4.6829,-4.6931,-4.6062,-4.6829,-4.7803,-4.8895,-4.9149,-4.9793,-5.087,-5.1109,-5.1214,-5.1214,-5.1214,-5.1214,-5.1214,-5.1214,-5.0631,-4.9583,-4.9359,-4.8641,-4.7623,-4.7399,-4.7679,-4.8293,-4.8677,-4.9215,-4.9931,-5.0627,-5.132,-5.1993,-5.2714,-5.3195,-5.3501,-5.3501,-5.3501,-5.3501,-5.3501,-5.3315,-5.3095,-5.3095,-5.235,-5.1454,-5.0963,-5.0287,-4.961,-4.912,-4.9001,-4.9001,-4.9001,-4.9001,-4.9001,-4.9001,-4.9001,-4.9001,-4.9001,-4.8798,-4.8477,-4.7986,-4.687,-4.5974,-4.5737,-4.5043,-4.4587,-4.4587,-4.4587,-4.4587,-4.4587,-4.4587,-4.4587,-4.4587,-4.5043,-4.5331,-4.5331,-4.6278,-4.6786,-4.6786,-4.7767,-4.8378,-4.8584,-4.9522,-5.05,-5.1444,-5.1904,-5.249,-3.0798,-3.3552,-3.6056,-3.8164,-3.9571,-4.0965,-4.3006,-4.3504,-4.2959,-4.1082,-4.0927,-4.1681,-4.3328,-4.4592,-4.5809,-4.6914,-4.866,-4.9399,-4.7999,-4.8509,-4.7916,-4.501,-4.3745,-4.3156,0.0,0.0,0.0,-4.4691,-4.5494,-4.5584,-4.4734,-4.5973,-4.7126,-4.8189,-4.8939,-4.9793,-5.0855,-5.1094,-5.1214,-5.1214,-5.1214,-5.1214,-5.1214,-5.1214,-5.0631,-4.9598,-4.9359,-4.8656,-4.7638,-4.7399,-4.7679,-4.8293,-4.8677,-4.8988,-4.9392,-5.0103,-5.055,-5.0914,-5.2026,-5.2886,-5.3433,-5.3025,-5.3195,-5.3501,-5.3501,-5.3501,-5.3501,-5.3501,-5.2926,-5.2198,-5.1725,-5.0845,-4.9965,-4.9509,-4.9187,-4.9001,-4.9001,-4.9001,-4.9001,-4.9001,-4.9001,-4.9001,-4.9001,-4.9001,-4.8849,-4.8376,-4.7276,-4.6397,-4.6126,-4.5669,-4.5365,-4.5365,-4.5365,-4.5365,-4.5365,-4.5365,-4.5365,-4.5365,-4.5821,-4.6092,-4.6092,-4.6802,-4.7192,-4.7192,-4.7936,-4.8308,-4.8308,-4.918,-5.0146,-5.1086,-5.1544,-5.2434,-3.343,-3.6316,-3.8691,-3.8688,-4.113,-4.3431,-4.3141,-4.3154,-4.1797,-3.665,-3.6264,-3.7592,-4.0092,-4.0419,-4.154,-4.5488,-4.7003,-4.7597,-4.7274,-4.7885,-4.7106,-4.3834,-4.2811,-4.2301,-4.2389,-4.2326,0.0,-4.3272,0.0,-4.3504,-4.3409,-4.4642,-4.5691,-4.6417,-4.8324,-4.9583,-5.0227,-5.0885,-5.1214,-5.1214,-5.1214,-5.1214,-5.1214,-5.1214,-5.084,-5.0152,-4.9538,-4.888,-4.8192,-4.7563,-4.7309,-4.7381,-4.8377,-4.8141,-4.7538,-4.9472,-4.9615,-4.8907,-4.9931,-5.1557,-5.3179,-5.2224,-5.2557,-5.3433,-5.3501,-5.3501,-5.3501,-5.3501,-5.2959,-5.235,-5.2266,-5.12,-5.0135,-5.005,-4.9509,-4.9001,-4.9001,-4.9001,-4.9001,-4.9001,-4.9001,-4.9001,-4.9001,-4.9001,-4.9001,-4.9001,-4.8409,-4.7699,-4.6955,-4.6802,-4.6786,-4.6786,-4.6786,-4.6786,-4.6786,-4.6786,-4.6786,-4.6786,-4.6836,-4.6853,-4.6853,-4.7564,-4.797,-4.797,-4.8646,-4.9001,-4.9001,-4.9001,-4.9681,-5.1034,-5.1087,-5.2292,-3.6854,-3.8047,-3.8718,-3.8697,-4.1115,-4.2491,-3.8527,-3.8487,-3.8602,-3.6108,-3.4932,-3.4688,-3.5982,-3.828,-4.0775,-4.317,-4.5889,-4.7767,-4.7814,-4.7785,-4.6812,-4.4428,-4.2403,-4.1153,-4.108,-4.0272,-4.0037,0.0,-4.2461,-4.3122,-4.2168,-4.4163,-4.5691,-4.6417,-4.8324,-4.9583,-5.0227,-5.0885,-5.1214,-5.1214,-5.1214,-5.1214,-5.1214,-5.1214,-5.0601,-4.9508,-4.9344,-4.8626,-4.7534,-4.7369,-4.7309,-4.7309,-4.7609,-4.7538,-4.7381,-4.7934,-4.8377,-4.8743,-4.8225,-4.9472,-5.1245,-5.1776,-5.2082,-5.247,-5.3264,-5.3501,-5.3501,-5.3501,-5.3348,-5.2942,-5.1792,-5.1217,-5.0642,-4.9543,-4.9137,-4.9001,-4.9001,-4.9001,-4.9001,-4.9001,-4.9001,-4.9001,-4.9001,-4.9001,-4.9001,-4.9001,-4.8849,-4.846,-4.7733,-4.7141,-4.6786,-4.6786,-4.6786,-4.6786,-4.6786,-4.6786,-4.6786,-4.6786,-4.7327,-4.7631,-4.7631,-4.8342,-4.8731,-4.8731,-4.89,-4.9001,-4.9001,-4.9001,-4.9419,-5.0297,-5.0906,-5.2006,-3.8131,-3.9738,-4.0799,-4.0789,-4.1293,-4.0671,-3.6357,-3.5661,-3.5387,-3.342,-3.2564,-3.2415,-3.3258,-3.5562,-3.8223,-4.0882,-4.4147,-4.6608,-4.7469,-4.7244,-4.6228,-4.4276,-4.2019,-4.0559,-4.0253,-3.9614,-3.9358,-3.9672,-4.1032,-4.1505,-4.0844,-4.2641,-4.4129,-4.5152,-4.7294,-4.9215,-5.0661,-5.1035,-5.1214,-5.1214,-5.1214,-5.1214,-5.1214,-5.1214,-5.0496,-4.9269,0.0,-4.8521,-4.7309,-4.7309,-4.7309,-4.7309,-4.7309,-4.7309,-4.7309,-4.7309,-4.7694,-4.8057,-4.7538,-4.8088,-4.9247,-5.0227,-5.1155,-5.1993,-5.2627,-5.311,-5.3501,-5.3501,-5.3501,-5.323,-5.2012,-5.1454,-5.093,-4.9763,-4.9238,-4.9001,-4.9001,-4.9001,-4.9001,-4.9001,-4.9001,-4.9001,-4.9001,-4.9001,-4.9001,-4.9001,-4.9001,-4.8849,-4.8443,-4.802,-4.7767,-4.7767,-4.7767,-4.7767,-4.7767,-4.7767,-4.7767,-4.7767,-4.8156,-4.8392,-4.8392,-4.8781,-4.9001,-4.9001,-4.9001,-4.9001,-4.9001,-4.9001,-4.9547,-5.057,-5.1003,-5.2151,-3.8587,-4.1194,-4.35,-4.3483,-4.1699,-3.9085,-3.587,-3.4421,-3.2974,-3.0332,-3.0174,-3.0748,-3.1461,-3.2844,-3.5076,-3.8791,-4.1937,-4.4637,-4.647,-4.6204,-4.52,-4.3561,-4.1673,-4.0301,-3.975,-3.9697,-3.9697,-3.9697,-3.9697,-3.9697,-3.9697,-4.1032,-4.2625,-4.4213,-4.6512,-4.8776,-5.1214,-5.1214,-5.1214,-5.1214,-5.1214,-5.1169,-5.1094,-5.1094,-5.0376,-4.9134,-4.9134,0.0,-4.7309,-4.7309,-4.7309,-4.7309,-4.7309,-4.7309,-4.7309,-4.7309,-4.7309,-4.7309,-4.7309,-4.7309,-4.7467,-4.8444,-5.0149,-5.1704,-5.1849,-5.2561,-5.3365,-5.3467,-5.3433,-5.3162,-5.2367,-5.1691,-5.0997,-5.0152,-4.9458,-4.9001,-4.9001,-4.9001,-4.9001,-4.9001,-4.9001,-4.9001,-4.9001,-4.9001,-4.9001,-4.9001,-4.9001,-4.9001,-4.9001,-4.9001,-4.9001,-4.9001,-4.9001,-4.9001,-4.9001,-4.9001,-4.9001,-4.9001,-4.9001,-4.9001,-4.9001,-4.9001,-4.9001,-4.9001,-4.9001,-4.9001,-4.9001,-4.9103,-4.9811,-5.1053,-5.126,-5.2434,-4.0929,-4.2072,-4.3483,-4.3487,-4.2506,-4.0431,-3.6218,-3.5467,-3.4559,-3.0798,-3.0121,-3.0122,-2.9955,-3.1387,-3.3727,-3.7074,-3.9368,-4.1759,-4.4742,-4.3703,-4.2711,-4.2671,-4.1038,-3.9777,-3.9685,-3.9697,-3.9697,0.0,-3.9697,-3.9697,-3.9697,-4.1887,-4.472,-4.8204,-4.8743,-4.9699,-5.1214,-5.1214,-5.1214,-5.1214,-5.1214,-5.093,-5.0406,-5.0406,-4.9703,-4.8461,-4.8461,0.0,-4.7309,-4.7309,-4.7309,-4.7309,-4.7309,-4.7309,-4.7309,-4.7309,-4.7309,-4.7309,-4.7309,-4.7309,-4.7467,-4.8444,-4.9615,-5.0779,-5.1614,-5.2177,-5.2655,-5.3315,-5.3027,-5.235,-5.1606,-5.1319,-5.0879,-4.9509,-4.9086,-4.9001,-4.9001,-4.9001,-4.9001,-4.9001,-4.9001,-4.9001,-4.9001,-4.9001,-4.9001,-4.9001,-4.9001,-4.9001,-4.9001,-4.9001,-4.9001,-4.9001,-4.9001,-4.9001,-4.9001,-4.9001,-4.9001,-4.9001,-4.9001,-4.9001,-4.9001,-4.9001,-4.9001,-4.9001,-4.9001,-4.9001,-4.9001,-4.961,-5.0028,-5.0351,-5.1511,-5.2701,-4.2427,-4.2911,-4.3505,-4.3493,-4.2278,-4.0038,-3.6096,-3.4517,-3.2842,-2.9087,-2.8135,-2.7891,-2.7703,-2.9415,-3.1594,-3.3906,-3.662,-3.9521,-4.2723,-4.2449,-4.2033,-4.245,-4.1444,-4.0465,-3.9788,-3.9697,-3.9697,-3.9697,-4.0262,-4.0642,-4.0642,-4.3122,-4.553,-4.7739,-4.8447,-4.9389,-5.069,-5.0376,-5.0376,-5.0705,-5.0361,-5.0032,-4.9733,-4.9733,-4.9209,-4.8282,-4.8282,0.0,-4.7309,-4.7309,-4.7309,-4.7309,-4.7309,-4.7309,-4.7309,-4.7309,-4.7309,-4.7309,-4.7309,-4.7309,-4.7321,-4.744,-4.848,-4.9615,-4.9719,-5.0562,-5.1562,-5.1562,-5.1665,-5.1572,-5.0828,-5.0642,-5.0355,-4.9272,-4.9001,-4.9001,-4.9001,-4.9001,-4.9001,-4.9001,-4.9001,-4.9001,-4.9001,-4.9001,-4.9001,-4.9001,-4.9001,-4.9001,-4.9001,-4.9001,-4.9001,-4.9001,-4.9001,-4.9001,-4.9001,-4.9001,-4.9001,-4.9001,-4.9001,-4.9001,-4.9001,-4.9001,-4.9001,-4.9001,-4.9001,-4.9001,-4.9001,-4.9729,-5.0287,-5.071,-5.1792,-5.2925,-4.2907,-4.333,-4.3508,-4.3513,-4.1775,-3.9175,-3.5878,-3.3125,-3.0403,-2.7215,-2.6059,-2.5721,-2.6032,-2.7559,-2.9355,-3.1102,-3.4026,-3.716,-4.0315,-4.1025,-4.141,-4.2021,-4.1563,-4.0844,-3.9788,-3.9697,-3.9697,-3.9697,-4.1119,-4.2168,-4.2363,-4.4349,-4.5873,-4.6799,-4.7792,-4.885,-5.0017,-4.9523,-4.9523,-5.0017,-4.9508,-4.9194,-4.906,-4.906,-4.8701,-4.8072,-4.8072,0.0,0.0,-4.7309,-4.7309,-4.7309,-4.7309,-4.7309,-4.7309,-4.7309,-4.7309,-4.7279,-4.7145,-4.71,-4.6995,-4.6322,-4.7228,-4.8484,-4.7803,-4.8763,-4.9976,-4.9637,-5.0074,-5.0553,-4.9964,-4.9957,-4.9898,-4.9187,-4.9001,-4.9001,-4.9001,-4.9001,-4.9001,-4.9001,-4.9001,-4.9001,-4.9001,-4.9001,-4.9001,-4.9001,-4.9001,-4.9001,-4.9001,-4.9001,-4.9001,-4.9001,-4.9001,-4.9001,-4.9001,-4.9001,-4.9001,-4.9001,-4.9001,-4.9001,-4.9001,-4.9001,-4.9001,-4.9001,-4.9001,-4.9086,-4.9238,-4.9982,-5.071,-5.1471,-5.2215,-5.3236,-4.1908,-4.2794,-4.3513,-4.3479,-4.1373,-3.8578,-3.5753,-3.2109,-2.8731,-2.6526,-2.5167,-2.4772,-2.6037,-2.6447,0.0,0.0,0.0,-3.3986,-3.7308,-3.8425,-3.9371,-4.0501,-4.0226,-3.9788,-3.9697,-3.9697,-3.9697,-3.9697,-4.1985,-4.3787,-4.5024,-4.5298,-4.6264,-4.8075,-4.8282,-4.8626,-4.9359,-4.9299,-4.9299,-4.9359,-4.9299,-4.8955,-4.8371,-4.8371,-4.8012,-4.7399,-4.7399,0.0,0.0,-4.7309,-4.7309,-4.7309,-4.7309,-4.7309,-4.7309,-4.7309,-4.7309,-4.7219,-4.6621,-4.6411,-4.6307,-4.5618,-4.6513,-4.7772,-4.7184,-4.7281,-4.7766,-4.8329,-4.8698,-4.891,-4.8844,-4.9456,-4.9898,-4.9187,-4.9001,-4.9001,-4.9001,-4.9001,-4.9001,-4.9001,-4.9001,-4.9001,-4.9001,-4.9001,-4.9001,-4.9001,-4.9001,-4.9001,-4.9001,-4.9001,-4.9001,-4.9001,-4.9001,-4.9001,-4.9001,-4.9001,-4.9001,-4.9001,-4.9001,-4.9001,-4.9001,-4.9001,-4.9001,-4.9001,-4.9001,-4.9323,-4.9999,-5.0744,-5.1488,-5.2232,-5.3027,-5.35,-4.0622,-4.2205,-4.341,-4.3105,-4.1107,-3.8312,-3.4894,-3.1472,-2.8315,-2.5987,-2.4525,-2.3951,-2.4988,-2.5233,0.0,0.0,0.0,0.0,-3.3948,-3.5235,-3.6845,-3.9562,-3.9583,-4.0069,-4.1781,-4.1319,-4.1505,-4.3026,-4.4069,-4.5207,-4.6447,-4.6535,-4.6947,-4.7683,-4.7698,-4.8012,-4.8671,-4.8282,-4.8282,-4.8671,-4.8282,-4.7952,-4.7698,-4.7698,-4.7549,-4.7309,-4.7309,0.0,0.0,-4.7309,-4.7309,-4.7309,-4.7309,-4.7309,-4.7309,-4.7309,-4.7055,-4.6681,-4.6411,-4.6052,-4.5603,-4.493,-4.5182,-4.5642,-4.5384,-4.5773,-4.6332,-4.628,-4.6686,-4.7168,-4.7168,-4.7867,-4.864,-4.8928,-4.9001,-4.9001,-4.9001,-4.9001,-4.9001,-4.9001,-4.9001,-4.9001,-4.9001,-4.9001,-4.9001,-4.9001,-4.9001,-4.9001,-4.9001,-4.9001,-4.9001,-4.9001,-4.9001,-4.9001,-4.9001,-4.9001,-4.9001,-4.9001,-4.9001,-4.9001,-4.9001,-4.9001,-4.9204,-4.9644,-4.9661,-5.0033,-5.076,-5.1505,-5.2012,-5.2317,-5.3129,-5.3717,-3.9425,-4.1359,-4.274,-4.2157,-4.0053,-3.7243,-3.3911,-3.0437,-2.7354,-2.5352,-2.3982,-2.335,-2.4035,-2.41,-2.4473,0.0,0.0,-2.8432,-3.1723,-3.3347,-3.5225,-3.8125,-3.8783,-3.9809,-4.1976,-4.2137,-4.3026,-4.5207,-4.5024,-4.5584,-4.7207,-4.6931,-4.6916,-4.7309,-4.7309,-4.7534,-4.7997,-4.7534,-4.7534,-4.7997,-4.7534,-4.7309,-4.7309,-4.7309,-4.7309,-4.7309,-4.7309,0.0,0.0,-4.7309,-4.7309,-4.7309,-4.7309,-4.7309,-4.7279,-4.7085,-4.6726,-4.6262,-4.5873,-4.5409,-4.4885,-4.4242,-4.4018,-4.4018,-4.4018,-4.4452,-4.4863,-4.4496,-4.5064,-4.5834,-4.6119,-4.6884,-4.7803,-4.8433,-4.8798,-4.9001,-4.9001,-4.9001,-4.9001,-4.9001,-4.9001,-4.9001,-4.9001,-4.9001,-4.9001,-4.9001,-4.9001,-4.9001,-4.9001,-4.9001,-4.9001,-4.9001,-4.9001,-4.9001,-4.9001,-4.9001,-4.9001,-4.9001,-4.9001,-4.9001,-4.9001,-4.9001,-4.9357,-5.0084,-5.0084,-5.0574,-5.1539,-5.2046,-5.2418,-5.2672,-5.3247,-5.3881,-3.8447,-4.0249,-4.125,-4.0528,-3.7963,-3.5053,-3.2901,-2.8854,-2.531,-2.457,-2.3488,-2.2903,-2.349,-2.3113,-2.3126,0.0,0.0,0.0,-3.0957,-3.326,-3.4961,-3.5967,-3.7564,-3.8715,-3.9071,-4.1773,-4.3975,-4.5298,-4.4256,0.0,-4.7121,-4.6062,-4.5973,-4.7294,-4.7309,-4.7309,-4.7309,-4.7309,-4.7309,-4.7309,-4.7309,-4.7309,-4.7309,-4.7309,-4.7309,-4.7309,0.0,0.0,0.0,-4.7309,-4.7309,-4.7309,-4.7309,-4.7309,-4.7234,-4.6576,-4.6337,-4.6127,-4.4796,-4.4332,-4.4212,-4.3554,-4.3344,-4.3344,-4.3344,-4.3344,-4.3344,-4.3329,-4.4066,-4.502,-4.5977,-4.6884,-4.7589,-4.7589,-4.8289,-4.9001,-4.9001,-4.9001,-4.9001,-4.9001,-4.9001,-4.9001,-4.9001,-4.9001,-4.9001,-4.9001,-4.9001,-4.9001,-4.9001,-4.9001,-4.9001,-4.9001,-4.9001,-4.9001,-4.9001,-4.9001,-4.9001,-4.9001,-4.9001,-4.9001,-4.9001,-4.9001,-4.9357,-5.0084,-5.0084,-5.0811,-5.2283,-5.23,-5.2706,-5.3501,-5.3501,-5.3881,-3.4834,-3.6435,-3.7434,-3.6019,-3.4196,-3.2041,-2.9223,-2.7005,-2.5017,-2.2946,-2.2283,-2.2045,-2.2289,-2.2132,-2.2678,-2.4657,0.0,0.0,0.0,-3.1702,-3.3833,-3.7259,-4.1376,-4.3762,0.0,0.0,-4.6255,-4.6638,-4.6344,-4.6447,-4.7294,-4.6916,-4.6916,-4.7309,-4.7309,-4.7309,-4.7309,-4.7309,-4.7309,-4.7309,-4.7309,-4.7309,-4.7309,-4.7309,-4.7309,0.0,0.0,0.0,0.0,-4.6815,-4.6905,-4.7219,-4.6292,-4.6217,-4.6561,-4.5873,-4.5334,-4.4885,-4.4466,-4.4018,-4.3614,-4.3404,-4.3329,-4.3329,-4.3329,-4.3329,-4.3329,-4.3329,-4.3551,-4.4128,-4.5746,-4.6384,-4.6952,-4.8225,-4.8781,-4.9001,-4.9001,-4.9001,-4.9001,-4.9001,-4.9001,-4.9001,-4.9001,-4.9001,-4.9001,-4.9001,-4.9001,-4.9001,-4.9001,-4.9001,-4.9001,-4.9001,-4.9001,-4.9001,-4.9001,-4.9001,-4.9001,-4.9001,-4.9001,-4.9001,-4.9001,-4.9001,-4.9593,-5.0828,-5.0862,-5.1606,-5.3129,-5.3129,-5.3247,-5.3501,-5.3994,-5.4651,-3.175,-3.3299,-3.3981,-3.2341,-3.1028,-2.9361,-2.6655,-2.5227,-2.3989,-2.208,-2.1697,-2.1697,-2.1697,-2.1697,-2.2179,-2.3621,0.0,0.0,0.0,-3.0686,-3.3382,-3.8564,-4.2387,0.0,0.0,-4.6532,-4.7309,-4.7309,-4.6829,-4.6829,-4.7309,-4.6829,-4.6829,-4.7309,-4.7309,-4.7309,-4.7309,-4.7309,-4.7309,-4.7309,-4.7309,-4.7309,-4.7309,-4.7309,-4.7309,0.0,0.0,0.0,0.0,-4.6486,-4.6411,-4.6456,-4.5618,-4.5559,-4.5858,-4.517,-4.4661,-4.4272,-4.4032,-4.3673,-4.3329,-4.3329,-4.3329,-4.3329,-4.3329,-4.3329,-4.3329,-4.3329,-4.3329,-4.3536,-4.4825,-4.54,-4.6048,-4.7589,-4.8225,-4.8576,-4.8923,-4.9001,-4.9001,-4.9001,-4.9001,-4.9001,-4.9001,-4.9001,-4.9001,-4.9001,-4.9001,-4.9001,-4.9001,-4.9001,-4.9001,-4.9001,-4.9001,-4.9001,-4.9001,-4.9001,-4.9001,-4.9001,-4.9001,-4.912,-4.9407,-4.9424,-5.0118,-5.1606,-5.164,-5.2249,-5.3501,-5.3501,-5.3668,-5.3946,-5.4651,-5.5437,0.0,-3.0442,-3.0534,-2.9209,-2.8136,-2.6883,-2.4882,-2.3504,0.0,-2.1691,-2.1554,-2.1582,-2.1678,-2.167,-2.1697,-2.1786,-2.296,0.0,0.0,-3.0616,-3.4193,-3.9994,-4.1607,0.0,-4.5221,-4.6576,-4.7309,-4.7309,-4.6166,-4.6062,-4.7207,-4.6166,-4.6062,-4.7294,-4.7309,-4.7309,-4.7309,-4.7309,-4.7309,-4.7309,-4.7309,-4.7309,-4.7309,-4.7309,-4.7309,0.0,0.0,0.0,0.0,-4.6217,-4.5828,-4.5289,-4.5185,-4.5185,-4.5155,-4.4481,-4.4242,-4.4152,-4.3539,-4.3329,-4.3329,-4.3329,-4.3329,-4.3329,-4.3329,-4.3329,-4.3329,-4.3329,-4.3329,-4.3329,-4.3409,-4.4066,-4.5079,-4.6048,-4.6952,-4.7868,-4.8798,-4.9001,-4.9001,-4.9001,-4.9001,-4.9001,-4.9001,-4.9001,-4.9001,-4.9001,-4.9001,-4.9001,-4.9001,-4.9001,-4.9001,-4.9001,-4.9001,-4.9001,-4.9001,-4.9001,-4.9001,-4.9001,-4.9052,-4.939,-5.005,-5.0135,-5.0845,-5.2266,-5.2367,-5.2756,-5.3501,-5.3501,-5.3832,-5.4544,-5.532,-5.6077,-2.2748,0.0,-2.4489,-2.3731,-2.3419,-2.3003,0.0,-2.1857,-2.1685,-2.05,-2.0232,-2.0502,-2.1388,-2.1236,-2.1667,-2.3692,-2.5348,-2.7308,-2.9998,-3.4951,-3.9519,-4.3,-4.4527,-4.5665,-4.6756,-4.7115,-4.7309,-4.7309,-4.7019,-4.7019,-4.7309,-4.7019,-4.7019,-4.7309,-4.7309,-4.7309,-4.7309,-4.7309,-4.7309,-4.7309,-4.7309,-4.7309,-4.7309,-4.7309,-4.7309,0.0,0.0,0.0,-4.6247,-4.5214,-4.499,-4.52,-4.4182,-4.4107,-4.4466,-4.3808,-4.3569,-4.3539,-4.3389,-4.3329,-4.3329,-4.3329,-4.3329,-4.3329,-4.3329,-4.3329,-4.3329,-4.3329,-4.3329,-4.3472,-4.422,-4.4586,-4.5227,-4.6884,-4.744,-4.7868,-4.8798,-4.9001,-4.9001,-4.9001,-4.9001,-4.9001,-4.9001,-4.9001,-4.9001,-4.9001,-4.9001,-4.9001,-4.9001,-4.9001,-4.9001,-4.9001,-4.9001,-4.9001,-4.9001,-4.9001,-4.9001,-4.9001,-4.9526,-4.9915,-5.0084,-5.0642,-5.1386,-5.2283,-5.2909,-5.3315,-5.3501,-5.3501,-5.3618,-5.3766,-5.5102,-5.578,-1.9126,-2.0697,-2.2048,-2.1465,-2.154,-2.1578,-2.09,-2.0836,-2.0669,-1.9964,-1.9798,-2.0075,-2.0953,-2.1339,-2.214,-2.3948,-2.5888,-2.8572,-3.2415,-3.7284,-4.1369,-4.4003,-4.5499,-4.6576,0.0,-4.7309,-4.7309,-4.7309,-4.7309,-4.7309,-4.7309,-4.7309,-4.7309,-4.7309,-4.7309,-4.7309,-4.7309,-4.7309,-4.7309,-4.7309,-4.7309,-4.7309,-4.7309,-4.7309,-4.7145,0.0,0.0,0.0,-4.5349,-4.4616,-4.4347,-4.4332,-4.3614,-4.3554,-4.3823,-4.3464,-4.3329,-4.3329,-4.3329,-4.3329,-4.3329,-4.3329,-4.3329,-4.3329,-4.3329,-4.3329,-4.3329,-4.3329,-4.3329,-4.3409,-4.4004,-4.4143,-4.4495,-4.5977,-4.6609,-4.7223,-4.8144,-4.8719,-4.9001,-4.9001,-4.9001,-4.9001,-4.9001,-4.9001,-4.9001,-4.9001,-4.9001,-4.9001,-4.9001,-4.9001,-4.9001,-4.9001,-4.9001,-4.9137,-4.9475,-4.9509,-4.9509,-4.9509,-5.0202,-5.076,-5.1099,-5.1488,-5.208,-5.2841,-5.3281,-5.3501,-5.3501,-5.3832,-5.4154,-5.4562,-5.5685,-5.6421,-1.7473,-1.9525,-2.1361,-2.0598,-2.0895,-2.1173,-2.0686,0.0,0.0,0.0,-1.9874,-2.0215,-2.1107,-2.2148,-2.3243,-2.4412,-2.6785,-3.0255,-3.5325,-3.8839,-4.1743,-4.4167,-4.5663,0.0,-4.7249,-4.7309,-4.7309,-4.7309,0.0,-4.7309,-4.7309,-4.7309,-4.7309,-4.7309,-4.7309,-4.7309,-4.7309,-4.7309,-4.7309,-4.7309,-4.7309,-4.7309,-4.7309,-4.7204,-4.686,-4.6307,0.0,0.0,-4.4302,-4.4212,-4.3838,-4.3329,-4.3329,-4.3329,-4.3329,-4.3329,-4.3329,-4.3329,-4.3329,-4.3329,-4.3329,-4.3329,-4.3329,-4.3329,-4.3329,-4.3329,-4.3329,-4.3329,-4.3329,-4.3329,-4.3329,-4.3329,-4.3551,-4.4586,-4.5488,-4.6454,-4.7373,-4.837,-4.9001,-4.9001,-4.9001,-4.9001,-4.9001,-4.9001,-4.9001,-4.9001,-4.9001,-4.9035,-4.9154,-4.9171,-4.9221,-4.9323,-4.934,-4.9593,-5.0202,-5.0355,-5.0422,-5.0422,-5.1031,-5.1708,-5.2452,-5.2486,-5.2807,-5.3501,-5.3501,-5.3501,-5.3501,-5.4264,-5.4922,-5.5535,-5.6492,-5.7234,-1.8336,-1.975,-2.0488,-1.8989,-1.9332,-2.0027,-1.9988,-1.9861,0.0,0.0,0.0,0.0,-2.3454,-2.4473,-2.5894,-2.8629,-3.19,-3.5379,-3.906,-4.1503,-4.3449,-4.496,0.0,-4.7189,-4.7294,-4.7309,-4.7309,0.0,0.0,-4.7309,-4.7309,-4.7309,-4.7309,-4.7309,-4.7309,-4.7309,-4.7309,-4.7309,-4.7309,-4.7309,-4.7309,-4.7309,-4.7279,-4.6726,-4.6426,-4.6262,0.0,-4.4511,-4.4272,-4.3718,-4.3419,-4.3329,-4.3329,-4.3329,-4.3329,-4.3329,-4.3329,-4.3329,-4.3329,-4.3329,-4.3329,-4.3329,-4.3329,-4.3329,-4.3329,-4.3329,-4.3329,-4.3329,-4.3329,-4.3329,-4.3329,-4.3329,-4.3551,-4.4586,-4.5488,-4.6454,-4.7373,-4.837,-4.9001,-4.9001,-4.9001,-4.9001,-4.9001,-4.9001,-4.9001,-4.9001,-4.9001,-4.9221,-4.9847,-4.9915,-5.0168,-5.0811,-5.0879,-5.093,-5.1031,-5.1606,-5.1961,-5.1961,-5.208,-5.2486,-5.3281,-5.3315,-5.3382,-5.3501,-5.3501,-5.3501,-5.3501,-5.4264,-5.4651,-5.4818,-5.6204,-5.6964,-1.7463,-1.8706,-1.9673,-1.9183,-2.0577,-2.1983,-2.1669,-2.1606,0.0,0.0,0.0,0.0,-2.4562,-2.6303,-2.8867,-3.2777,-3.5092,-3.7505,-4.0561,-4.2013,-4.3419,0.0,0.0,-4.692,-4.7264,-4.7309,-4.716,0.0,0.0,0.0,-4.6247,-4.6217,-4.6396,-4.677,-4.677,-4.695,-4.7309,-4.7309,-4.7309,-4.7309,-4.7309,-4.7309,-4.7279,-4.6621,-4.6112,-4.5723,0.0,-4.4107,-4.3763,-4.3464,-4.3329,-4.3329,-4.3329,-4.3329,-4.3329,-4.3329,-4.3329,-4.3329,-4.3329,-4.3329,-4.3329,-4.3329,-4.3329,-4.3329,-4.3329,-4.3329,-4.3329,-4.3329,-4.3329,-4.3329,-4.3329,-4.3329,-4.3409,-4.3849,-4.4706,-4.5706,-4.6678,-4.7589,-4.837,-4.8923,-4.9001,-4.9001,-4.9001,-4.9001,-4.9001,-4.9001,-4.934,-4.9712,-5.005,-5.0439,-5.0828,-5.1183,-5.1217,-5.1369,-5.1775,-5.2114,-5.2486,-5.2926,-5.2959,-5.3112,-5.3484,-5.3501,-5.3501,-5.3501,-5.3501,-5.3501,-5.3501,-5.4651,-5.5203,-5.5203,-5.6773,-5.7498,-1.733,-1.8329,-1.9397,-2.0188,-2.1907,-2.3401,-2.3351,-2.3226,-2.3153,-2.3416,-2.4137,-2.4971,-2.5962,-2.8754,-3.2219,-3.6093,-3.7668,-3.911,-4.1294,-4.2312,-4.3374,-4.4885,-4.5663,-4.6277,-4.6785,0.0,0.0,0.0,0.0,0.0,-4.5319,-4.5289,-4.5544,-4.6067,-4.6082,-4.6322,-4.683,-4.683,-4.6995,-4.7309,-4.7309,-4.7309,-4.7279,-4.6456,-4.5798,-4.5244,-4.4436,-4.3793,-4.3329,-4.3329,-4.3329,-4.3329,-4.3329,-4.3329,-4.3329,-4.3329,-4.3329,-4.3329,-4.3329,-4.3329,-4.3329,-4.3329,-4.3329,-4.3329,-4.3329,-4.3329,-4.3329,-4.3329,-4.3329,-4.3329,-4.3329,-4.3329,-4.3329,-4.3329,-4.4082,-4.5079,-4.5977,-4.6952,-4.7868,-4.8798,-4.9001,-4.9001,-4.9001,-4.9001,-4.9001,-4.9001,-4.9627,-5.0152,-5.0338,-5.1014,-5.1539,-5.1725,-5.1758,-5.1978,-5.2536,-5.2587,-5.2841,-5.3467,-5.3501,-5.3501,-5.3501,-5.3501,-5.3501,-5.3501,-5.3501,-5.3551,-5.3783,-5.5042,-5.578,-5.6004,-5.7364,-5.7997,-1.978,-2.0062,-2.0125,-2.1732,-2.1895,-2.2071,-2.359,-2.3527,-2.3366,-2.4481,-2.5136,-2.6206,-2.8392,-3.2767,-3.6462,-3.8008,-3.9888,-4.1369,-4.2177,0.0,-4.4227,-4.4362,-4.496,-4.5394,-4.5439,0.0,0.0,0.0,0.0,0.0,-4.5289,-4.5289,-4.5319,-4.5364,-4.5364,-4.5394,-4.5439,-4.5439,-4.6067,-4.7309,-4.7309,-4.7309,-4.7264,-4.5963,-4.5349,-4.5229,-4.3958,-4.3374,-4.3329,-4.3329,-4.3329,-4.3329,-4.3329,-4.3329,-4.3329,-4.3329,-4.3329,-4.3329,-4.3329,-4.3329,-4.3329,-4.3329,-4.3329,-4.3329,-4.3329,-4.3329,-4.3329,-4.3329,-4.3329,-4.3329,-4.3329,-4.3329,-4.3329,-4.3329,-4.4082,-4.5079,-4.5977,-4.6952,-4.7868,-4.8798,-4.9001,-4.9001,-4.9001,-4.9001,-4.9001,-4.9001,-4.9627,-5.0338,-5.1048,-5.1775,-5.252,-5.3264,-5.3331,-5.3365,-5.3416,-5.3416,-5.345,-5.3501,-5.3501,-5.3501,-5.3501,-5.3501,-5.3501,-5.3501,-5.3501,-5.3832,-5.4544,-5.532,-5.6059,-5.6843,-5.7613,-5.7997,-1.8858,-1.9459,-2.0037,-2.1041,-2.2184,0.0,0.0,-2.5624,-2.6138,-2.7607,-2.8456,-2.9715,-3.2244,-3.4771,-3.718,-3.929,-4.0621,-4.1758,-4.2821,-4.3389,-4.3853,-4.4272,-4.4526,-4.484,0.0,0.0,0.0,0.0,0.0,0.0,-4.4092,-4.4077,-4.4272,-4.4661,-4.4691,-4.4885,-4.5289,-4.5289,-4.5544,-4.6052,-4.6052,-4.6052,-4.6022,-4.511,-4.4691,-4.4631,-4.3718,-4.3329,-4.3329,-4.3329,-4.3329,-4.3329,-4.3329,-4.3329,-4.3329,-4.3329,-4.3329,-4.3329,-4.3329,-4.3329,-4.3329,-4.3329,-4.306,-4.2806,-4.321,-4.3045,-4.2821,-4.321,-4.3329,-4.3329,-4.3329,-4.3329,-4.3329,-4.3329,-4.363,-4.4282,-4.5889,-4.6454,-4.7172,-4.8719,-4.9001,-4.9001,-4.9001,-4.9001,-4.9154,-4.961,-5.0304,-5.1065,-5.1792,-5.257,-5.3162,-5.3467,-5.3501,-5.3501,-5.3501,-5.3501,-5.3501,-5.3501,-5.3501,-5.3501,-5.3501,-5.3501,-5.3501,-5.3501,-5.3501,-5.3618,-5.3946,-5.5102,-5.5836,-5.6186,-5.7431,-5.7997,-1.8707,-1.9246,-2.0024,-2.0953,0.0,0.0,-2.6703,-2.7394,-2.8109,-3.0143,-3.1357,-3.2738,-3.484,-3.6104,-3.7569,0.0,-4.095,-4.1833,-4.315,-4.3329,-4.3509,-4.3943,-4.4003,-4.4182,0.0,0.0,0.0,0.0,0.0,0.0,0.0,-4.3329,-4.3539,-4.3988,-4.4003,-4.4212,-4.4661,-4.4676,-4.4676,-4.4676,-4.4676,-4.4885,-4.5274,-4.4616,-4.4317,-4.4272,-4.3614,-4.3329,-4.3329,-4.3329,-4.3329,-4.3329,-4.3329,-4.3329,-4.3329,-4.3329,-4.3329,-4.3329,-4.3329,-4.3329,-4.3329,-4.3329,-4.2895,-4.2447,-4.2895,-4.2716,-4.2462,-4.2895,-4.3165,-4.3329,-4.3329,-4.3329,-4.3329,-4.3329,-4.3329,-4.3834,-4.5746,-4.6173,-4.6747,-4.8656,-4.9001,-4.9001,-4.9001,-4.9001,-4.9171,-4.9678,-5.0388,-5.1133,-5.186,-5.2638,-5.323,-5.3467,-5.3501,-5.3501,-5.3501,-5.3501,-5.3501,-5.3501,-5.3501,-5.3501,-5.3501,-5.3501,-5.3501,-5.3501,-5.3501,-5.3618,-5.3832,-5.5102,-5.5836,-5.6132,-5.7431,-5.7997,-1.9728,-1.9798,-2.0213,-2.1895,-2.2749,-2.4117,-2.8059,-2.8511,-2.89,-3.165,-3.3331,-3.4668,-3.5769,-3.6737,-3.8078,-4.0068,-4.095,-4.1833,-4.315,-4.3329,-4.3329,-4.3329,-4.3329,0.0,0.0,0.0,0.0,0.0,0.0,0.0,0.0,-4.3329,-4.3329,-4.3329,-4.3329,-4.3329,-4.3329,-4.3329,-4.3329,-4.3329,-4.3329,-4.4018,-4.5259,-4.4601,-4.4302,-4.4272,-4.3614,-4.3329,-4.3329,-4.3329,-4.3329,-4.3329,-4.3329,-4.3329,-4.3329,-4.3329,-4.3329,-4.3329,-4.3329,-4.3329,-4.3329,-4.3329,-4.288,-4.2434,-4.2434,-4.2434,-4.2342,-4.2357,-4.2821,-4.3329,-4.3329,-4.3329,-4.3329,-4.3329,-4.3329,-4.3834,-4.5746,-4.6173,-4.6747,-4.8656,-4.9001,-4.9001,-4.9001,-4.9001,-4.9001,-4.9018,-4.9627,-5.0371,-5.1116,-5.1843,-5.2604,-5.3399,-5.3484,-5.3484,-5.3501,-5.3501,-5.3501,-5.3501,-5.3501,-5.3501,-5.3501,-5.3501,-5.3501,-5.3501,-5.3501,-5.3898,-5.4589,-5.532,-5.6132,-5.6912,-5.766,-5.7997,-1.9296,-1.9823,-2.0715,-2.1995,-2.4192,-2.6666,-2.9001,-2.9415,0.0,0.0,-3.4018,-3.5079,-3.5446,-3.6968,0.0,-4.0157,-4.095,-4.1833,-4.315,-4.3329,-4.3329,-4.3329,0.0,0.0,0.0,0.0,0.0,0.0,0.0,0.0,0.0,-4.3329,-4.3329,-4.3329,-4.3329,-4.3329,-4.3329,-4.3329,-4.3329,-4.3329,-4.3329,-4.3539,-4.3913,-4.3718,-4.3629,-4.3614,-4.3419,-4.3329,-4.3329,-4.3329,-4.3329,-4.3329,-4.3329,-4.3329,-4.3329,-4.3329,-4.3329,-4.3329,-4.3329,-4.3329,-4.3254,-4.2791,-4.2207,-4.1669,-4.1669,-4.1354,-4.1175,-4.2102,-4.2506,-4.2746,-4.321,-4.3329,-4.3329,-4.3329,-4.3329,-4.3834,-4.5746,-4.6173,-4.6747,-4.8656,-4.9001,-4.9001,-4.9001,-4.9001,-4.9187,-4.9695,-4.9949,-5.0541,-5.1809,-5.1725,-5.1826,-5.2587,-5.2198,-5.2097,-5.2604,-5.2655,-5.2909,-5.3467,-5.3501,-5.3501,-5.3501,-5.3501,-5.3501,-5.3501,-5.3501,-5.3618,-5.3832,-5.5102,-5.5819,-5.6077,-5.7364,-5.7997,-2.0238,-2.0815,-2.1744,-2.3514,-2.5636,-2.7896,-3.0231,-3.1097,-3.1959,-3.3931,-3.5009,-3.587,-3.6803,-3.7725,0.0,-4.0172,-4.0726,-4.1354,-4.2417,-4.2776,-4.294,-4.294,0.0,0.0,0.0,0.0,0.0,0.0,0.0,0.0,0.0,-4.294,-4.306,-4.3329,-4.3329,-4.3329,-4.3329,-4.3075,-4.294,-4.294,-4.2686,-4.2686,-4.2955,-4.321,-4.3329,-4.3329,-4.3329,-4.3329,-4.3329,-4.3329,-4.3329,-4.3329,-4.3329,-4.3329,-4.3329,-4.3329,-4.3329,-4.3329,-4.3329,-4.3329,-4.3225,-4.2581,-4.1923,-4.1324,-4.107,-4.0711,-4.0561,-4.1354,-4.1773,-4.2073,-4.2462,-4.2746,-4.3015,-4.3269,-4.363,-4.4343,-4.5905,-4.6454,-4.7239,-4.8719,-4.9001,-4.9001,-4.9001,-4.9001,-4.9154,-4.9593,-4.9898,-5.0405,-5.1302,-5.1302,-5.1386,-5.1826,-5.1488,-5.1505,-5.2249,-5.23,-5.2638,-5.345,-5.3501,-5.3501,-5.3501,-5.3501,-5.3501,-5.3501,-5.3501,-5.3668,-5.3946,-5.5102,-5.5893,-5.6186,-5.7431,-5.7997,-2.1669,-2.2234,-2.305,-2.5837,-2.713,-2.8536,-3.1599,-3.3081,-3.4241,-3.5763,-3.6067,-3.6724,-3.887,-3.8829,-3.8901,-4.0187,-4.0397,-4.0621,-4.1294,-4.1893,-4.2267,0.0,0.0,0.0,0.0,0.0,0.0,0.0,0.0,0.0,0.0,-4.2267,-4.2551,-4.3135,-4.3165,-4.3165,-4.3165,-4.2566,-4.2267,-4.2267,-4.1669,-4.1698,-4.2297,-4.2955,-4.3284,-4.3329,-4.3329,-4.3329,-4.3329,-4.3329,-4.3329,-4.3329,-4.3329,-4.3329,-4.3329,-4.3329,-4.3329,-4.3329,-4.3329,-4.3284,-4.3135,-4.2491,-4.1833,-4.1175,-4.0502,-4.0307,-4.0322,-4.0382,-4.0831,-4.1309,-4.1369,-4.1818,-4.2432,-4.309,-4.4036,-4.5079,-4.5977,-4.6952,-4.7868,-4.8798,-4.9001,-4.9001,-4.9001,-4.9001,-4.9001,-4.9001,-4.956,-5.0016,-5.0084,-5.0642,-5.1048,-5.1099,-5.1048,-5.1336,-5.2131,-5.2198,-5.257,-5.345,-5.3501,-5.3501,-5.3501,-5.3501,-5.3501,-5.3501,-5.3501,-5.3898,-5.4589,-5.532,-5.6132,-5.6912,-5.7679,-5.7997,-2.025,-2.1619,-2.3627,-2.6402,-2.9151,-3.1461,-3.2629,-3.3081,-3.3623,-3.4759,-3.5668,-3.6618,-3.7904,-3.8737,-3.9454,-4.0277,-4.0397,-4.0621,-4.1294,-4.1504,-4.1594,-4.1594,0.0,0.0,0.0,0.0,0.0,0.0,0.0,0.0,-4.1594,-4.1594,-4.1654,-4.1788,-4.1803,-4.1803,-4.1803,-4.1669,-4.1594,0.0,-4.1444,-4.1459,-4.1609,-4.2267,-4.2851,-4.3329,-4.3329,-4.3329,-4.3329,-4.3329,-4.3329,-4.3329,-4.3329,-4.3329,-4.3329,-4.3329,-4.3329,-4.3329,-4.3329,-4.3,-4.2462,-4.1803,-4.1145,-4.0487,-3.9828,-3.9634,-3.9738,-4.0247,-4.0502,-4.0726,-4.125,-4.1489,-4.1758,-4.2417,-4.3686,-4.5079,-4.5977,-4.6952,-4.7868,-4.8798,-4.9001,-4.9001,-4.9001,-4.9001,-4.9001,-4.9001,-4.9137,-4.9441,-5.0016,-4.9729,-4.9695,-5.027,-4.983,-5.0016,-5.1336,-5.1454,-5.2046,-5.3416,-5.3501,-5.3501,-5.3501,-5.3501,-5.3501,-5.3501,-5.3501,-5.3898,-5.4589,-5.532,-5.6132,-5.6912,-5.7679,-5.7997,-2.0966,-2.2447,-2.4406,-2.7984,-3.0357,-3.2039,-3.288,-3.3471,-3.4191,-3.5197,-3.5814,-3.6682,-3.8294,-3.9017,-3.9529,-3.9873,-3.9933,-4.0053,-4.0382,-4.0711,-4.0905,0.0,0.0,0.0,0.0,0.0,0.0,0.0,0.0,-4.0905,-4.0905,-4.0905,-4.1055,-4.1369,-4.1384,-4.1384,-4.1384,-4.107,-4.0905,-4.0905,-4.0591,-4.0606,-4.0935,-4.1594,-4.2073,-4.2417,-4.2731,-4.2865,-4.2895,-4.321,-4.3329,-4.3329,-4.3329,-4.3329,-4.3329,-4.3329,-4.3329,-4.3284,-4.297,-4.2641,-4.2207,-4.122,-4.0681,-4.0277,-3.9619,-3.9424,-3.9484,-3.9828,-3.9933,-4.0008,-4.0352,-4.0666,-4.107,-4.1728,-4.3525,-4.5223,-4.6039,-4.7306,-4.8433,-4.894,-4.9001,-4.9001,-4.9001,-4.9001,-4.9001,-4.9001,-4.9001,-4.9137,-4.9526,-4.9238,-4.9154,-4.9526,-4.9238,-4.9458,-5.0591,-5.1014,-5.1708,-5.2858,-5.3298,-5.3501,-5.3501,-5.3501,-5.3501,-5.3501,-5.3501,-5.4059,-5.5161,-5.5477,-5.6295,-5.7449,-5.7839,-5.7997,-2.187,-2.3831,-2.5972,-3.0087,-3.1596,-3.2268,-3.3157,-3.4191,-3.5197,-3.6053,-3.6369,-3.7084,-3.9017,-3.9424,-3.9424,-3.9424,-3.9424,-3.9424,-3.9424,-3.9888,-4.0232,0.0,0.0,0.0,0.0,0.0,0.0,0.0,0.0,-4.0232,-4.0232,-4.0232,-4.0487,-4.1025,-4.104,-4.104,-4.104,-4.0502,-4.0232,-4.0232,-3.9679,-3.9709,-4.0247,-4.0786,-4.116,-4.1414,-4.1953,-4.2192,-4.2252,-4.2895,-4.3165,-4.3165,-4.3284,-4.3329,-4.3329,-4.3329,-4.3329,-4.324,-4.2581,-4.2282,-4.1998,-4.0786,-4.0322,-4.0127,-3.9589,-3.9424,-3.9424,-3.9424,-3.9424,-3.9424,-3.9424,-3.9828,-4.0397,-4.1055,-4.3149,-4.5234,-4.5997,-4.7655,-4.9001,-4.9001,-4.9001,-4.9001,-4.9001,-4.9001,-4.9001,-4.9001,-4.9001,-4.9001,-4.9001,-4.9001,-4.9001,-4.9001,-4.9001,-4.9306,-5.0033,-5.0659,-5.1386,-5.2249,-5.2926,-5.3365,-5.3501,-5.3601,-5.3668,-5.3668,-5.3668,-5.4328,-5.5706,-5.5836,-5.6632,-5.7997,-5.7997,-5.7997,-2.0575,-2.4958,-2.9617,-3.2323,-3.3922,-3.4708,-3.4518,-3.5278,-3.6053,0.0,-3.693,-3.7979,-3.9177,-3.9424,-3.9424,-3.9424,-3.9424,-3.9424,-3.9424,-3.9499,-3.9544,0.0,0.0,0.0,0.0,0.0,0.0,0.0,-3.9544,-3.9544,-3.9544,-3.9544,-3.9589,-3.9679,-3.9679,-3.9679,-3.9679,-3.9589,-3.9544,-3.9544,-3.9454,-3.9469,-3.9559,-3.9649,-4.0307,-4.1384,-4.1474,-4.1504,-4.1564,-4.2222,-4.2491,-4.2551,-4.312,-4.3329,-4.3329,-4.3329,-4.3329,-4.324,-4.2581,-4.1998,-4.1384,-4.0651,-4.0023,-3.9529,-3.9454,-3.9424,-3.9424,-3.9424,-3.9424,-3.9424,-3.9424,-3.9484,-3.9709,-4.0367,-4.2505,-4.4657,-4.5955,-4.7655,-4.9001,-4.9001,-4.9001,-4.9001,-4.9001,-4.9001,-4.9001,-4.9001,-4.9001,-4.9001,-4.9001,-4.9001,-4.9001,-4.9001,-4.9001,-4.9306,-5.0033,-5.0185,-5.0828,-5.2215,-5.2401,-5.2773,-5.3467,-5.4106,-5.4419,-5.4419,-5.4419,-5.4878,-5.5706,-5.6367,-5.7166,-5.7997,-5.7997,-5.7997,-2.2423,-2.5922,-2.9347,-3.2189,-3.3289,-3.3943,-3.4841,-3.5792,-3.666,-3.7028,-3.7979,-3.8855,-3.9337,-3.9424,-3.9424,-3.9424,-3.9424,-3.9424,-3.9424,-3.9424,-3.9424,0.0,0.0,0.0,0.0,0.0,0.0,0.0,-3.9424,-3.9424,-3.9424,-3.9424,-3.9424,-3.9424,-3.9424,-3.9424,-3.9424,-3.9424,-3.9424,-3.9424,-3.9424,-3.9424,-3.9424,-3.9424,-3.9738,-4.0307,-4.0666,-4.0831,-4.0876,-4.1534,-4.1818,-4.1848,-4.2117,-4.2462,-4.2791,-4.2791,-4.2791,-4.2686,-4.2043,-4.1384,-4.0726,-4.0068,-3.9649,-3.9424,-3.9424,-3.9424,-3.9424,-3.9424,-3.9424,-3.9424,-3.9424,-3.9424,-3.9808,-4.137,-4.2981,-4.4731,-4.6575,-4.808,-4.9001,-4.9001,-4.9001,-4.9001,-4.9001,-4.9001,-4.9001,-4.9001,-4.9001,-4.9001,-4.9001,-4.9001,-4.9001,-4.9001,-4.9001,-4.9137,-4.9458,-4.9847,-5.0541,-5.1623,-5.208,-5.2819,-5.4072,-5.4437,-5.4818,-5.5203,-5.5203,-5.561,-5.6367,-5.6739,-5.7284,-5.7997,-5.7997,-5.7997,-2.3409,-2.5925,-2.8204,-3.1222,-3.2497,-3.3424,-3.4887,0.0,-3.7099,0.0,-3.837,-3.9215,-3.9394,-3.9424,-3.9424,-3.9424,-3.9424,-3.9424,-3.9424,-3.9424,-3.9424,0.0,0.0,0.0,0.0,0.0,0.0,0.0,-3.9424,-3.9349,-3.917,-3.9155,-3.908,-3.8916,-3.8916,-3.8916,-3.8916,-3.9065,-3.9155,-3.9155,-3.9334,-3.9424,-3.9424,-3.9424,-3.9424,-3.9454,-3.9933,-4.0157,-4.0202,-4.0861,-4.113,-4.1145,-4.1309,-4.1683,-4.2117,-4.2117,-4.2117,-4.2013,-4.1354,-4.0816,-4.0292,-3.9634,-3.9424,-3.9424,-3.9424,-3.9424,-3.9424,-3.9424,-3.9424,-3.9424,-3.9424,-3.9424,-3.9896,-4.2052,-4.3279,-4.4655,-4.7374,-4.8513,-4.9001,-4.9001,-4.9001,-4.9001,-4.9001,-4.9001,-4.9001,-4.9001,-4.9001,-4.9001,-4.9001,-4.9001,-4.9001,-4.9001,-4.9001,-4.9001,-4.9001,-4.9509,-5.0135,-5.0879,-5.1783,-5.2946,-5.4277,-5.4895,-5.5454,-5.6004,-5.6169,-5.6474,-5.6912,-5.7083,-5.7449,-5.7997,-5.7997,-5.7997,-2.1672,-2.4317,-2.7324,-2.9922,-3.2527,-3.4475,-3.4819,0.0,-3.7267,-3.6924,-3.7737,-3.8646,-3.929,-3.9424,-3.9424,-3.9424,-3.9424,-3.9424,-3.9424,-3.9424,0.0,0.0,0.0,0.0,0.0,0.0,0.0,0.0,-3.9424,-3.9125,-3.8482,-3.8437,-3.8153,-3.7524,-3.7509,-3.7509,-3.7509,-3.8123,-3.8437,-3.8452,-3.911,-3.9424,-3.9424,-3.9424,-3.9424,-3.9424,-3.9454,-3.9469,-3.9514,-4.0187,-4.0442,-4.0516,-4.113,-4.1399,-4.1429,-4.1429,-4.1429,-4.1339,-4.0681,-4.0427,-4.0292,-3.9634,-3.9424,-3.9424,-3.9424,-3.9424,-3.9424,-3.9424,-3.9424,-3.9424,-3.9424,-3.9424,-3.9775,-4.148,-4.2485,-4.4237,-4.8107,-4.894,-4.9001,-4.9001,-4.9001,-4.9001,-4.9001,-4.9001,-4.9001,-4.9001,-4.9001,-4.9001,-4.9001,-4.9001,-4.9001,-4.9001,-4.9001,-4.9001,-4.9001,-4.9035,-4.9373,-5.0101,-5.1588,-5.2735,-5.3498,-5.5648,-5.6791,-5.6861,-5.7498,-5.7565,-5.6912,-5.7613,-5.795,-5.7997,-5.7997,-5.7997,-2.2165,-2.3822,-2.5854,-2.8068,-2.9983,-3.1721,-3.3066,-3.4827,-3.6224,-3.6576,-3.7243,-3.7838,-3.8078,-3.8841,-3.9424,-3.9424,-3.9424,-3.9424,-3.9424,-3.9424,0.0,0.0,0.0,0.0,0.0,0.0,0.0,0.0,0.0,-3.9542,-3.9292,-3.8785,-3.8427,-3.8183,-3.7662,-3.7404,-3.7404,-3.7644,-3.7764,-3.7764,-3.8437,-3.8751,-3.8781,-3.9215,-3.9424,-3.9424,-3.9424,-3.9424,-3.9439,-3.9679,-3.9768,-3.9798,-4.0023,-4.0382,-4.0756,-4.0756,-4.0756,-4.0711,-4.0487,-4.0127,-3.9723,-3.9499,-3.9424,-3.9424,-3.9424,-3.9424,-3.9424,-3.9424,-3.9424,-3.9424,-3.9424,-3.9793,-4.0916,-4.3554,-4.5191,-4.6708,-4.8591,-4.9001,-4.9001,-4.9001,-4.9001,-4.9001,-4.9001,-4.9001,-4.9001,-4.9001,-4.9001,-4.9001,-4.9001,-4.9001,-4.9001,-4.9001,-4.9001,-4.9001,-4.9001,-4.9419,-5.0007,-5.0781,-5.1725,-5.3099,-5.483,-5.57,-5.6609,-5.7613,-5.7886,-5.7886,-5.7613,-5.7886,-5.7997,-5.7997,-5.7997,-5.7997,-2.162,-2.2802,-2.4448,-2.6422,-2.759,-2.8996,-3.1869,-3.32,-3.4277,-3.5833,-3.6477,-3.6896,-3.733,-3.8138,-3.8751,-3.8751,-3.8751,-3.8751,-3.8751,-3.8751,0.0,0.0,0.0,0.0,0.0,0.0,0.0,0.0,0.0,0.0,-3.9444,-3.8952,-3.8418,-3.793,-3.7198,-3.6761,-3.6761,-3.6985,-3.7105,-3.7105,-3.7749,-3.8063,-3.8078,-3.8766,-3.9065,-3.9095,-3.932,-3.9424,-3.9424,-3.9424,-3.9424,-3.9424,-3.9424,-3.9694,-4.0068,-4.0068,-4.0068,-4.0068,-4.0068,-3.9783,-3.9424,-3.9424,-3.9424,-3.9424,-3.9424,-3.9424,-3.9424,-3.9424,-3.961,-3.9864,-3.9864,-4.0861,-4.2444,-4.4322,-4.638,-4.7986,-4.8206,-4.8646,-4.9001,-4.9001,-4.9001,-4.9001,-4.9001,-4.9001,-4.9001,-4.9001,-4.9001,-4.9001,-4.9001,-4.9001,-4.9001,-4.9001,-4.9001,-4.9001,-4.9001,-4.9419,-4.9887,-5.042,-5.1588,-5.2945,-5.4484,-5.5279,-5.6277,-5.7574,-5.7336,-5.7464,-5.7997,-5.7997,-5.7997,-5.7997,-5.7997,-5.7997,0.0,0.0,0.0,-2.5001,0.0,0.0,-3.1225,0.0,-3.1345,-3.4651,-3.537,-3.5789,-3.709,-3.7315,-3.733,-3.7345,-3.7389,-3.7404,-3.7404,0.0,0.0,0.0,0.0,0.0,0.0,0.0,0.0,0.0,-3.9793,-3.955,-3.8862,-3.883,-3.8153,-3.6692,-3.5894,-3.5504,-3.5504,-3.6133,-3.6462,-3.6462,-3.709,-3.7375,-3.7404,-3.8063,-3.8362,-3.8407,-3.9095,-3.9394,-3.9394,-3.9409,-3.9424,-3.9424,-3.9424,-3.9424,-3.9424,-3.9424,-3.9424,-3.9424,-3.9424,-3.9424,-3.9424,-3.9424,-3.9424,-3.9409,-3.9424,-3.9409,-3.9409,-3.9481,-4.006,-4.0675,-4.0743,-4.2558,-4.4224,-4.3564,-4.5678,-4.7665,-4.6972,-4.7953,-4.8984,-4.9001,-4.9001,-4.9001,-4.9001,-4.9001,-4.9001,-4.9001,-4.9001,-4.9001,-4.9001,-4.9001,-4.9001,-4.9001,-4.9001,-4.9001,-4.9001,-4.9001,-4.9063,-4.9063,-5.1123,-5.229,-5.2378,-5.4433,-5.5941,-5.6767,-5.5996,-5.6363,-5.7923,-5.7941,-5.7978,-5.7997,-5.7997,-5.7997,-2.0004,0.0,0.0,0.0,0.0,0.0,0.0,0.0,-2.8921,-3.0821,-3.1973,-3.317,-3.4966,-3.528,-3.5444,-3.5953,-3.6806,-3.7404,-3.7404,0.0,0.0,0.0,0.0,0.0,0.0,0.0,0.0,0.0,-3.9698,-3.9917,-3.9771,-3.9166,-3.844,-3.7515,-3.6692,-3.6275,-3.6275,-3.5963,-3.5774,-3.5789,-3.6432,-3.6746,-3.6761,-3.7389,-3.7689,-3.7719,-3.8392,-3.8676,-3.8706,-3.9215,-3.9424,-3.9424,-3.9424,-3.9424,-3.9424,-3.9424,-3.9424,-3.9424,-3.9424,-3.9424,-3.9424,-3.9424,-3.9424,-3.9553,-4.0115,-3.9935,-3.9681,-4.0909,-4.1028,-4.1013,-4.2252,-4.3117,-4.3883,-4.48,-4.5681,-4.6566,-4.7428,-4.7936,-4.8376,-4.89,-4.9001,-4.9001,-4.9001,-4.9001,-4.9001,-4.9001,-4.9001,-4.9001,-4.9001,-4.9001,-4.9001,-4.9001,-4.9001,-4.9001,-4.9001,-4.9462,-4.9936,-5.0462,-5.1538,-5.266,-5.3781,-5.4407,-5.5115,-5.5904,-5.5702,-5.5812,-5.6253,-5.684,-5.7428,-5.7997,-5.7997,-5.7997,-2.0543,-2.1096,-2.2069,-2.1949,0.0,0.0,-2.4388,-2.5405,-2.6617,0.0,-3.0193,-3.124,-3.2931,-3.3469,-3.3784,-3.4188,-3.534,-3.6282,-3.6582,0.0,0.0,0.0,0.0,0.0,0.0,-3.8635,-3.9032,-3.9385,-3.985,-4.007,-4.007,-3.9315,-3.869,-3.8246,-3.7499,-3.6904,-3.6615,-3.6165,-3.5782,-3.5504,-3.5893,-3.6073,-3.6088,-3.6731,-3.703,-3.706,-3.7704,-3.7973,-3.8033,-3.8721,-3.9155,-3.9424,-3.9424,-3.9424,-3.9424,-3.9424,-3.9424,-3.9424,-3.9424,-3.9424,-3.9424,-3.9424,-3.9681,-4.006,-4.0569,-4.0569,-4.0706,-4.1739,-4.1933,-4.2125,-4.3486,-4.3814,-4.4048,-4.4997,-4.5483,-4.594,-4.6819,-4.7225,-4.775,-4.8798,-4.9001,-4.9001,-4.9001,-4.9001,-4.9001,-4.9001,-4.9001,-4.9001,-4.9001,-4.9001,-4.9001,-4.9001,-4.9001,-4.9107,-4.9419,-4.978,-5.0279,-5.1034,-5.1759,-5.247,-5.3381,-5.3738,-5.4289,-5.5078,-5.4766,-5.4748,-5.5097,-5.5904,-5.6712,-5.7519,-5.7831,-5.7997,-2.144,-2.1904,-2.2981,-2.331,-2.2263,0.0,-2.5106,-2.4672,-2.4597,0.0,-2.8876,-2.934,-3.0731,-3.1582,-3.2017,-3.2017,-3.3306,-3.449,-3.528,0.0,0.0,0.0,0.0,0.0,-3.8677,-3.8784,-3.9082,-3.9783,-3.9834,-3.9834,-3.9834,-3.9204,-3.8834,-3.89,-3.8188,-3.7494,-3.6828,-3.6783,-3.6337,-3.5619,-3.5619,-3.5554,-3.5534,-3.6118,-3.6372,-3.6417,-3.703,-3.73,-3.736,-3.8018,-3.8676,-3.932,-3.9394,-3.9424,-3.9424,-3.9424,-3.9424,-3.9424,-3.9424,-3.9481,-3.9538,-3.9538,-4.0115,-4.0878,-4.0946,-4.1462,-4.1997,-4.2125,-4.2785,-4.3621,-4.4384,-4.4587,-4.4587,-4.4587,-4.5094,-4.5602,-4.5686,-4.621,-4.709,-4.8494,-4.8832,-4.89,-4.8984,-4.9001,-4.9001,-4.9001,-4.9001,-4.9001,-4.9001,-4.9001,-4.9001,-4.9107,-4.9107,-4.9359,-5.0072,-5.0129,-5.0445,-5.1189,-5.1759,-5.2159,-5.2224,-5.2831,-5.3555,-5.4252,-5.3573,-5.3555,-5.4271,-5.5152,-5.5996,-5.6822,-5.7538,-5.7905,-2.2682,-2.3251,-2.3894,-2.2428,-2.2966,0.0,-2.1455,-2.2368,-2.367,0.0,-2.4418,-2.5345,-2.7215,-2.8475,-2.9154,-2.9037,-3.1097,-3.3209,-3.449,-3.5138,0.0,0.0,0.0,0.0,-3.7985,-3.8117,-3.8166,-3.8328,-3.8328,-3.8328,-3.8328,-3.8166,-3.8369,-3.8958,-3.8242,-3.8008,-3.8453,-3.7847,-3.716,-3.6384,-3.6384,-3.6054,-3.5504,-3.5639,-3.5699,-3.5729,-3.6387,-3.6671,-3.6716,-3.7345,-3.7988,-3.8646,-3.92,-3.9424,-3.9424,-3.9424,-3.9424,-3.9424,-3.9424,-3.9864,-4.0432,-4.0432,-4.1028,-4.1869,-4.2583,-4.2395,-4.2125,-4.2847,-4.368,-4.4384,-4.457,-4.4587,-4.4587,-4.4587,-4.4688,-4.4976,-4.5568,-4.5821,-4.6177,-4.7056,-4.7716,-4.8308,-4.89,-4.9001,-4.9001,-4.9001,-4.9001,-4.9001,-4.9001,-4.9001,-4.9212,-4.978,-4.9821,-5.009,-5.0823,-5.0876,-5.1189,-5.1856,-5.2018,-5.2381,-5.2937,-5.3103,-5.328,-5.3445,-5.3298,-5.3298,-5.3445,-5.4876,-5.5996,-5.6804,-5.6969,-5.7373,-2.358,-2.3864,-2.4343,-2.34,-2.34,0.0,0.0,-2.168,-2.2338,-2.2996,-2.3326,-2.3937,-2.5637,-2.6594,-2.7235,-2.7562,-2.9619,-3.1461,-3.2213,-3.3856,-3.5415,0.0,0.0,0.0,-3.7841,-3.7905,-3.7905,-3.7905,-3.7905,-3.7905,-3.7905,-3.7905,-3.8075,-3.8447,-3.8405,-3.8365,-3.8381,-3.8345,-3.7962,-3.7203,-3.6783,-3.6384,-3.6054,-3.5668,-3.5504,-3.5519,-3.5848,-3.5998,-3.6043,-3.6686,-3.715,-3.7539,-3.8512,-3.8901,-3.8945,-3.929,-3.9424,-3.9481,-3.9935,-4.0293,-4.0743,-4.1213,-4.1933,-4.2724,-4.3169,-4.329,-4.341,-4.3814,-4.4253,-4.4587,-4.4587,-4.4587,-4.4587,-4.4587,-4.4587,-4.4671,-4.506,-4.5145,-4.5365,-4.6109,-4.6549,-4.7056,-4.7784,-4.7902,-4.7902,-4.7902,-4.7902,-4.7902,-4.7902,-4.8223,-4.8575,-4.883,-4.9543,-5.0322,-5.0941,-5.1379,-5.1922,-5.2599,-5.2662,-5.2813,-5.3164,-5.3206,-5.3206,-5.3206,-5.3206,-5.3206,-5.3206,-5.4014,-5.4821,-5.5629,-5.6436,-5.7024,-2.4687,-2.4777,-2.5194,-2.4597,-2.4029,-2.3398,0.0,0.0,0.0,0.0,0.0,0.0,0.0,0.0,0.0,0.0,0.0,0.0,0.0,-3.1678,0.0,0.0,0.0,0.0,0.0,-3.7043,-3.7161,-3.7449,-3.7195,-3.7161,-3.7449,-3.7466,-3.7533,-3.7686,-3.8261,-3.8421,-3.8027,-3.8642,-3.8614,-3.7978,-3.7365,-3.6904,-3.6615,-3.6006,-3.5604,-3.5504,-3.5504,-3.5504,-3.5549,-3.6073,-3.6297,-3.6432,-3.7838,-3.8392,-3.8467,-3.917,-3.9481,-3.9737,-4.0432,-4.0946,-4.1346,-4.1997,-4.2847,-4.3562,-4.3562,-4.4064,-4.4587,-4.4587,-4.4587,-4.4587,-4.4587,-4.4587,-4.4587,-4.4587,-4.4587,-4.4587,-4.4587,-4.4587,-4.4756,-4.5365,-4.55,-4.5771,-4.665,-4.6786,-4.6786,-4.6786,-4.6786,-4.6786,-4.6786,-4.7429,-4.7865,-4.7941,-4.9147,-5.0329,-5.1067,-5.1719,-5.239,-5.3146,-5.3206,-5.3206,-5.3206,-5.3206,-5.3206,-5.3206,-5.3206,-5.3206,-5.3206,-5.3206,-5.361,-5.4436,-5.5739,-5.651,-2.6632,-2.7171,-2.744,-2.4462,-2.5375,-2.5794,-2.1096,0.0,-2.2009,-2.0453,0.0,0.0,0.0,0.0,0.0,0.0,0.0,0.0,-2.6199,-2.8151,-3.0131,0.0,0.0,0.0,0.0,-3.3914,-3.4455,-3.5774,-3.4658,-3.4489,-3.5808,-3.5876,-3.6197,-3.6891,-3.6992,-3.7652,-3.8856,-3.8957,-3.8923,-3.8799,-3.8674,-3.793,-3.6615,-3.6492,-3.6117,-3.5504,-3.5504,-3.5504,-3.5504,-3.5594,-3.5609,-3.5804,-3.7659,-3.8392,-3.8467,-3.917,-3.9864,-4.0569,-4.069,-4.1739,-4.3047,-4.3108,-4.3739,-4.4457,-4.4457,-4.4514,-4.4587,-4.4587,-4.4587,-4.4587,-4.4587,-4.4587,-4.4587,-4.4587,-4.4587,-4.4587,-4.4587,-4.4587,-4.4604,-4.4688,-4.4705,-4.5145,-4.6549,-4.6786,-4.6786,-4.6786,-4.6786,-4.6786,-4.6786,-4.7364,-4.7976,-4.8584,-4.9317,-5.0317,-5.176,-5.1967,-5.2333,-5.317,-5.3206,-5.3206,-5.3206,-5.3206,-5.3206,-5.3206,-5.3206,-5.3206,-5.3206,-5.3206,-5.361,-5.4399,-5.4583,-5.5445,-2.6841,-2.7606,-2.7984,-2.5393,-2.5622,-2.5496,-2.1723,0.0,-2.0812,0.0,0.0,0.0,0.0,0.0,0.0,0.0,-2.4228,0.0,0.0,0.0,-2.8198,0.0,0.0,0.0,0.0,0.0,0.0,0.0,-3.3102,-3.322,-3.4286,-3.4742,-3.5318,-3.6079,-3.6552,-3.7077,-3.7702,-3.8565,-3.8975,-3.894,-3.8941,-3.8342,-3.7263,-3.6783,-3.6228,-3.5504,-3.5504,-3.5504,-3.5504,-3.5504,-3.5504,-3.5674,-3.7279,-3.8228,-3.8656,-3.936,-4.0349,-4.1543,-4.2062,-4.2724,-4.3366,-4.3873,-4.4327,-4.4587,-4.4587,-4.4587,-4.4587,-4.4587,-4.4587,-4.4587,-4.4587,-4.4587,-4.4587,-4.4587,-4.4587,-4.4587,-4.4587,-4.4587,-4.4587,-4.4587,-4.4587,-4.4773,-4.5399,-4.55,-4.55,-4.55,-4.5845,-4.6032,-4.6032,-4.7004,-4.7738,-4.7946,-4.901,-4.9952,-5.056,-5.1041,-5.1646,-5.2454,-5.2949,-5.3206,-5.3206,-5.3206,-5.3206,-5.3206,-5.3206,-5.3206,-5.3206,-5.3206,-5.339,-5.372,-5.4179,-5.4766,-2.7633,0.0,0.0,0.0,0.0,0.0,0.0,0.0,0.0,0.0,0.0,0.0,0.0,0.0,0.0,0.0,0.0,-2.4371,0.0,-2.4983,0.0,0.0,0.0,0.0,0.0,0.0,0.0,0.0,0.0,-3.1647,-3.3034,-3.3795,-3.4539,-3.5284,-3.6062,-3.6569,-3.6772,-3.8058,-3.8802,-3.9005,-3.9156,-3.8816,-3.8076,-3.7263,-3.6523,-3.5782,-3.5619,-3.5504,-3.5504,-3.5504,-3.5619,-3.5876,-3.6923,-3.8075,-3.9156,-3.9799,-4.1007,-4.2458,-4.3108,-4.3443,-4.3756,-4.4384,-4.4587,-4.4587,-4.4587,-4.4587,-4.4587,-4.4587,-4.4587,-4.4587,-4.4587,-4.4587,-4.4587,-4.4587,-4.4587,-4.4587,-4.4587,-4.4587,-4.4587,-4.4587,-4.4587,-4.4682,-4.4814,-4.472,-4.4682,-4.4814,-4.5232,-4.5545,-4.5732,-4.6817,-4.7525,-4.7396,-4.8562,-4.9398,-4.957,-5.0123,-5.0912,-5.194,-5.2546,-5.2968,-5.3206,-5.3206,-5.3206,-5.3206,-5.3206,-5.3206,-5.3206,-5.3206,-5.3206,-5.3225,-5.3812,-5.4197,0.0,0.0,0.0,-2.5686,0.0,0.0,0.0,0.0,-2.3183,0.0,0.0,0.0,0.0,0.0,0.0,0.0,0.0,0.0,0.0,0.0,0.0,0.0,0.0,0.0,0.0,0.0,0.0,0.0,0.0,0.0,-3.2195,-3.3034,-3.3778,-3.4506,-3.5267,-3.6011,-3.6772,-3.755,-3.8294,-3.9005,-3.9715,-3.9662,-3.8854,-3.8092,-3.7338,-3.6492,-3.5846,-3.5504,-3.5504,-3.5504,-3.5958,-3.6554,-3.6631,-3.8062,-4.0114,-4.0646,-4.186,-4.3246,-4.3306,-4.3873,-4.457,-4.457,-4.4587,-4.4587,-4.4587,-4.4587,-4.4587,-4.4587,-4.4587,-4.4587,-4.4587,-4.4587,-4.4587,-4.4587,-4.4587,-4.4587,-4.4587,-4.4587,-4.4587,-4.4587,-4.4587,-4.4776,-4.5372,-4.4998,-4.4814,-4.5355,-4.5511,-4.5681,-4.6288,-4.6972,-4.7403,-4.7385,-4.7992,-4.871,-4.9517,-4.9609,-5.0288,-5.1885,-5.2013,-5.238,-5.3188,-5.3206,-5.3206,-5.3206,-5.3206,-5.3206,-5.3206,-5.3206,-5.3206,-5.3206,-5.3243,-5.3665,0.0,0.0,-3.1955,-2.8121,0.0,0.0,0.0,0.0,0.0,0.0,0.0,0.0,0.0,0.0,0.0,0.0,0.0,0.0,0.0,0.0,0.0,0.0,0.0,0.0,0.0,0.0,0.0,0.0,-2.7977,0.0,0.0,-3.2002,-3.322,-3.4455,-3.5233,-3.574,-3.6011,-3.6772,-3.7297,-3.755,-3.8768,-3.8958,-3.8163,-3.7939,-3.7338,-3.6554,-3.5846,-3.5782,-3.6228,-3.6228,-3.6692,-3.744,-3.7946,-3.8949,-4.0199,-4.0827,-4.2072,-4.3451,-4.3954,-4.4327,-4.4587,-4.4587,-4.4587,-4.4587,-4.4587,-4.4587,-4.4587,-4.4587,-4.4587,-4.4587,-4.4587,-4.4587,-4.4587,-4.4587,-4.4587,-4.4587,-4.4587,-4.4587,-4.4587,-4.4587,-4.4906,-4.5267,-4.5459,-4.5648,-4.5865,-4.6046,-4.6478,-4.6819,-4.7062,-4.7614,-4.7995,-4.7995,-4.8172,-4.8416,-4.871,-4.926,-4.9811,-5.0362,-5.1408,-5.2105,-5.238,-5.2931,-5.3206,-5.3206,-5.3206,-5.3206,-5.3206,-5.3206,-5.3206,-5.3206,-5.3206,-5.3353,-3.2224,-3.3067,0.0,-2.9999,-2.9165,0.0,-2.4758,0.0,-2.5721,0.0,0.0,0.0,0.0,0.0,0.0,0.0,0.0,0.0,0.0,-2.231,0.0,0.0,0.0,-2.4847,0.0,-2.5473,-2.5981,-2.6285,-2.6268,-2.7029,0.0,0.0,-3.2442,-3.3677,-3.4945,-3.5622,-3.5622,-3.64,-3.6772,-3.6789,-3.8024,-3.832,-3.7834,-3.7785,-3.7536,-3.7017,-3.6538,-3.66,-3.7024,-3.7024,-3.7499,-3.8246,-3.869,-3.9384,-4.0201,-4.095,-4.2126,-4.3538,-4.4316,-4.4587,-4.4587,-4.4587,-4.4587,-4.4587,-4.4587,-4.4587,-4.4587,-4.4587,-4.4587,-4.4587,-4.4587,-4.4587,-4.4587,-4.4587,-4.4587,-4.4587,-4.4587,-4.4587,-4.4682,-4.4852,-4.5232,-4.5648,-4.6112,-4.6495,-4.6756,-4.6756,-4.7132,-4.7488,-4.7697,-4.8075,-4.8306,-4.8306,-4.8306,-4.8306,-4.8306,-4.8802,-4.926,-4.9554,-5.0563,-5.1261,-5.1555,-5.2344,-5.2766,-5.2766,-5.3059,-5.3206,-5.3206,-5.3206,-5.3206,-5.3206,-5.3206,-5.3272]}]]